<?xml version="1.0" encoding="UTF-8" standalone="no" ?>
<gpx xmlns="http://www.topografix.com/GPX/1/1" xmlns:xsi="http://www.w3.org/2001/XMLSchema-instance" xsi:schemaLocation="http://www.topografix.com/GPX/1/1 http://www.topografix.com/GPX/1/1/gpx.xsd" version="1.1" creator="VisuGPX - https://www.visugpx.com">
  <metadata>
    <name>rando an ath/RENAIX/16OCT 2016</name>
    <desc><![CDATA[Très beau circuits Guide :Danielle & Sylvain.
]]></desc>
  </metadata>
  <trk>
    <name><![CDATA[RONSE10-16 15:55:33]]></name>
    <trkseg>
      <trkpt lat="50.7486" lon="3.56609">
        <ele>35.71</ele>
        <time>2016-10-16T06:51:21Z</time>
      </trkpt>
      <trkpt lat="50.74859" lon="3.56609">
        <ele>35.71</ele>
        <time>2016-10-16T06:51:22Z</time>
      </trkpt>
      <trkpt lat="50.7486" lon="3.56609">
        <ele>36.67</ele>
        <time>2016-10-16T06:51:39Z</time>
      </trkpt>
      <trkpt lat="50.7486" lon="3.56608">
        <ele>36.67</ele>
        <time>2016-10-16T06:52:16Z</time>
      </trkpt>
      <trkpt lat="50.7486" lon="3.5661">
        <ele>35.23</ele>
        <time>2016-10-16T06:52:46Z</time>
      </trkpt>
      <trkpt lat="50.74861" lon="3.56608">
        <ele>35.23</ele>
        <time>2016-10-16T06:53:25Z</time>
      </trkpt>
      <trkpt lat="50.74858" lon="3.56608">
        <ele>34.74</ele>
        <time>2016-10-16T06:53:48Z</time>
      </trkpt>
      <trkpt lat="50.74859" lon="3.56609">
        <ele>35.71</ele>
        <time>2016-10-16T06:53:59Z</time>
      </trkpt>
      <trkpt lat="50.74859" lon="3.56609">
        <ele>33.3</ele>
        <time>2016-10-16T06:54:01Z</time>
      </trkpt>
      <trkpt lat="50.74858" lon="3.5661">
        <ele>34.74</ele>
        <time>2016-10-16T06:54:04Z</time>
      </trkpt>
      <trkpt lat="50.74858" lon="3.5661">
        <ele>40.51</ele>
        <time>2016-10-16T06:54:08Z</time>
      </trkpt>
      <trkpt lat="50.74858" lon="3.56611">
        <ele>35.23</ele>
        <time>2016-10-16T06:54:09Z</time>
      </trkpt>
      <trkpt lat="50.7486" lon="3.5661">
        <ele>34.74</ele>
        <time>2016-10-16T06:54:31Z</time>
      </trkpt>
      <trkpt lat="50.74857" lon="3.5661">
        <ele>35.23</ele>
        <time>2016-10-16T06:55:13Z</time>
      </trkpt>
      <trkpt lat="50.74858" lon="3.56606">
        <ele>35.23</ele>
        <time>2016-10-16T06:55:31Z</time>
      </trkpt>
      <trkpt lat="50.74862" lon="3.56608">
        <ele>35.23</ele>
        <time>2016-10-16T06:55:57Z</time>
      </trkpt>
      <trkpt lat="50.74862" lon="3.56609">
        <ele>35.23</ele>
        <time>2016-10-16T06:56:19Z</time>
      </trkpt>
      <trkpt lat="50.74855" lon="3.56611">
        <ele>35.23</ele>
        <time>2016-10-16T06:56:51Z</time>
      </trkpt>
      <trkpt lat="50.74856" lon="3.56606">
        <ele>35.23</ele>
        <time>2016-10-16T06:57:20Z</time>
      </trkpt>
      <trkpt lat="50.74855" lon="3.56608">
        <ele>35.23</ele>
        <time>2016-10-16T06:57:49Z</time>
      </trkpt>
      <trkpt lat="50.74856" lon="3.5661">
        <ele>37.15</ele>
        <time>2016-10-16T06:58:19Z</time>
      </trkpt>
      <trkpt lat="50.74856" lon="3.5661">
        <ele>37.15</ele>
        <time>2016-10-16T06:58:20Z</time>
      </trkpt>
      <trkpt lat="50.74856" lon="3.5661">
        <ele>35.71</ele>
        <time>2016-10-16T06:58:22Z</time>
      </trkpt>
      <trkpt lat="50.74856" lon="3.56608">
        <ele>35.71</ele>
        <time>2016-10-16T06:58:50Z</time>
      </trkpt>
      <trkpt lat="50.74858" lon="3.56608">
        <ele>35.71</ele>
        <time>2016-10-16T06:59:13Z</time>
      </trkpt>
      <trkpt lat="50.74858" lon="3.56604">
        <ele>35.71</ele>
        <time>2016-10-16T06:59:34Z</time>
      </trkpt>
      <trkpt lat="50.74861" lon="3.56604">
        <ele>34.74</ele>
        <time>2016-10-16T06:59:52Z</time>
      </trkpt>
      <trkpt lat="50.74861" lon="3.56605">
        <ele>40.03</ele>
        <time>2016-10-16T06:59:54Z</time>
      </trkpt>
      <trkpt lat="50.74861" lon="3.56605">
        <ele>36.67</ele>
        <time>2016-10-16T06:59:55Z</time>
      </trkpt>
      <trkpt lat="50.74861" lon="3.56604">
        <ele>36.19</ele>
        <time>2016-10-16T06:59:57Z</time>
      </trkpt>
      <trkpt lat="50.7486" lon="3.56604">
        <ele>35.71</ele>
        <time>2016-10-16T07:00:15Z</time>
      </trkpt>
      <trkpt lat="50.74861" lon="3.56607">
        <ele>35.71</ele>
        <time>2016-10-16T07:00:34Z</time>
      </trkpt>
      <trkpt lat="50.74863" lon="3.56607">
        <ele>36.67</ele>
        <time>2016-10-16T07:00:54Z</time>
      </trkpt>
      <trkpt lat="50.74866" lon="3.56607">
        <ele>36.67</ele>
        <time>2016-10-16T07:01:22Z</time>
      </trkpt>
      <trkpt lat="50.74863" lon="3.56607">
        <ele>36.67</ele>
        <time>2016-10-16T07:01:40Z</time>
      </trkpt>
      <trkpt lat="50.74861" lon="3.56606">
        <ele>36.19</ele>
        <time>2016-10-16T07:02:10Z</time>
      </trkpt>
      <trkpt lat="50.74862" lon="3.56604">
        <ele>35.23</ele>
        <time>2016-10-16T07:02:33Z</time>
      </trkpt>
      <trkpt lat="50.74861" lon="3.56596">
        <ele>36.67</ele>
        <time>2016-10-16T07:02:45Z</time>
      </trkpt>
      <trkpt lat="50.74862" lon="3.56596">
        <ele>36.67</ele>
        <time>2016-10-16T07:03:04Z</time>
      </trkpt>
      <trkpt lat="50.74864" lon="3.56595">
        <ele>36.67</ele>
        <time>2016-10-16T07:03:26Z</time>
      </trkpt>
      <trkpt lat="50.74864" lon="3.56593">
        <ele>36.67</ele>
        <time>2016-10-16T07:03:39Z</time>
      </trkpt>
      <trkpt lat="50.74865" lon="3.56593">
        <ele>35.23</ele>
        <time>2016-10-16T07:03:55Z</time>
      </trkpt>
      <trkpt lat="50.74865" lon="3.56594">
        <ele>36.67</ele>
        <time>2016-10-16T07:04:03Z</time>
      </trkpt>
      <trkpt lat="50.74864" lon="3.56594">
        <ele>35.23</ele>
        <time>2016-10-16T07:04:05Z</time>
      </trkpt>
      <trkpt lat="50.74864" lon="3.56595">
        <ele>35.23</ele>
        <time>2016-10-16T07:04:30Z</time>
      </trkpt>
      <trkpt lat="50.74862" lon="3.56595">
        <ele>35.23</ele>
        <time>2016-10-16T07:05:04Z</time>
      </trkpt>
      <trkpt lat="50.7486" lon="3.56591">
        <ele>35.23</ele>
        <time>2016-10-16T07:05:21Z</time>
      </trkpt>
      <trkpt lat="50.74858" lon="3.56589">
        <ele>35.23</ele>
        <time>2016-10-16T07:05:23Z</time>
      </trkpt>
      <trkpt lat="50.74853" lon="3.56583">
        <ele>36.19</ele>
        <time>2016-10-16T07:05:41Z</time>
      </trkpt>
      <trkpt lat="50.74851" lon="3.56582">
        <ele>34.74</ele>
        <time>2016-10-16T07:05:55Z</time>
      </trkpt>
      <trkpt lat="50.74846" lon="3.56579">
        <ele>34.74</ele>
        <time>2016-10-16T07:06:22Z</time>
      </trkpt>
      <trkpt lat="50.74856" lon="3.56587">
        <ele>33.3</ele>
        <time>2016-10-16T07:06:47Z</time>
      </trkpt>
      <trkpt lat="50.74857" lon="3.56586">
        <ele>37.15</ele>
        <time>2016-10-16T07:06:48Z</time>
      </trkpt>
      <trkpt lat="50.7486" lon="3.56587">
        <ele>35.23</ele>
        <time>2016-10-16T07:07:15Z</time>
      </trkpt>
      <trkpt lat="50.74851" lon="3.56579">
        <ele>35.23</ele>
        <time>2016-10-16T07:07:57Z</time>
      </trkpt>
      <trkpt lat="50.7486" lon="3.56588">
        <ele>34.74</ele>
        <time>2016-10-16T07:08:27Z</time>
      </trkpt>
      <trkpt lat="50.74864" lon="3.56593">
        <ele>34.74</ele>
        <time>2016-10-16T07:09:06Z</time>
      </trkpt>
      <trkpt lat="50.7486" lon="3.56597">
        <ele>34.74</ele>
        <time>2016-10-16T07:09:38Z</time>
      </trkpt>
      <trkpt lat="50.74856" lon="3.56595">
        <ele>34.74</ele>
        <time>2016-10-16T07:10:17Z</time>
      </trkpt>
      <trkpt lat="50.74857" lon="3.56592">
        <ele>34.74</ele>
        <time>2016-10-16T07:10:53Z</time>
      </trkpt>
      <trkpt lat="50.74857" lon="3.56589">
        <ele>35.71</ele>
        <time>2016-10-16T07:11:21Z</time>
      </trkpt>
      <trkpt lat="50.74859" lon="3.56584">
        <ele>35.71</ele>
        <time>2016-10-16T07:11:52Z</time>
      </trkpt>
      <trkpt lat="50.74853" lon="3.56581">
        <ele>35.71</ele>
        <time>2016-10-16T07:12:29Z</time>
      </trkpt>
      <trkpt lat="50.74857" lon="3.56584">
        <ele>34.74</ele>
        <time>2016-10-16T07:12:55Z</time>
      </trkpt>
      <trkpt lat="50.74855" lon="3.56586">
        <ele>34.74</ele>
        <time>2016-10-16T07:13:20Z</time>
      </trkpt>
      <trkpt lat="50.74854" lon="3.56585">
        <ele>34.74</ele>
        <time>2016-10-16T07:13:50Z</time>
      </trkpt>
      <trkpt lat="50.74856" lon="3.56583">
        <ele>34.74</ele>
        <time>2016-10-16T07:14:17Z</time>
      </trkpt>
      <trkpt lat="50.74863" lon="3.5659">
        <ele>34.74</ele>
        <time>2016-10-16T07:14:57Z</time>
      </trkpt>
      <trkpt lat="50.74866" lon="3.56588">
        <ele>34.74</ele>
        <time>2016-10-16T07:15:20Z</time>
      </trkpt>
      <trkpt lat="50.74871" lon="3.56587">
        <ele>35.71</ele>
        <time>2016-10-16T07:15:37Z</time>
      </trkpt>
      <trkpt lat="50.7486" lon="3.56596">
        <ele>34.74</ele>
        <time>2016-10-16T07:16:04Z</time>
      </trkpt>
      <trkpt lat="50.74857" lon="3.566">
        <ele>34.74</ele>
        <time>2016-10-16T07:16:36Z</time>
      </trkpt>
      <trkpt lat="50.74861" lon="3.56595">
        <ele>34.74</ele>
        <time>2016-10-16T07:16:52Z</time>
      </trkpt>
      <trkpt lat="50.74863" lon="3.56597">
        <ele>34.74</ele>
        <time>2016-10-16T07:17:10Z</time>
      </trkpt>
      <trkpt lat="50.74862" lon="3.56604">
        <ele>34.74</ele>
        <time>2016-10-16T07:17:26Z</time>
      </trkpt>
      <trkpt lat="50.74864" lon="3.56609">
        <ele>34.26</ele>
        <time>2016-10-16T07:17:43Z</time>
      </trkpt>
      <trkpt lat="50.74865" lon="3.56609">
        <ele>33.78</ele>
        <time>2016-10-16T07:17:54Z</time>
      </trkpt>
      <trkpt lat="50.74866" lon="3.56606">
        <ele>37.63</ele>
        <time>2016-10-16T07:17:59Z</time>
      </trkpt>
      <trkpt lat="50.74868" lon="3.56606">
        <ele>34.74</ele>
        <time>2016-10-16T07:18:00Z</time>
      </trkpt>
      <trkpt lat="50.74863" lon="3.56609">
        <ele>34.74</ele>
        <time>2016-10-16T07:18:18Z</time>
      </trkpt>
      <trkpt lat="50.74858" lon="3.56616">
        <ele>34.26</ele>
        <time>2016-10-16T07:18:38Z</time>
      </trkpt>
      <trkpt lat="50.74864" lon="3.56613">
        <ele>34.26</ele>
        <time>2016-10-16T07:18:55Z</time>
      </trkpt>
      <trkpt lat="50.74865" lon="3.56609">
        <ele>34.74</ele>
        <time>2016-10-16T07:19:20Z</time>
      </trkpt>
      <trkpt lat="50.74862" lon="3.5661">
        <ele>30.42</ele>
        <time>2016-10-16T07:19:34Z</time>
      </trkpt>
      <trkpt lat="50.74862" lon="3.5661">
        <ele>34.74</ele>
        <time>2016-10-16T07:19:35Z</time>
      </trkpt>
      <trkpt lat="50.74863" lon="3.56608">
        <ele>34.74</ele>
        <time>2016-10-16T07:19:56Z</time>
      </trkpt>
      <trkpt lat="50.74863" lon="3.5661">
        <ele>34.26</ele>
        <time>2016-10-16T07:20:22Z</time>
      </trkpt>
      <trkpt lat="50.74862" lon="3.56602">
        <ele>34.26</ele>
        <time>2016-10-16T07:20:40Z</time>
      </trkpt>
      <trkpt lat="50.74862" lon="3.56606">
        <ele>34.26</ele>
        <time>2016-10-16T07:21:03Z</time>
      </trkpt>
      <trkpt lat="50.74869" lon="3.56616">
        <ele>35.23</ele>
        <time>2016-10-16T07:21:19Z</time>
      </trkpt>
      <trkpt lat="50.74883" lon="3.56616">
        <ele>35.23</ele>
        <time>2016-10-16T07:21:30Z</time>
      </trkpt>
      <trkpt lat="50.74883" lon="3.56615">
        <ele>35.23</ele>
        <time>2016-10-16T07:21:31Z</time>
      </trkpt>
      <trkpt lat="50.74885" lon="3.56601">
        <ele>33.78</ele>
        <time>2016-10-16T07:21:45Z</time>
      </trkpt>
      <trkpt lat="50.74886" lon="3.56592">
        <ele>35.71</ele>
        <time>2016-10-16T07:21:49Z</time>
      </trkpt>
      <trkpt lat="50.74887" lon="3.56584">
        <ele>34.26</ele>
        <time>2016-10-16T07:21:52Z</time>
      </trkpt>
      <trkpt lat="50.74889" lon="3.56576">
        <ele>35.71</ele>
        <time>2016-10-16T07:21:56Z</time>
      </trkpt>
      <trkpt lat="50.74896" lon="3.56549">
        <ele>35.71</ele>
        <time>2016-10-16T07:22:12Z</time>
      </trkpt>
      <trkpt lat="50.74904" lon="3.56543">
        <ele>35.71</ele>
        <time>2016-10-16T07:22:20Z</time>
      </trkpt>
      <trkpt lat="50.7491" lon="3.56546">
        <ele>34.74</ele>
        <time>2016-10-16T07:22:25Z</time>
      </trkpt>
      <trkpt lat="50.74917" lon="3.56544">
        <ele>36.19</ele>
        <time>2016-10-16T07:22:32Z</time>
      </trkpt>
      <trkpt lat="50.74921" lon="3.56549">
        <ele>34.74</ele>
        <time>2016-10-16T07:22:36Z</time>
      </trkpt>
      <trkpt lat="50.74924" lon="3.56553">
        <ele>35.71</ele>
        <time>2016-10-16T07:22:39Z</time>
      </trkpt>
      <trkpt lat="50.74929" lon="3.56561">
        <ele>34.74</ele>
        <time>2016-10-16T07:22:46Z</time>
      </trkpt>
      <trkpt lat="50.74931" lon="3.56564">
        <ele>36.67</ele>
        <time>2016-10-16T07:22:48Z</time>
      </trkpt>
      <trkpt lat="50.74941" lon="3.56588">
        <ele>34.74</ele>
        <time>2016-10-16T07:22:59Z</time>
      </trkpt>
      <trkpt lat="50.74943" lon="3.56594">
        <ele>36.67</ele>
        <time>2016-10-16T07:23:02Z</time>
      </trkpt>
      <trkpt lat="50.74949" lon="3.56621">
        <ele>34.26</ele>
        <time>2016-10-16T07:23:15Z</time>
      </trkpt>
      <trkpt lat="50.7495" lon="3.56625">
        <ele>36.67</ele>
        <time>2016-10-16T07:23:17Z</time>
      </trkpt>
      <trkpt lat="50.74951" lon="3.56633">
        <ele>34.74</ele>
        <time>2016-10-16T07:23:21Z</time>
      </trkpt>
      <trkpt lat="50.74952" lon="3.56638">
        <ele>36.67</ele>
        <time>2016-10-16T07:23:24Z</time>
      </trkpt>
      <trkpt lat="50.74952" lon="3.56644">
        <ele>35.23</ele>
        <time>2016-10-16T07:23:27Z</time>
      </trkpt>
      <trkpt lat="50.74955" lon="3.56656">
        <ele>36.67</ele>
        <time>2016-10-16T07:23:32Z</time>
      </trkpt>
      <trkpt lat="50.74957" lon="3.56667">
        <ele>35.23</ele>
        <time>2016-10-16T07:23:37Z</time>
      </trkpt>
      <trkpt lat="50.74959" lon="3.56693">
        <ele>37.15</ele>
        <time>2016-10-16T07:23:49Z</time>
      </trkpt>
      <trkpt lat="50.74959" lon="3.56696">
        <ele>35.71</ele>
        <time>2016-10-16T07:23:51Z</time>
      </trkpt>
      <trkpt lat="50.74963" lon="3.56735">
        <ele>35.71</ele>
        <time>2016-10-16T07:24:09Z</time>
      </trkpt>
      <trkpt lat="50.74963" lon="3.56753">
        <ele>35.71</ele>
        <time>2016-10-16T07:24:18Z</time>
      </trkpt>
      <trkpt lat="50.74963" lon="3.56765">
        <ele>33.3</ele>
        <time>2016-10-16T07:24:24Z</time>
      </trkpt>
      <trkpt lat="50.74962" lon="3.56782">
        <ele>32.82</ele>
        <time>2016-10-16T07:24:32Z</time>
      </trkpt>
      <trkpt lat="50.74962" lon="3.56786">
        <ele>32.82</ele>
        <time>2016-10-16T07:24:34Z</time>
      </trkpt>
      <trkpt lat="50.74962" lon="3.56802">
        <ele>34.26</ele>
        <time>2016-10-16T07:24:41Z</time>
      </trkpt>
      <trkpt lat="50.74965" lon="3.5681">
        <ele>32.82</ele>
        <time>2016-10-16T07:24:45Z</time>
      </trkpt>
      <trkpt lat="50.74967" lon="3.56838">
        <ele>33.3</ele>
        <time>2016-10-16T07:24:57Z</time>
      </trkpt>
      <trkpt lat="50.74967" lon="3.56844">
        <ele>32.34</ele>
        <time>2016-10-16T07:25:00Z</time>
      </trkpt>
      <trkpt lat="50.74966" lon="3.56871">
        <ele>31.38</ele>
        <time>2016-10-16T07:25:13Z</time>
      </trkpt>
      <trkpt lat="50.74966" lon="3.56887">
        <ele>32.34</ele>
        <time>2016-10-16T07:25:20Z</time>
      </trkpt>
      <trkpt lat="50.74966" lon="3.56896">
        <ele>31.38</ele>
        <time>2016-10-16T07:25:24Z</time>
      </trkpt>
      <trkpt lat="50.74967" lon="3.56904">
        <ele>30.42</ele>
        <time>2016-10-16T07:25:28Z</time>
      </trkpt>
      <trkpt lat="50.74971" lon="3.56925">
        <ele>29.94</ele>
        <time>2016-10-16T07:25:38Z</time>
      </trkpt>
      <trkpt lat="50.74972" lon="3.56929">
        <ele>31.86</ele>
        <time>2016-10-16T07:25:40Z</time>
      </trkpt>
      <trkpt lat="50.74974" lon="3.56935">
        <ele>30.9</ele>
        <time>2016-10-16T07:25:44Z</time>
      </trkpt>
      <trkpt lat="50.74977" lon="3.56945">
        <ele>31.86</ele>
        <time>2016-10-16T07:25:49Z</time>
      </trkpt>
      <trkpt lat="50.7498" lon="3.56959">
        <ele>31.86</ele>
        <time>2016-10-16T07:25:55Z</time>
      </trkpt>
      <trkpt lat="50.74982" lon="3.56963">
        <ele>30.9</ele>
        <time>2016-10-16T07:25:57Z</time>
      </trkpt>
      <trkpt lat="50.74986" lon="3.56974">
        <ele>31.86</ele>
        <time>2016-10-16T07:26:02Z</time>
      </trkpt>
      <trkpt lat="50.74988" lon="3.56982">
        <ele>31.38</ele>
        <time>2016-10-16T07:26:07Z</time>
      </trkpt>
      <trkpt lat="50.74989" lon="3.56989">
        <ele>29.94</ele>
        <time>2016-10-16T07:26:11Z</time>
      </trkpt>
      <trkpt lat="50.7499" lon="3.56993">
        <ele>31.38</ele>
        <time>2016-10-16T07:26:13Z</time>
      </trkpt>
      <trkpt lat="50.74998" lon="3.57018">
        <ele>32.34</ele>
        <time>2016-10-16T07:26:27Z</time>
      </trkpt>
      <trkpt lat="50.74999" lon="3.57023">
        <ele>29.94</ele>
        <time>2016-10-16T07:26:29Z</time>
      </trkpt>
      <trkpt lat="50.75002" lon="3.57031">
        <ele>31.86</ele>
        <time>2016-10-16T07:26:34Z</time>
      </trkpt>
      <trkpt lat="50.75002" lon="3.57034">
        <ele>30.42</ele>
        <time>2016-10-16T07:26:36Z</time>
      </trkpt>
      <trkpt lat="50.75003" lon="3.5704">
        <ele>32.34</ele>
        <time>2016-10-16T07:26:39Z</time>
      </trkpt>
      <trkpt lat="50.75008" lon="3.57049">
        <ele>32.82</ele>
        <time>2016-10-16T07:26:50Z</time>
      </trkpt>
      <trkpt lat="50.7502" lon="3.57064">
        <ele>31.86</ele>
        <time>2016-10-16T07:27:03Z</time>
      </trkpt>
      <trkpt lat="50.75027" lon="3.57076">
        <ele>32.34</ele>
        <time>2016-10-16T07:27:13Z</time>
      </trkpt>
      <trkpt lat="50.75035" lon="3.57085">
        <ele>35.23</ele>
        <time>2016-10-16T07:27:20Z</time>
      </trkpt>
      <trkpt lat="50.75036" lon="3.57088">
        <ele>33.78</ele>
        <time>2016-10-16T07:27:22Z</time>
      </trkpt>
      <trkpt lat="50.7504" lon="3.57097">
        <ele>35.23</ele>
        <time>2016-10-16T07:27:27Z</time>
      </trkpt>
      <trkpt lat="50.75041" lon="3.57099">
        <ele>33.78</ele>
        <time>2016-10-16T07:27:29Z</time>
      </trkpt>
      <trkpt lat="50.75046" lon="3.57112">
        <ele>36.19</ele>
        <time>2016-10-16T07:27:37Z</time>
      </trkpt>
      <trkpt lat="50.75051" lon="3.57125">
        <ele>36.67</ele>
        <time>2016-10-16T07:27:44Z</time>
      </trkpt>
      <trkpt lat="50.75052" lon="3.57128">
        <ele>35.23</ele>
        <time>2016-10-16T07:27:46Z</time>
      </trkpt>
      <trkpt lat="50.75054" lon="3.5713">
        <ele>37.15</ele>
        <time>2016-10-16T07:27:48Z</time>
      </trkpt>
      <trkpt lat="50.7506" lon="3.57142">
        <ele>36.19</ele>
        <time>2016-10-16T07:27:56Z</time>
      </trkpt>
      <trkpt lat="50.75063" lon="3.57149">
        <ele>38.11</ele>
        <time>2016-10-16T07:28:01Z</time>
      </trkpt>
      <trkpt lat="50.75067" lon="3.57163">
        <ele>38.11</ele>
        <time>2016-10-16T07:28:10Z</time>
      </trkpt>
      <trkpt lat="50.75073" lon="3.57189">
        <ele>37.63</ele>
        <time>2016-10-16T07:28:24Z</time>
      </trkpt>
      <trkpt lat="50.75075" lon="3.57196">
        <ele>39.07</ele>
        <time>2016-10-16T07:28:28Z</time>
      </trkpt>
      <trkpt lat="50.75076" lon="3.57202">
        <ele>37.63</ele>
        <time>2016-10-16T07:28:31Z</time>
      </trkpt>
      <trkpt lat="50.75077" lon="3.57207">
        <ele>39.07</ele>
        <time>2016-10-16T07:28:33Z</time>
      </trkpt>
      <trkpt lat="50.75078" lon="3.57211">
        <ele>37.15</ele>
        <time>2016-10-16T07:28:35Z</time>
      </trkpt>
      <trkpt lat="50.75079" lon="3.57213">
        <ele>39.07</ele>
        <time>2016-10-16T07:28:37Z</time>
      </trkpt>
      <trkpt lat="50.75079" lon="3.57221">
        <ele>39.07</ele>
        <time>2016-10-16T07:28:41Z</time>
      </trkpt>
      <trkpt lat="50.75085" lon="3.57225">
        <ele>40.03</ele>
        <time>2016-10-16T07:28:57Z</time>
      </trkpt>
      <trkpt lat="50.7509" lon="3.57219">
        <ele>40.99</ele>
        <time>2016-10-16T07:29:04Z</time>
      </trkpt>
      <trkpt lat="50.75094" lon="3.57214">
        <ele>40.51</ele>
        <time>2016-10-16T07:29:08Z</time>
      </trkpt>
      <trkpt lat="50.75109" lon="3.57201">
        <ele>42.44</ele>
        <time>2016-10-16T07:29:21Z</time>
      </trkpt>
      <trkpt lat="50.75119" lon="3.57193">
        <ele>40.99</ele>
        <time>2016-10-16T07:29:30Z</time>
      </trkpt>
      <trkpt lat="50.75128" lon="3.57192">
        <ele>42.44</ele>
        <time>2016-10-16T07:29:36Z</time>
      </trkpt>
      <trkpt lat="50.75146" lon="3.57194">
        <ele>42.92</ele>
        <time>2016-10-16T07:29:51Z</time>
      </trkpt>
      <trkpt lat="50.75151" lon="3.57195">
        <ele>41.95</ele>
        <time>2016-10-16T07:29:55Z</time>
      </trkpt>
      <trkpt lat="50.75157" lon="3.57194">
        <ele>44.84</ele>
        <time>2016-10-16T07:30:00Z</time>
      </trkpt>
      <trkpt lat="50.75162" lon="3.57194">
        <ele>45.8</ele>
        <time>2016-10-16T07:30:04Z</time>
      </trkpt>
      <trkpt lat="50.75175" lon="3.57194">
        <ele>44.84</ele>
        <time>2016-10-16T07:30:14Z</time>
      </trkpt>
      <trkpt lat="50.75191" lon="3.57197">
        <ele>46.28</ele>
        <time>2016-10-16T07:30:30Z</time>
      </trkpt>
      <trkpt lat="50.75201" lon="3.57201">
        <ele>48.2</ele>
        <time>2016-10-16T07:30:40Z</time>
      </trkpt>
      <trkpt lat="50.75206" lon="3.57202">
        <ele>49.65</ele>
        <time>2016-10-16T07:30:44Z</time>
      </trkpt>
      <trkpt lat="50.75209" lon="3.57203">
        <ele>47.72</ele>
        <time>2016-10-16T07:30:46Z</time>
      </trkpt>
      <trkpt lat="50.75222" lon="3.57206">
        <ele>50.13</ele>
        <time>2016-10-16T07:30:57Z</time>
      </trkpt>
      <trkpt lat="50.75225" lon="3.57207">
        <ele>49.16</ele>
        <time>2016-10-16T07:30:59Z</time>
      </trkpt>
      <trkpt lat="50.75233" lon="3.57208">
        <ele>50.61</ele>
        <time>2016-10-16T07:31:05Z</time>
      </trkpt>
      <trkpt lat="50.7525" lon="3.57213">
        <ele>53.49</ele>
        <time>2016-10-16T07:31:19Z</time>
      </trkpt>
      <trkpt lat="50.75257" lon="3.57214">
        <ele>53.97</ele>
        <time>2016-10-16T07:31:26Z</time>
      </trkpt>
      <trkpt lat="50.75276" lon="3.57218">
        <ele>55.89</ele>
        <time>2016-10-16T07:31:43Z</time>
      </trkpt>
      <trkpt lat="50.75279" lon="3.57218">
        <ele>54.45</ele>
        <time>2016-10-16T07:31:45Z</time>
      </trkpt>
      <trkpt lat="50.75283" lon="3.57219">
        <ele>57.34</ele>
        <time>2016-10-16T07:31:49Z</time>
      </trkpt>
      <trkpt lat="50.7529" lon="3.57221">
        <ele>54.45</ele>
        <time>2016-10-16T07:31:54Z</time>
      </trkpt>
      <trkpt lat="50.75292" lon="3.5722">
        <ele>56.86</ele>
        <time>2016-10-16T07:31:57Z</time>
      </trkpt>
      <trkpt lat="50.75304" lon="3.57225">
        <ele>58.78</ele>
        <time>2016-10-16T07:32:09Z</time>
      </trkpt>
      <trkpt lat="50.75322" lon="3.57224">
        <ele>62.14</ele>
        <time>2016-10-16T07:32:28Z</time>
      </trkpt>
      <trkpt lat="50.75324" lon="3.5722">
        <ele>63.58</ele>
        <time>2016-10-16T07:32:37Z</time>
      </trkpt>
      <trkpt lat="50.75348" lon="3.57233">
        <ele>65.03</ele>
        <time>2016-10-16T07:32:56Z</time>
      </trkpt>
      <trkpt lat="50.75367" lon="3.57239">
        <ele>69.35</ele>
        <time>2016-10-16T07:33:11Z</time>
      </trkpt>
      <trkpt lat="50.75374" lon="3.57242">
        <ele>68.87</ele>
        <time>2016-10-16T07:33:17Z</time>
      </trkpt>
      <trkpt lat="50.75384" lon="3.57249">
        <ele>68.87</ele>
        <time>2016-10-16T07:33:27Z</time>
      </trkpt>
      <trkpt lat="50.75392" lon="3.57252">
        <ele>72.72</ele>
        <time>2016-10-16T07:33:34Z</time>
      </trkpt>
      <trkpt lat="50.75394" lon="3.57252">
        <ele>70.31</ele>
        <time>2016-10-16T07:33:35Z</time>
      </trkpt>
      <trkpt lat="50.75398" lon="3.57261">
        <ele>72.72</ele>
        <time>2016-10-16T07:33:52Z</time>
      </trkpt>
      <trkpt lat="50.75402" lon="3.57263">
        <ele>74.16</ele>
        <time>2016-10-16T07:34:17Z</time>
      </trkpt>
      <trkpt lat="50.75414" lon="3.5727">
        <ele>74.16</ele>
        <time>2016-10-16T07:34:36Z</time>
      </trkpt>
      <trkpt lat="50.75423" lon="3.57272">
        <ele>76.08</ele>
        <time>2016-10-16T07:34:52Z</time>
      </trkpt>
      <trkpt lat="50.75429" lon="3.57276">
        <ele>77.52</ele>
        <time>2016-10-16T07:35:09Z</time>
      </trkpt>
      <trkpt lat="50.75427" lon="3.57275">
        <ele>76.56</ele>
        <time>2016-10-16T07:35:17Z</time>
      </trkpt>
      <trkpt lat="50.75432" lon="3.57266">
        <ele>78</ele>
        <time>2016-10-16T07:35:46Z</time>
      </trkpt>
      <trkpt lat="50.75433" lon="3.57266">
        <ele>78</ele>
        <time>2016-10-16T07:35:47Z</time>
      </trkpt>
      <trkpt lat="50.75435" lon="3.57263">
        <ele>76.08</ele>
        <time>2016-10-16T07:35:49Z</time>
      </trkpt>
      <trkpt lat="50.75436" lon="3.57262">
        <ele>78</ele>
        <time>2016-10-16T07:35:51Z</time>
      </trkpt>
      <trkpt lat="50.75438" lon="3.5726">
        <ele>76.08</ele>
        <time>2016-10-16T07:35:53Z</time>
      </trkpt>
      <trkpt lat="50.75439" lon="3.57259">
        <ele>78</ele>
        <time>2016-10-16T07:35:54Z</time>
      </trkpt>
      <trkpt lat="50.75444" lon="3.57252">
        <ele>77.04</ele>
        <time>2016-10-16T07:35:58Z</time>
      </trkpt>
      <trkpt lat="50.75447" lon="3.57248">
        <ele>78</ele>
        <time>2016-10-16T07:36:01Z</time>
      </trkpt>
      <trkpt lat="50.75461" lon="3.57233">
        <ele>78.48</ele>
        <time>2016-10-16T07:36:13Z</time>
      </trkpt>
      <trkpt lat="50.75463" lon="3.5723">
        <ele>77.52</ele>
        <time>2016-10-16T07:36:15Z</time>
      </trkpt>
      <trkpt lat="50.75468" lon="3.57221">
        <ele>78.97</ele>
        <time>2016-10-16T07:36:22Z</time>
      </trkpt>
      <trkpt lat="50.75472" lon="3.57216">
        <ele>77.52</ele>
        <time>2016-10-16T07:36:26Z</time>
      </trkpt>
      <trkpt lat="50.75475" lon="3.57209">
        <ele>77.04</ele>
        <time>2016-10-16T07:36:31Z</time>
      </trkpt>
      <trkpt lat="50.75476" lon="3.57206">
        <ele>78.48</ele>
        <time>2016-10-16T07:36:33Z</time>
      </trkpt>
      <trkpt lat="50.75484" lon="3.57192">
        <ele>79.93</ele>
        <time>2016-10-16T07:36:44Z</time>
      </trkpt>
      <trkpt lat="50.75487" lon="3.57186">
        <ele>78.48</ele>
        <time>2016-10-16T07:36:48Z</time>
      </trkpt>
      <trkpt lat="50.75489" lon="3.57182">
        <ele>80.41</ele>
        <time>2016-10-16T07:36:50Z</time>
      </trkpt>
      <trkpt lat="50.75494" lon="3.57173">
        <ele>78.97</ele>
        <time>2016-10-16T07:36:55Z</time>
      </trkpt>
      <trkpt lat="50.75498" lon="3.57166">
        <ele>82.33</ele>
        <time>2016-10-16T07:37:01Z</time>
      </trkpt>
      <trkpt lat="50.75498" lon="3.57165">
        <ele>82.33</ele>
        <time>2016-10-16T07:37:02Z</time>
      </trkpt>
      <trkpt lat="50.75502" lon="3.57155">
        <ele>82.81</ele>
        <time>2016-10-16T07:37:08Z</time>
      </trkpt>
      <trkpt lat="50.75504" lon="3.57149">
        <ele>81.37</ele>
        <time>2016-10-16T07:37:11Z</time>
      </trkpt>
      <trkpt lat="50.75507" lon="3.57146">
        <ele>83.29</ele>
        <time>2016-10-16T07:37:13Z</time>
      </trkpt>
      <trkpt lat="50.75513" lon="3.57138">
        <ele>81.85</ele>
        <time>2016-10-16T07:37:18Z</time>
      </trkpt>
      <trkpt lat="50.75515" lon="3.57134">
        <ele>84.25</ele>
        <time>2016-10-16T07:37:20Z</time>
      </trkpt>
      <trkpt lat="50.75522" lon="3.57124">
        <ele>84.73</ele>
        <time>2016-10-16T07:37:27Z</time>
      </trkpt>
      <trkpt lat="50.75529" lon="3.57117">
        <ele>85.69</ele>
        <time>2016-10-16T07:37:33Z</time>
      </trkpt>
      <trkpt lat="50.75532" lon="3.57111">
        <ele>84.25</ele>
        <time>2016-10-16T07:37:37Z</time>
      </trkpt>
      <trkpt lat="50.75536" lon="3.57105">
        <ele>85.69</ele>
        <time>2016-10-16T07:37:40Z</time>
      </trkpt>
      <trkpt lat="50.75541" lon="3.57097">
        <ele>86.66</ele>
        <time>2016-10-16T07:37:45Z</time>
      </trkpt>
      <trkpt lat="50.75545" lon="3.5709">
        <ele>84.73</ele>
        <time>2016-10-16T07:37:51Z</time>
      </trkpt>
      <trkpt lat="50.75547" lon="3.57089">
        <ele>87.14</ele>
        <time>2016-10-16T07:37:53Z</time>
      </trkpt>
      <trkpt lat="50.7555" lon="3.57085">
        <ele>85.21</ele>
        <time>2016-10-16T07:37:56Z</time>
      </trkpt>
      <trkpt lat="50.75557" lon="3.57079">
        <ele>85.21</ele>
        <time>2016-10-16T07:38:01Z</time>
      </trkpt>
      <trkpt lat="50.75559" lon="3.57076">
        <ele>88.58</ele>
        <time>2016-10-16T07:38:03Z</time>
      </trkpt>
      <trkpt lat="50.7556" lon="3.57075">
        <ele>88.58</ele>
        <time>2016-10-16T07:38:04Z</time>
      </trkpt>
      <trkpt lat="50.75562" lon="3.5707">
        <ele>86.18</ele>
        <time>2016-10-16T07:38:07Z</time>
      </trkpt>
      <trkpt lat="50.75568" lon="3.57062">
        <ele>88.58</ele>
        <time>2016-10-16T07:38:13Z</time>
      </trkpt>
      <trkpt lat="50.7557" lon="3.57059">
        <ele>86.66</ele>
        <time>2016-10-16T07:38:15Z</time>
      </trkpt>
      <trkpt lat="50.75574" lon="3.57055">
        <ele>88.58</ele>
        <time>2016-10-16T07:38:18Z</time>
      </trkpt>
      <trkpt lat="50.75577" lon="3.57053">
        <ele>87.62</ele>
        <time>2016-10-16T07:38:21Z</time>
      </trkpt>
      <trkpt lat="50.75579" lon="3.57051">
        <ele>89.54</ele>
        <time>2016-10-16T07:38:23Z</time>
      </trkpt>
      <trkpt lat="50.75581" lon="3.57051">
        <ele>87.62</ele>
        <time>2016-10-16T07:38:26Z</time>
      </trkpt>
      <trkpt lat="50.75584" lon="3.57054">
        <ele>89.54</ele>
        <time>2016-10-16T07:38:28Z</time>
      </trkpt>
      <trkpt lat="50.7559" lon="3.5706">
        <ele>89.54</ele>
        <time>2016-10-16T07:38:35Z</time>
      </trkpt>
      <trkpt lat="50.75592" lon="3.57062">
        <ele>91.94</ele>
        <time>2016-10-16T07:38:37Z</time>
      </trkpt>
      <trkpt lat="50.75595" lon="3.57064">
        <ele>90.98</ele>
        <time>2016-10-16T07:38:41Z</time>
      </trkpt>
      <trkpt lat="50.75599" lon="3.57073">
        <ele>91.46</ele>
        <time>2016-10-16T07:38:48Z</time>
      </trkpt>
      <trkpt lat="50.75612" lon="3.57103">
        <ele>90.98</ele>
        <time>2016-10-16T07:39:08Z</time>
      </trkpt>
      <trkpt lat="50.75614" lon="3.57107">
        <ele>91.46</ele>
        <time>2016-10-16T07:39:11Z</time>
      </trkpt>
      <trkpt lat="50.75615" lon="3.5711">
        <ele>92.9</ele>
        <time>2016-10-16T07:39:13Z</time>
      </trkpt>
      <trkpt lat="50.75616" lon="3.57113">
        <ele>90.02</ele>
        <time>2016-10-16T07:39:15Z</time>
      </trkpt>
      <trkpt lat="50.75616" lon="3.57117">
        <ele>91.94</ele>
        <time>2016-10-16T07:39:17Z</time>
      </trkpt>
      <trkpt lat="50.7562" lon="3.57123">
        <ele>90.98</ele>
        <time>2016-10-16T07:39:22Z</time>
      </trkpt>
      <trkpt lat="50.75632" lon="3.57147">
        <ele>92.9</ele>
        <time>2016-10-16T07:39:41Z</time>
      </trkpt>
      <trkpt lat="50.75641" lon="3.57155">
        <ele>94.35</ele>
        <time>2016-10-16T07:39:53Z</time>
      </trkpt>
      <trkpt lat="50.75656" lon="3.57162">
        <ele>94.83</ele>
        <time>2016-10-16T07:40:09Z</time>
      </trkpt>
      <trkpt lat="50.75673" lon="3.57177">
        <ele>97.71</ele>
        <time>2016-10-16T07:40:24Z</time>
      </trkpt>
      <trkpt lat="50.7568" lon="3.57178">
        <ele>97.71</ele>
        <time>2016-10-16T07:40:33Z</time>
      </trkpt>
      <trkpt lat="50.75693" lon="3.57179">
        <ele>101.56</ele>
        <time>2016-10-16T07:40:43Z</time>
      </trkpt>
      <trkpt lat="50.75695" lon="3.57179">
        <ele>99.15</ele>
        <time>2016-10-16T07:40:44Z</time>
      </trkpt>
      <trkpt lat="50.75706" lon="3.57177">
        <ele>101.56</ele>
        <time>2016-10-16T07:40:52Z</time>
      </trkpt>
      <trkpt lat="50.75707" lon="3.57176">
        <ele>101.56</ele>
        <time>2016-10-16T07:40:53Z</time>
      </trkpt>
      <trkpt lat="50.7571" lon="3.57167">
        <ele>99.63</ele>
        <time>2016-10-16T07:41:06Z</time>
      </trkpt>
      <trkpt lat="50.7571" lon="3.57126">
        <ele>101.56</ele>
        <time>2016-10-16T07:41:24Z</time>
      </trkpt>
      <trkpt lat="50.7571" lon="3.57095">
        <ele>102.52</ele>
        <time>2016-10-16T07:41:42Z</time>
      </trkpt>
      <trkpt lat="50.75723" lon="3.57073">
        <ele>105.4</ele>
        <time>2016-10-16T07:42:00Z</time>
      </trkpt>
      <trkpt lat="50.75725" lon="3.57076">
        <ele>102.04</ele>
        <time>2016-10-16T07:42:03Z</time>
      </trkpt>
      <trkpt lat="50.75726" lon="3.57076">
        <ele>106.36</ele>
        <time>2016-10-16T07:42:04Z</time>
      </trkpt>
      <trkpt lat="50.75727" lon="3.57077">
        <ele>103</ele>
        <time>2016-10-16T07:42:05Z</time>
      </trkpt>
      <trkpt lat="50.75731" lon="3.57072">
        <ele>105.88</ele>
        <time>2016-10-16T07:42:12Z</time>
      </trkpt>
      <trkpt lat="50.75738" lon="3.57067">
        <ele>104.44</ele>
        <time>2016-10-16T07:42:17Z</time>
      </trkpt>
      <trkpt lat="50.7574" lon="3.57066">
        <ele>107.32</ele>
        <time>2016-10-16T07:42:18Z</time>
      </trkpt>
      <trkpt lat="50.75741" lon="3.57065">
        <ele>104.92</ele>
        <time>2016-10-16T07:42:19Z</time>
      </trkpt>
      <trkpt lat="50.75742" lon="3.57064">
        <ele>109.25</ele>
        <time>2016-10-16T07:42:20Z</time>
      </trkpt>
      <trkpt lat="50.75746" lon="3.57061">
        <ele>108.77</ele>
        <time>2016-10-16T07:42:28Z</time>
      </trkpt>
      <trkpt lat="50.75762" lon="3.57057">
        <ele>109.25</ele>
        <time>2016-10-16T07:42:46Z</time>
      </trkpt>
      <trkpt lat="50.75783" lon="3.57079">
        <ele>111.65</ele>
        <time>2016-10-16T07:43:06Z</time>
      </trkpt>
      <trkpt lat="50.75786" lon="3.5708">
        <ele>109.73</ele>
        <time>2016-10-16T07:43:08Z</time>
      </trkpt>
      <trkpt lat="50.758" lon="3.57104">
        <ele>110.69</ele>
        <time>2016-10-16T07:43:30Z</time>
      </trkpt>
      <trkpt lat="50.75812" lon="3.57123">
        <ele>113.09</ele>
        <time>2016-10-16T07:43:48Z</time>
      </trkpt>
      <trkpt lat="50.75821" lon="3.5714">
        <ele>113.09</ele>
        <time>2016-10-16T07:44:01Z</time>
      </trkpt>
      <trkpt lat="50.75834" lon="3.57161">
        <ele>116.46</ele>
        <time>2016-10-16T07:44:16Z</time>
      </trkpt>
      <trkpt lat="50.75836" lon="3.57167">
        <ele>115.98</ele>
        <time>2016-10-16T07:44:21Z</time>
      </trkpt>
      <trkpt lat="50.7584" lon="3.57183">
        <ele>117.9</ele>
        <time>2016-10-16T07:44:32Z</time>
      </trkpt>
      <trkpt lat="50.75841" lon="3.57187">
        <ele>116.46</ele>
        <time>2016-10-16T07:44:35Z</time>
      </trkpt>
      <trkpt lat="50.75846" lon="3.57193">
        <ele>119.82</ele>
        <time>2016-10-16T07:44:40Z</time>
      </trkpt>
      <trkpt lat="50.75865" lon="3.57205">
        <ele>121.26</ele>
        <time>2016-10-16T07:45:01Z</time>
      </trkpt>
      <trkpt lat="50.75872" lon="3.57204">
        <ele>121.26</ele>
        <time>2016-10-16T07:45:06Z</time>
      </trkpt>
      <trkpt lat="50.75877" lon="3.57209">
        <ele>122.71</ele>
        <time>2016-10-16T07:45:15Z</time>
      </trkpt>
      <trkpt lat="50.75889" lon="3.57214">
        <ele>122.71</ele>
        <time>2016-10-16T07:45:24Z</time>
      </trkpt>
      <trkpt lat="50.75902" lon="3.57216">
        <ele>124.15</ele>
        <time>2016-10-16T07:45:34Z</time>
      </trkpt>
      <trkpt lat="50.75908" lon="3.57212">
        <ele>126.55</ele>
        <time>2016-10-16T07:45:53Z</time>
      </trkpt>
      <trkpt lat="50.75914" lon="3.57205">
        <ele>127.99</ele>
        <time>2016-10-16T07:46:00Z</time>
      </trkpt>
      <trkpt lat="50.75917" lon="3.57183">
        <ele>130.4</ele>
        <time>2016-10-16T07:46:19Z</time>
      </trkpt>
      <trkpt lat="50.75918" lon="3.57174">
        <ele>129.92</ele>
        <time>2016-10-16T07:46:23Z</time>
      </trkpt>
      <trkpt lat="50.75928" lon="3.57141">
        <ele>132.32</ele>
        <time>2016-10-16T07:46:45Z</time>
      </trkpt>
      <trkpt lat="50.75928" lon="3.57137">
        <ele>130.4</ele>
        <time>2016-10-16T07:46:47Z</time>
      </trkpt>
      <trkpt lat="50.75931" lon="3.5711">
        <ele>131.36</ele>
        <time>2016-10-16T07:47:05Z</time>
      </trkpt>
      <trkpt lat="50.75933" lon="3.57102">
        <ele>132.8</ele>
        <time>2016-10-16T07:47:12Z</time>
      </trkpt>
      <trkpt lat="50.75949" lon="3.57085">
        <ele>136.16</ele>
        <time>2016-10-16T07:47:30Z</time>
      </trkpt>
      <trkpt lat="50.75951" lon="3.57083">
        <ele>136.16</ele>
        <time>2016-10-16T07:47:31Z</time>
      </trkpt>
      <trkpt lat="50.75977" lon="3.57081">
        <ele>138.09</ele>
        <time>2016-10-16T07:47:52Z</time>
      </trkpt>
      <trkpt lat="50.75988" lon="3.57095">
        <ele>140.97</ele>
        <time>2016-10-16T07:48:07Z</time>
      </trkpt>
      <trkpt lat="50.75986" lon="3.57127">
        <ele>141.93</ele>
        <time>2016-10-16T07:48:25Z</time>
      </trkpt>
      <trkpt lat="50.75983" lon="3.57151">
        <ele>141.45</ele>
        <time>2016-10-16T07:48:43Z</time>
      </trkpt>
      <trkpt lat="50.75981" lon="3.57157">
        <ele>143.85</ele>
        <time>2016-10-16T07:48:48Z</time>
      </trkpt>
      <trkpt lat="50.75967" lon="3.57203">
        <ele>143.37</ele>
        <time>2016-10-16T07:49:12Z</time>
      </trkpt>
      <trkpt lat="50.75968" lon="3.57227">
        <ele>144.82</ele>
        <time>2016-10-16T07:49:27Z</time>
      </trkpt>
      <trkpt lat="50.75971" lon="3.57254">
        <ele>142.89</ele>
        <time>2016-10-16T07:49:49Z</time>
      </trkpt>
      <trkpt lat="50.75971" lon="3.57256">
        <ele>144.34</ele>
        <time>2016-10-16T07:49:52Z</time>
      </trkpt>
      <trkpt lat="50.75974" lon="3.57246">
        <ele>144.34</ele>
        <time>2016-10-16T07:50:18Z</time>
      </trkpt>
      <trkpt lat="50.75979" lon="3.57253">
        <ele>144.34</ele>
        <time>2016-10-16T07:50:33Z</time>
      </trkpt>
      <trkpt lat="50.75977" lon="3.57258">
        <ele>144.34</ele>
        <time>2016-10-16T07:50:53Z</time>
      </trkpt>
      <trkpt lat="50.75974" lon="3.5727">
        <ele>144.82</ele>
        <time>2016-10-16T07:51:16Z</time>
      </trkpt>
      <trkpt lat="50.75975" lon="3.57272">
        <ele>144.82</ele>
        <time>2016-10-16T07:51:44Z</time>
      </trkpt>
      <trkpt lat="50.75987" lon="3.57285">
        <ele>145.78</ele>
        <time>2016-10-16T07:52:05Z</time>
      </trkpt>
      <trkpt lat="50.75988" lon="3.57286">
        <ele>145.78</ele>
        <time>2016-10-16T07:52:06Z</time>
      </trkpt>
      <trkpt lat="50.76003" lon="3.57295">
        <ele>144.82</ele>
        <time>2016-10-16T07:52:22Z</time>
      </trkpt>
      <trkpt lat="50.76022" lon="3.57303">
        <ele>143.85</ele>
        <time>2016-10-16T07:52:42Z</time>
      </trkpt>
      <trkpt lat="50.76038" lon="3.57286">
        <ele>142.89</ele>
        <time>2016-10-16T07:53:06Z</time>
      </trkpt>
      <trkpt lat="50.76054" lon="3.5726">
        <ele>144.34</ele>
        <time>2016-10-16T07:53:27Z</time>
      </trkpt>
      <trkpt lat="50.76058" lon="3.57252">
        <ele>142.89</ele>
        <time>2016-10-16T07:53:31Z</time>
      </trkpt>
      <trkpt lat="50.76074" lon="3.57222">
        <ele>143.85</ele>
        <time>2016-10-16T07:53:55Z</time>
      </trkpt>
      <trkpt lat="50.76088" lon="3.5721">
        <ele>142.41</ele>
        <time>2016-10-16T07:54:05Z</time>
      </trkpt>
      <trkpt lat="50.76091" lon="3.57204">
        <ele>143.85</ele>
        <time>2016-10-16T07:54:07Z</time>
      </trkpt>
      <trkpt lat="50.76095" lon="3.57197">
        <ele>143.37</ele>
        <time>2016-10-16T07:54:14Z</time>
      </trkpt>
      <trkpt lat="50.76097" lon="3.57196">
        <ele>141.93</ele>
        <time>2016-10-16T07:54:16Z</time>
      </trkpt>
      <trkpt lat="50.76101" lon="3.5719">
        <ele>143.37</ele>
        <time>2016-10-16T07:54:20Z</time>
      </trkpt>
      <trkpt lat="50.76126" lon="3.57158">
        <ele>140.97</ele>
        <time>2016-10-16T07:54:45Z</time>
      </trkpt>
      <trkpt lat="50.76135" lon="3.57148">
        <ele>140.97</ele>
        <time>2016-10-16T07:55:04Z</time>
      </trkpt>
      <trkpt lat="50.76154" lon="3.57129">
        <ele>138.09</ele>
        <time>2016-10-16T07:55:27Z</time>
      </trkpt>
      <trkpt lat="50.76185" lon="3.57127">
        <ele>136.64</ele>
        <time>2016-10-16T07:55:51Z</time>
      </trkpt>
      <trkpt lat="50.76217" lon="3.57131">
        <ele>134.72</ele>
        <time>2016-10-16T07:56:18Z</time>
      </trkpt>
      <trkpt lat="50.76233" lon="3.57144">
        <ele>131.84</ele>
        <time>2016-10-16T07:56:41Z</time>
      </trkpt>
      <trkpt lat="50.76248" lon="3.57153">
        <ele>128.47</ele>
        <time>2016-10-16T07:56:58Z</time>
      </trkpt>
      <trkpt lat="50.76255" lon="3.57164">
        <ele>125.11</ele>
        <time>2016-10-16T07:57:18Z</time>
      </trkpt>
      <trkpt lat="50.76263" lon="3.57174">
        <ele>122.22</ele>
        <time>2016-10-16T07:57:35Z</time>
      </trkpt>
      <trkpt lat="50.76268" lon="3.57197">
        <ele>118.86</ele>
        <time>2016-10-16T07:57:53Z</time>
      </trkpt>
      <trkpt lat="50.76275" lon="3.5722">
        <ele>115.98</ele>
        <time>2016-10-16T07:58:10Z</time>
      </trkpt>
      <trkpt lat="50.76282" lon="3.57235">
        <ele>112.61</ele>
        <time>2016-10-16T07:58:29Z</time>
      </trkpt>
      <trkpt lat="50.76287" lon="3.57248">
        <ele>110.21</ele>
        <time>2016-10-16T07:58:44Z</time>
      </trkpt>
      <trkpt lat="50.7631" lon="3.57238">
        <ele>107.32</ele>
        <time>2016-10-16T07:59:03Z</time>
      </trkpt>
      <trkpt lat="50.76325" lon="3.57236">
        <ele>103.96</ele>
        <time>2016-10-16T07:59:19Z</time>
      </trkpt>
      <trkpt lat="50.76343" lon="3.57238">
        <ele>101.08</ele>
        <time>2016-10-16T07:59:39Z</time>
      </trkpt>
      <trkpt lat="50.76361" lon="3.57246">
        <ele>97.71</ele>
        <time>2016-10-16T07:59:57Z</time>
      </trkpt>
      <trkpt lat="50.76374" lon="3.57255">
        <ele>94.35</ele>
        <time>2016-10-16T08:00:19Z</time>
      </trkpt>
      <trkpt lat="50.76376" lon="3.57264">
        <ele>92.9</ele>
        <time>2016-10-16T08:00:24Z</time>
      </trkpt>
      <trkpt lat="50.76384" lon="3.57272">
        <ele>89.54</ele>
        <time>2016-10-16T08:00:47Z</time>
      </trkpt>
      <trkpt lat="50.76388" lon="3.573">
        <ele>89.06</ele>
        <time>2016-10-16T08:00:58Z</time>
      </trkpt>
      <trkpt lat="50.76389" lon="3.57306">
        <ele>91.46</ele>
        <time>2016-10-16T08:01:01Z</time>
      </trkpt>
      <trkpt lat="50.76406" lon="3.57315">
        <ele>90.98</ele>
        <time>2016-10-16T08:01:20Z</time>
      </trkpt>
      <trkpt lat="50.76433" lon="3.5733">
        <ele>92.42</ele>
        <time>2016-10-16T08:01:46Z</time>
      </trkpt>
      <trkpt lat="50.76448" lon="3.57341">
        <ele>91.94</ele>
        <time>2016-10-16T08:02:00Z</time>
      </trkpt>
      <trkpt lat="50.76449" lon="3.57343">
        <ele>90.5</ele>
        <time>2016-10-16T08:02:02Z</time>
      </trkpt>
      <trkpt lat="50.76452" lon="3.57357">
        <ele>90.5</ele>
        <time>2016-10-16T08:02:18Z</time>
      </trkpt>
      <trkpt lat="50.76453" lon="3.57366">
        <ele>92.9</ele>
        <time>2016-10-16T08:02:28Z</time>
      </trkpt>
      <trkpt lat="50.76446" lon="3.57367">
        <ele>94.83</ele>
        <time>2016-10-16T08:02:37Z</time>
      </trkpt>
      <trkpt lat="50.76429" lon="3.57375">
        <ele>100.11</ele>
        <time>2016-10-16T08:02:53Z</time>
      </trkpt>
      <trkpt lat="50.76429" lon="3.57375">
        <ele>97.23</ele>
        <time>2016-10-16T08:02:54Z</time>
      </trkpt>
      <trkpt lat="50.7643" lon="3.57376">
        <ele>98.67</ele>
        <time>2016-10-16T08:02:57Z</time>
      </trkpt>
      <trkpt lat="50.76433" lon="3.57383">
        <ele>94.83</ele>
        <time>2016-10-16T08:03:01Z</time>
      </trkpt>
      <trkpt lat="50.76433" lon="3.57384">
        <ele>104.44</ele>
        <time>2016-10-16T08:03:02Z</time>
      </trkpt>
      <trkpt lat="50.76433" lon="3.57386">
        <ele>97.23</ele>
        <time>2016-10-16T08:03:03Z</time>
      </trkpt>
      <trkpt lat="50.76437" lon="3.57396">
        <ele>102.04</ele>
        <time>2016-10-16T08:03:07Z</time>
      </trkpt>
      <trkpt lat="50.76438" lon="3.57375">
        <ele>100.11</ele>
        <time>2016-10-16T08:03:31Z</time>
      </trkpt>
      <trkpt lat="50.76472" lon="3.57415">
        <ele>99.15</ele>
        <time>2016-10-16T08:03:56Z</time>
      </trkpt>
      <trkpt lat="50.76474" lon="3.57424">
        <ele>99.63</ele>
        <time>2016-10-16T08:04:04Z</time>
      </trkpt>
      <trkpt lat="50.76488" lon="3.57439">
        <ele>98.67</ele>
        <time>2016-10-16T08:04:19Z</time>
      </trkpt>
      <trkpt lat="50.76509" lon="3.57454">
        <ele>97.71</ele>
        <time>2016-10-16T08:04:44Z</time>
      </trkpt>
      <trkpt lat="50.76537" lon="3.57462">
        <ele>94.35</ele>
        <time>2016-10-16T08:05:08Z</time>
      </trkpt>
      <trkpt lat="50.76561" lon="3.57471">
        <ele>93.87</ele>
        <time>2016-10-16T08:05:28Z</time>
      </trkpt>
      <trkpt lat="50.76581" lon="3.5747">
        <ele>90.98</ele>
        <time>2016-10-16T08:05:51Z</time>
      </trkpt>
      <trkpt lat="50.76605" lon="3.57472">
        <ele>88.1</ele>
        <time>2016-10-16T08:06:14Z</time>
      </trkpt>
      <trkpt lat="50.76625" lon="3.57469">
        <ele>85.21</ele>
        <time>2016-10-16T08:06:33Z</time>
      </trkpt>
      <trkpt lat="50.76645" lon="3.57457">
        <ele>81.85</ele>
        <time>2016-10-16T08:06:55Z</time>
      </trkpt>
      <trkpt lat="50.76645" lon="3.57458">
        <ele>79.45</ele>
        <time>2016-10-16T08:07:22Z</time>
      </trkpt>
      <trkpt lat="50.76659" lon="3.57469">
        <ele>79.45</ele>
        <time>2016-10-16T08:07:50Z</time>
      </trkpt>
      <trkpt lat="50.76665" lon="3.57473">
        <ele>78.48</ele>
        <time>2016-10-16T08:08:03Z</time>
      </trkpt>
      <trkpt lat="50.76665" lon="3.57475">
        <ele>79.45</ele>
        <time>2016-10-16T08:08:06Z</time>
      </trkpt>
      <trkpt lat="50.76665" lon="3.5748">
        <ele>78</ele>
        <time>2016-10-16T08:08:17Z</time>
      </trkpt>
      <trkpt lat="50.76672" lon="3.57487">
        <ele>72.24</ele>
        <time>2016-10-16T08:08:35Z</time>
      </trkpt>
      <trkpt lat="50.76672" lon="3.57488">
        <ele>72.72</ele>
        <time>2016-10-16T08:08:36Z</time>
      </trkpt>
      <trkpt lat="50.76672" lon="3.57488">
        <ele>79.45</ele>
        <time>2016-10-16T08:08:37Z</time>
      </trkpt>
      <trkpt lat="50.76671" lon="3.57489">
        <ele>78</ele>
        <time>2016-10-16T08:08:38Z</time>
      </trkpt>
      <trkpt lat="50.76672" lon="3.57492">
        <ele>79.45</ele>
        <time>2016-10-16T08:08:42Z</time>
      </trkpt>
      <trkpt lat="50.76692" lon="3.57504">
        <ele>78.48</ele>
        <time>2016-10-16T08:08:59Z</time>
      </trkpt>
      <trkpt lat="50.76697" lon="3.57507">
        <ele>79.93</ele>
        <time>2016-10-16T08:09:02Z</time>
      </trkpt>
      <trkpt lat="50.76707" lon="3.57506">
        <ele>78.48</ele>
        <time>2016-10-16T08:09:17Z</time>
      </trkpt>
      <trkpt lat="50.76718" lon="3.57511">
        <ele>79.93</ele>
        <time>2016-10-16T08:09:26Z</time>
      </trkpt>
      <trkpt lat="50.76719" lon="3.57513">
        <ele>78.48</ele>
        <time>2016-10-16T08:09:30Z</time>
      </trkpt>
      <trkpt lat="50.76724" lon="3.57518">
        <ele>80.41</ele>
        <time>2016-10-16T08:09:35Z</time>
      </trkpt>
      <trkpt lat="50.76731" lon="3.57523">
        <ele>80.89</ele>
        <time>2016-10-16T08:09:42Z</time>
      </trkpt>
      <trkpt lat="50.76733" lon="3.57525">
        <ele>79.45</ele>
        <time>2016-10-16T08:09:44Z</time>
      </trkpt>
      <trkpt lat="50.76751" lon="3.57522">
        <ele>79.45</ele>
        <time>2016-10-16T08:10:07Z</time>
      </trkpt>
      <trkpt lat="50.76782" lon="3.57526">
        <ele>79.45</ele>
        <time>2016-10-16T08:10:26Z</time>
      </trkpt>
      <trkpt lat="50.7679" lon="3.5753">
        <ele>81.37</ele>
        <time>2016-10-16T08:10:32Z</time>
      </trkpt>
      <trkpt lat="50.76793" lon="3.57532">
        <ele>79.93</ele>
        <time>2016-10-16T08:10:34Z</time>
      </trkpt>
      <trkpt lat="50.76809" lon="3.57555">
        <ele>80.41</ele>
        <time>2016-10-16T08:10:54Z</time>
      </trkpt>
      <trkpt lat="50.76812" lon="3.57553">
        <ele>82.33</ele>
        <time>2016-10-16T08:10:57Z</time>
      </trkpt>
      <trkpt lat="50.76818" lon="3.57548">
        <ele>80.41</ele>
        <time>2016-10-16T08:11:00Z</time>
      </trkpt>
      <trkpt lat="50.76828" lon="3.57549">
        <ele>79.93</ele>
        <time>2016-10-16T08:11:05Z</time>
      </trkpt>
      <trkpt lat="50.76832" lon="3.5755">
        <ele>81.85</ele>
        <time>2016-10-16T08:11:07Z</time>
      </trkpt>
      <trkpt lat="50.76837" lon="3.57551">
        <ele>80.41</ele>
        <time>2016-10-16T08:11:10Z</time>
      </trkpt>
      <trkpt lat="50.76855" lon="3.57569">
        <ele>80.89</ele>
        <time>2016-10-16T08:11:30Z</time>
      </trkpt>
      <trkpt lat="50.7686" lon="3.57574">
        <ele>82.81</ele>
        <time>2016-10-16T08:11:36Z</time>
      </trkpt>
      <trkpt lat="50.76862" lon="3.57576">
        <ele>81.37</ele>
        <time>2016-10-16T08:11:38Z</time>
      </trkpt>
      <trkpt lat="50.76866" lon="3.57582">
        <ele>83.29</ele>
        <time>2016-10-16T08:11:44Z</time>
      </trkpt>
      <trkpt lat="50.76869" lon="3.57584">
        <ele>81.85</ele>
        <time>2016-10-16T08:11:46Z</time>
      </trkpt>
      <trkpt lat="50.76893" lon="3.57589">
        <ele>80.41</ele>
        <time>2016-10-16T08:12:03Z</time>
      </trkpt>
      <trkpt lat="50.76893" lon="3.5759">
        <ele>83.77</ele>
        <time>2016-10-16T08:12:04Z</time>
      </trkpt>
      <trkpt lat="50.76894" lon="3.5759">
        <ele>83.77</ele>
        <time>2016-10-16T08:12:05Z</time>
      </trkpt>
      <trkpt lat="50.76899" lon="3.57591">
        <ele>80.89</ele>
        <time>2016-10-16T08:12:12Z</time>
      </trkpt>
      <trkpt lat="50.76902" lon="3.57594">
        <ele>83.77</ele>
        <time>2016-10-16T08:12:15Z</time>
      </trkpt>
      <trkpt lat="50.76918" lon="3.57607">
        <ele>83.77</ele>
        <time>2016-10-16T08:12:25Z</time>
      </trkpt>
      <trkpt lat="50.76921" lon="3.57611">
        <ele>81.85</ele>
        <time>2016-10-16T08:12:28Z</time>
      </trkpt>
      <trkpt lat="50.76925" lon="3.57614">
        <ele>81.37</ele>
        <time>2016-10-16T08:12:33Z</time>
      </trkpt>
      <trkpt lat="50.76929" lon="3.57615">
        <ele>82.81</ele>
        <time>2016-10-16T08:12:37Z</time>
      </trkpt>
      <trkpt lat="50.7694" lon="3.5761">
        <ele>81.37</ele>
        <time>2016-10-16T08:12:47Z</time>
      </trkpt>
      <trkpt lat="50.76944" lon="3.57608">
        <ele>84.25</ele>
        <time>2016-10-16T08:12:50Z</time>
      </trkpt>
      <trkpt lat="50.76946" lon="3.57607">
        <ele>81.85</ele>
        <time>2016-10-16T08:12:52Z</time>
      </trkpt>
      <trkpt lat="50.76965" lon="3.57609">
        <ele>83.29</ele>
        <time>2016-10-16T08:13:02Z</time>
      </trkpt>
      <trkpt lat="50.76971" lon="3.57614">
        <ele>82.33</ele>
        <time>2016-10-16T08:13:05Z</time>
      </trkpt>
      <trkpt lat="50.76987" lon="3.57619">
        <ele>80.89</ele>
        <time>2016-10-16T08:13:20Z</time>
      </trkpt>
      <trkpt lat="50.77003" lon="3.57616">
        <ele>81.85</ele>
        <time>2016-10-16T08:13:33Z</time>
      </trkpt>
      <trkpt lat="50.77006" lon="3.57616">
        <ele>80.41</ele>
        <time>2016-10-16T08:13:35Z</time>
      </trkpt>
      <trkpt lat="50.77014" lon="3.57614">
        <ele>80.89</ele>
        <time>2016-10-16T08:13:42Z</time>
      </trkpt>
      <trkpt lat="50.77017" lon="3.57613">
        <ele>79.45</ele>
        <time>2016-10-16T08:13:51Z</time>
      </trkpt>
      <trkpt lat="50.7702" lon="3.57614">
        <ele>79.45</ele>
        <time>2016-10-16T08:13:53Z</time>
      </trkpt>
      <trkpt lat="50.77052" lon="3.57629">
        <ele>78.97</ele>
        <time>2016-10-16T08:14:14Z</time>
      </trkpt>
      <trkpt lat="50.77079" lon="3.57648">
        <ele>78.48</ele>
        <time>2016-10-16T08:14:35Z</time>
      </trkpt>
      <trkpt lat="50.77081" lon="3.57651">
        <ele>79.93</ele>
        <time>2016-10-16T08:14:37Z</time>
      </trkpt>
      <trkpt lat="50.77087" lon="3.57655">
        <ele>78</ele>
        <time>2016-10-16T08:14:42Z</time>
      </trkpt>
      <trkpt lat="50.7709" lon="3.57658">
        <ele>77.04</ele>
        <time>2016-10-16T08:14:44Z</time>
      </trkpt>
      <trkpt lat="50.77091" lon="3.57665">
        <ele>80.41</ele>
        <time>2016-10-16T08:14:49Z</time>
      </trkpt>
      <trkpt lat="50.77095" lon="3.57681">
        <ele>80.89</ele>
        <time>2016-10-16T08:15:04Z</time>
      </trkpt>
      <trkpt lat="50.77097" lon="3.57686">
        <ele>81.37</ele>
        <time>2016-10-16T08:15:08Z</time>
      </trkpt>
      <trkpt lat="50.77101" lon="3.57691">
        <ele>83.29</ele>
        <time>2016-10-16T08:15:12Z</time>
      </trkpt>
      <trkpt lat="50.77105" lon="3.57695">
        <ele>82.33</ele>
        <time>2016-10-16T08:15:18Z</time>
      </trkpt>
      <trkpt lat="50.77113" lon="3.57714">
        <ele>84.25</ele>
        <time>2016-10-16T08:15:30Z</time>
      </trkpt>
      <trkpt lat="50.77114" lon="3.57714">
        <ele>81.85</ele>
        <time>2016-10-16T08:15:32Z</time>
      </trkpt>
      <trkpt lat="50.77115" lon="3.57714">
        <ele>84.25</ele>
        <time>2016-10-16T08:15:34Z</time>
      </trkpt>
      <trkpt lat="50.77126" lon="3.57723">
        <ele>81.37</ele>
        <time>2016-10-16T08:15:48Z</time>
      </trkpt>
      <trkpt lat="50.77126" lon="3.57723">
        <ele>84.73</ele>
        <time>2016-10-16T08:15:49Z</time>
      </trkpt>
      <trkpt lat="50.77122" lon="3.57728">
        <ele>87.14</ele>
        <time>2016-10-16T08:16:08Z</time>
      </trkpt>
      <trkpt lat="50.77124" lon="3.57732">
        <ele>86.66</ele>
        <time>2016-10-16T08:16:18Z</time>
      </trkpt>
      <trkpt lat="50.77117" lon="3.57727">
        <ele>86.18</ele>
        <time>2016-10-16T08:16:36Z</time>
      </trkpt>
      <trkpt lat="50.7712" lon="3.57742">
        <ele>85.69</ele>
        <time>2016-10-16T08:16:55Z</time>
      </trkpt>
      <trkpt lat="50.77119" lon="3.57742">
        <ele>85.69</ele>
        <time>2016-10-16T08:17:17Z</time>
      </trkpt>
      <trkpt lat="50.77119" lon="3.57744">
        <ele>86.66</ele>
        <time>2016-10-16T08:17:36Z</time>
      </trkpt>
      <trkpt lat="50.77122" lon="3.5774">
        <ele>85.21</ele>
        <time>2016-10-16T08:17:53Z</time>
      </trkpt>
      <trkpt lat="50.77126" lon="3.57741">
        <ele>86.66</ele>
        <time>2016-10-16T08:17:57Z</time>
      </trkpt>
      <trkpt lat="50.77127" lon="3.57743">
        <ele>85.21</ele>
        <time>2016-10-16T08:17:59Z</time>
      </trkpt>
      <trkpt lat="50.77127" lon="3.57744">
        <ele>84.25</ele>
        <time>2016-10-16T08:18:13Z</time>
      </trkpt>
      <trkpt lat="50.77128" lon="3.57742">
        <ele>85.69</ele>
        <time>2016-10-16T08:18:15Z</time>
      </trkpt>
      <trkpt lat="50.7713" lon="3.57738">
        <ele>84.25</ele>
        <time>2016-10-16T08:18:19Z</time>
      </trkpt>
      <trkpt lat="50.77136" lon="3.57731">
        <ele>85.21</ele>
        <time>2016-10-16T08:18:26Z</time>
      </trkpt>
      <trkpt lat="50.77138" lon="3.57729">
        <ele>83.77</ele>
        <time>2016-10-16T08:18:29Z</time>
      </trkpt>
      <trkpt lat="50.77146" lon="3.57728">
        <ele>84.73</ele>
        <time>2016-10-16T08:18:35Z</time>
      </trkpt>
      <trkpt lat="50.77153" lon="3.57725">
        <ele>83.29</ele>
        <time>2016-10-16T08:18:38Z</time>
      </trkpt>
      <trkpt lat="50.77153" lon="3.57724">
        <ele>83.29</ele>
        <time>2016-10-16T08:18:39Z</time>
      </trkpt>
      <trkpt lat="50.77164" lon="3.57718">
        <ele>83.29</ele>
        <time>2016-10-16T08:18:43Z</time>
      </trkpt>
      <trkpt lat="50.77168" lon="3.57715">
        <ele>82.33</ele>
        <time>2016-10-16T08:18:46Z</time>
      </trkpt>
      <trkpt lat="50.77182" lon="3.57708">
        <ele>82.33</ele>
        <time>2016-10-16T08:18:56Z</time>
      </trkpt>
      <trkpt lat="50.77203" lon="3.57701">
        <ele>79.93</ele>
        <time>2016-10-16T08:19:16Z</time>
      </trkpt>
      <trkpt lat="50.77223" lon="3.57679">
        <ele>79.45</ele>
        <time>2016-10-16T08:19:35Z</time>
      </trkpt>
      <trkpt lat="50.77229" lon="3.57672">
        <ele>78</ele>
        <time>2016-10-16T08:19:39Z</time>
      </trkpt>
      <trkpt lat="50.77248" lon="3.57656">
        <ele>73.2</ele>
        <time>2016-10-16T08:19:53Z</time>
      </trkpt>
      <trkpt lat="50.7725" lon="3.57656">
        <ele>78</ele>
        <time>2016-10-16T08:19:55Z</time>
      </trkpt>
      <trkpt lat="50.77256" lon="3.57666">
        <ele>76.56</ele>
        <time>2016-10-16T08:19:58Z</time>
      </trkpt>
      <trkpt lat="50.7726" lon="3.57674">
        <ele>78</ele>
        <time>2016-10-16T08:20:00Z</time>
      </trkpt>
      <trkpt lat="50.77266" lon="3.57689">
        <ele>78</ele>
        <time>2016-10-16T08:20:07Z</time>
      </trkpt>
      <trkpt lat="50.7727" lon="3.5771">
        <ele>79.93</ele>
        <time>2016-10-16T08:20:17Z</time>
      </trkpt>
      <trkpt lat="50.7727" lon="3.57712">
        <ele>79.93</ele>
        <time>2016-10-16T08:20:18Z</time>
      </trkpt>
      <trkpt lat="50.77271" lon="3.57717">
        <ele>78</ele>
        <time>2016-10-16T08:20:20Z</time>
      </trkpt>
      <trkpt lat="50.77272" lon="3.57735">
        <ele>77.52</ele>
        <time>2016-10-16T08:20:28Z</time>
      </trkpt>
      <trkpt lat="50.77277" lon="3.57765">
        <ele>76.08</ele>
        <time>2016-10-16T08:20:44Z</time>
      </trkpt>
      <trkpt lat="50.77279" lon="3.5778">
        <ele>76.08</ele>
        <time>2016-10-16T08:20:51Z</time>
      </trkpt>
      <trkpt lat="50.77278" lon="3.57788">
        <ele>75.12</ele>
        <time>2016-10-16T08:21:07Z</time>
      </trkpt>
      <trkpt lat="50.77283" lon="3.57786">
        <ele>75.12</ele>
        <time>2016-10-16T08:21:37Z</time>
      </trkpt>
      <trkpt lat="50.7729" lon="3.578">
        <ele>75.6</ele>
        <time>2016-10-16T08:21:45Z</time>
      </trkpt>
      <trkpt lat="50.7729" lon="3.57803">
        <ele>74.16</ele>
        <time>2016-10-16T08:21:47Z</time>
      </trkpt>
      <trkpt lat="50.7729" lon="3.57807">
        <ele>74.16</ele>
        <time>2016-10-16T08:22:00Z</time>
      </trkpt>
      <trkpt lat="50.77293" lon="3.57811">
        <ele>72.72</ele>
        <time>2016-10-16T08:22:03Z</time>
      </trkpt>
      <trkpt lat="50.77295" lon="3.57815">
        <ele>72.72</ele>
        <time>2016-10-16T08:22:05Z</time>
      </trkpt>
      <trkpt lat="50.77303" lon="3.57825">
        <ele>73.2</ele>
        <time>2016-10-16T08:22:12Z</time>
      </trkpt>
      <trkpt lat="50.77306" lon="3.57829">
        <ele>72.24</ele>
        <time>2016-10-16T08:22:15Z</time>
      </trkpt>
      <trkpt lat="50.77316" lon="3.5784">
        <ele>70.31</ele>
        <time>2016-10-16T08:22:24Z</time>
      </trkpt>
      <trkpt lat="50.77333" lon="3.57856">
        <ele>71.27</ele>
        <time>2016-10-16T08:22:36Z</time>
      </trkpt>
      <trkpt lat="50.77351" lon="3.57866">
        <ele>70.79</ele>
        <time>2016-10-16T08:22:48Z</time>
      </trkpt>
      <trkpt lat="50.77358" lon="3.57868">
        <ele>69.35</ele>
        <time>2016-10-16T08:22:53Z</time>
      </trkpt>
      <trkpt lat="50.77369" lon="3.57873">
        <ele>70.79</ele>
        <time>2016-10-16T08:23:03Z</time>
      </trkpt>
      <trkpt lat="50.77394" lon="3.57877">
        <ele>69.35</ele>
        <time>2016-10-16T08:23:19Z</time>
      </trkpt>
      <trkpt lat="50.77417" lon="3.5788">
        <ele>68.87</ele>
        <time>2016-10-16T08:23:34Z</time>
      </trkpt>
      <trkpt lat="50.77442" lon="3.5788">
        <ele>69.83</ele>
        <time>2016-10-16T08:23:51Z</time>
      </trkpt>
      <trkpt lat="50.7745" lon="3.57881">
        <ele>68.39</ele>
        <time>2016-10-16T08:23:57Z</time>
      </trkpt>
      <trkpt lat="50.77468" lon="3.57879">
        <ele>68.87</ele>
        <time>2016-10-16T08:24:09Z</time>
      </trkpt>
      <trkpt lat="50.77492" lon="3.57876">
        <ele>68.87</ele>
        <time>2016-10-16T08:24:24Z</time>
      </trkpt>
      <trkpt lat="50.77517" lon="3.57871">
        <ele>68.87</ele>
        <time>2016-10-16T08:24:41Z</time>
      </trkpt>
      <trkpt lat="50.77531" lon="3.57869">
        <ele>67.43</ele>
        <time>2016-10-16T08:24:50Z</time>
      </trkpt>
      <trkpt lat="50.77538" lon="3.57867">
        <ele>68.87</ele>
        <time>2016-10-16T08:24:55Z</time>
      </trkpt>
      <trkpt lat="50.77569" lon="3.57862">
        <ele>69.35</ele>
        <time>2016-10-16T08:25:16Z</time>
      </trkpt>
      <trkpt lat="50.77573" lon="3.57861">
        <ele>67.43</ele>
        <time>2016-10-16T08:25:19Z</time>
      </trkpt>
      <trkpt lat="50.77604" lon="3.57857">
        <ele>65.99</ele>
        <time>2016-10-16T08:25:41Z</time>
      </trkpt>
      <trkpt lat="50.77627" lon="3.57854">
        <ele>66.95</ele>
        <time>2016-10-16T08:25:58Z</time>
      </trkpt>
      <trkpt lat="50.77659" lon="3.5785">
        <ele>66.47</ele>
        <time>2016-10-16T08:26:19Z</time>
      </trkpt>
      <trkpt lat="50.77667" lon="3.57848">
        <ele>65.03</ele>
        <time>2016-10-16T08:26:24Z</time>
      </trkpt>
      <trkpt lat="50.7768" lon="3.57847">
        <ele>66.47</ele>
        <time>2016-10-16T08:26:33Z</time>
      </trkpt>
      <trkpt lat="50.77684" lon="3.57847">
        <ele>65.03</ele>
        <time>2016-10-16T08:26:36Z</time>
      </trkpt>
      <trkpt lat="50.77702" lon="3.57844">
        <ele>65.03</ele>
        <time>2016-10-16T08:26:48Z</time>
      </trkpt>
      <trkpt lat="50.7773" lon="3.57842">
        <ele>63.1</ele>
        <time>2016-10-16T08:27:08Z</time>
      </trkpt>
      <trkpt lat="50.77737" lon="3.57841">
        <ele>64.07</ele>
        <time>2016-10-16T08:27:13Z</time>
      </trkpt>
      <trkpt lat="50.77744" lon="3.57839">
        <ele>63.1</ele>
        <time>2016-10-16T08:27:18Z</time>
      </trkpt>
      <trkpt lat="50.77774" lon="3.57839">
        <ele>63.1</ele>
        <time>2016-10-16T08:27:38Z</time>
      </trkpt>
      <trkpt lat="50.77775" lon="3.57838">
        <ele>63.1</ele>
        <time>2016-10-16T08:27:39Z</time>
      </trkpt>
      <trkpt lat="50.77781" lon="3.57838">
        <ele>61.66</ele>
        <time>2016-10-16T08:27:43Z</time>
      </trkpt>
      <trkpt lat="50.77808" lon="3.57835">
        <ele>59.74</ele>
        <time>2016-10-16T08:28:02Z</time>
      </trkpt>
      <trkpt lat="50.77813" lon="3.57833">
        <ele>61.18</ele>
        <time>2016-10-16T08:28:06Z</time>
      </trkpt>
      <trkpt lat="50.77824" lon="3.57831">
        <ele>59.74</ele>
        <time>2016-10-16T08:28:13Z</time>
      </trkpt>
      <trkpt lat="50.77835" lon="3.57823">
        <ele>60.22</ele>
        <time>2016-10-16T08:28:22Z</time>
      </trkpt>
      <trkpt lat="50.77843" lon="3.57816">
        <ele>58.78</ele>
        <time>2016-10-16T08:28:29Z</time>
      </trkpt>
      <trkpt lat="50.77849" lon="3.5781">
        <ele>59.74</ele>
        <time>2016-10-16T08:28:34Z</time>
      </trkpt>
      <trkpt lat="50.77857" lon="3.57805">
        <ele>58.3</ele>
        <time>2016-10-16T08:28:41Z</time>
      </trkpt>
      <trkpt lat="50.77868" lon="3.57797">
        <ele>59.74</ele>
        <time>2016-10-16T08:28:49Z</time>
      </trkpt>
      <trkpt lat="50.77874" lon="3.5779">
        <ele>58.3</ele>
        <time>2016-10-16T08:28:55Z</time>
      </trkpt>
      <trkpt lat="50.77898" lon="3.57787">
        <ele>57.34</ele>
        <time>2016-10-16T08:29:11Z</time>
      </trkpt>
      <trkpt lat="50.77919" lon="3.57785">
        <ele>56.37</ele>
        <time>2016-10-16T08:29:27Z</time>
      </trkpt>
      <trkpt lat="50.7793" lon="3.57783">
        <ele>58.3</ele>
        <time>2016-10-16T08:29:35Z</time>
      </trkpt>
      <trkpt lat="50.77932" lon="3.57783">
        <ele>55.89</ele>
        <time>2016-10-16T08:29:37Z</time>
      </trkpt>
      <trkpt lat="50.77934" lon="3.57782">
        <ele>57.82</ele>
        <time>2016-10-16T08:29:39Z</time>
      </trkpt>
      <trkpt lat="50.77937" lon="3.57781">
        <ele>55.89</ele>
        <time>2016-10-16T08:29:41Z</time>
      </trkpt>
      <trkpt lat="50.77938" lon="3.57781">
        <ele>55.89</ele>
        <time>2016-10-16T08:29:42Z</time>
      </trkpt>
      <trkpt lat="50.7794" lon="3.5778">
        <ele>58.3</ele>
        <time>2016-10-16T08:29:44Z</time>
      </trkpt>
      <trkpt lat="50.77944" lon="3.5778">
        <ele>56.37</ele>
        <time>2016-10-16T08:29:47Z</time>
      </trkpt>
      <trkpt lat="50.77955" lon="3.57776">
        <ele>57.34</ele>
        <time>2016-10-16T08:29:56Z</time>
      </trkpt>
      <trkpt lat="50.77958" lon="3.57778">
        <ele>55.89</ele>
        <time>2016-10-16T08:29:59Z</time>
      </trkpt>
      <trkpt lat="50.77959" lon="3.57779">
        <ele>55.89</ele>
        <time>2016-10-16T08:30:00Z</time>
      </trkpt>
      <trkpt lat="50.7796" lon="3.5778">
        <ele>55.89</ele>
        <time>2016-10-16T08:30:01Z</time>
      </trkpt>
      <trkpt lat="50.77971" lon="3.57779">
        <ele>56.37</ele>
        <time>2016-10-16T08:30:16Z</time>
      </trkpt>
      <trkpt lat="50.77978" lon="3.5777">
        <ele>54.93</ele>
        <time>2016-10-16T08:30:29Z</time>
      </trkpt>
      <trkpt lat="50.77978" lon="3.57765">
        <ele>54.93</ele>
        <time>2016-10-16T08:30:33Z</time>
      </trkpt>
      <trkpt lat="50.77979" lon="3.57757">
        <ele>54.93</ele>
        <time>2016-10-16T08:30:37Z</time>
      </trkpt>
      <trkpt lat="50.77979" lon="3.57749">
        <ele>53.97</ele>
        <time>2016-10-16T08:30:41Z</time>
      </trkpt>
      <trkpt lat="50.77979" lon="3.57745">
        <ele>55.41</ele>
        <time>2016-10-16T08:30:43Z</time>
      </trkpt>
      <trkpt lat="50.7798" lon="3.57728">
        <ele>55.41</ele>
        <time>2016-10-16T08:30:52Z</time>
      </trkpt>
      <trkpt lat="50.77982" lon="3.57719">
        <ele>55.41</ele>
        <time>2016-10-16T08:30:57Z</time>
      </trkpt>
      <trkpt lat="50.77988" lon="3.57694">
        <ele>53.01</ele>
        <time>2016-10-16T08:31:12Z</time>
      </trkpt>
      <trkpt lat="50.77993" lon="3.57681">
        <ele>54.45</ele>
        <time>2016-10-16T08:31:19Z</time>
      </trkpt>
      <trkpt lat="50.77993" lon="3.57677">
        <ele>53.01</ele>
        <time>2016-10-16T08:31:21Z</time>
      </trkpt>
      <trkpt lat="50.77995" lon="3.57665">
        <ele>53.97</ele>
        <time>2016-10-16T08:31:28Z</time>
      </trkpt>
      <trkpt lat="50.77995" lon="3.57663">
        <ele>53.97</ele>
        <time>2016-10-16T08:31:29Z</time>
      </trkpt>
      <trkpt lat="50.77996" lon="3.5766">
        <ele>53.01</ele>
        <time>2016-10-16T08:31:31Z</time>
      </trkpt>
      <trkpt lat="50.78" lon="3.57644">
        <ele>53.49</ele>
        <time>2016-10-16T08:31:39Z</time>
      </trkpt>
      <trkpt lat="50.78001" lon="3.5763">
        <ele>52.05</ele>
        <time>2016-10-16T08:31:46Z</time>
      </trkpt>
      <trkpt lat="50.78002" lon="3.57628">
        <ele>53.01</ele>
        <time>2016-10-16T08:31:47Z</time>
      </trkpt>
      <trkpt lat="50.78005" lon="3.57622">
        <ele>52.05</ele>
        <time>2016-10-16T08:31:51Z</time>
      </trkpt>
      <trkpt lat="50.78008" lon="3.57616">
        <ele>52.05</ele>
        <time>2016-10-16T08:31:56Z</time>
      </trkpt>
      <trkpt lat="50.78008" lon="3.57615">
        <ele>51.57</ele>
        <time>2016-10-16T08:31:57Z</time>
      </trkpt>
      <trkpt lat="50.78009" lon="3.57613">
        <ele>51.57</ele>
        <time>2016-10-16T08:31:58Z</time>
      </trkpt>
      <trkpt lat="50.78011" lon="3.57606">
        <ele>53.01</ele>
        <time>2016-10-16T08:32:02Z</time>
      </trkpt>
      <trkpt lat="50.78012" lon="3.57602">
        <ele>51.57</ele>
        <time>2016-10-16T08:32:06Z</time>
      </trkpt>
      <trkpt lat="50.78014" lon="3.57575">
        <ele>50.13</ele>
        <time>2016-10-16T08:32:23Z</time>
      </trkpt>
      <trkpt lat="50.78015" lon="3.57558">
        <ele>48.68</ele>
        <time>2016-10-16T08:32:36Z</time>
      </trkpt>
      <trkpt lat="50.78015" lon="3.57555">
        <ele>48.68</ele>
        <time>2016-10-16T08:32:39Z</time>
      </trkpt>
      <trkpt lat="50.78017" lon="3.57537">
        <ele>45.8</ele>
        <time>2016-10-16T08:32:52Z</time>
      </trkpt>
      <trkpt lat="50.78016" lon="3.57534">
        <ele>45.32</ele>
        <time>2016-10-16T08:32:54Z</time>
      </trkpt>
      <trkpt lat="50.78017" lon="3.57528">
        <ele>45.32</ele>
        <time>2016-10-16T08:32:58Z</time>
      </trkpt>
      <trkpt lat="50.7802" lon="3.57515">
        <ele>43.88</ele>
        <time>2016-10-16T08:33:07Z</time>
      </trkpt>
      <trkpt lat="50.78022" lon="3.57488">
        <ele>42.92</ele>
        <time>2016-10-16T08:33:22Z</time>
      </trkpt>
      <trkpt lat="50.7802" lon="3.5748">
        <ele>41.95</ele>
        <time>2016-10-16T08:33:27Z</time>
      </trkpt>
      <trkpt lat="50.78024" lon="3.57475">
        <ele>41.95</ele>
        <time>2016-10-16T08:33:40Z</time>
      </trkpt>
      <trkpt lat="50.78027" lon="3.57474">
        <ele>42.44</ele>
        <time>2016-10-16T08:33:43Z</time>
      </trkpt>
      <trkpt lat="50.78038" lon="3.57469">
        <ele>40.99</ele>
        <time>2016-10-16T08:33:52Z</time>
      </trkpt>
      <trkpt lat="50.78042" lon="3.57464">
        <ele>42.92</ele>
        <time>2016-10-16T08:33:55Z</time>
      </trkpt>
      <trkpt lat="50.78053" lon="3.57451">
        <ele>41.95</ele>
        <time>2016-10-16T08:34:05Z</time>
      </trkpt>
      <trkpt lat="50.78054" lon="3.57449">
        <ele>41.95</ele>
        <time>2016-10-16T08:34:06Z</time>
      </trkpt>
      <trkpt lat="50.78055" lon="3.57445">
        <ele>40.51</ele>
        <time>2016-10-16T08:34:08Z</time>
      </trkpt>
      <trkpt lat="50.78058" lon="3.57437">
        <ele>39.55</ele>
        <time>2016-10-16T08:34:12Z</time>
      </trkpt>
      <trkpt lat="50.7806" lon="3.57431">
        <ele>42.44</ele>
        <time>2016-10-16T08:34:15Z</time>
      </trkpt>
      <trkpt lat="50.78063" lon="3.57426">
        <ele>40.03</ele>
        <time>2016-10-16T08:34:18Z</time>
      </trkpt>
      <trkpt lat="50.78067" lon="3.5742">
        <ele>40.03</ele>
        <time>2016-10-16T08:34:24Z</time>
      </trkpt>
      <trkpt lat="50.78078" lon="3.57412">
        <ele>41.95</ele>
        <time>2016-10-16T08:34:32Z</time>
      </trkpt>
      <trkpt lat="50.78079" lon="3.5741">
        <ele>39.55</ele>
        <time>2016-10-16T08:34:34Z</time>
      </trkpt>
      <trkpt lat="50.78086" lon="3.57405">
        <ele>40.99</ele>
        <time>2016-10-16T08:34:40Z</time>
      </trkpt>
      <trkpt lat="50.78089" lon="3.57404">
        <ele>39.55</ele>
        <time>2016-10-16T08:34:42Z</time>
      </trkpt>
      <trkpt lat="50.78105" lon="3.57396">
        <ele>39.55</ele>
        <time>2016-10-16T08:34:57Z</time>
      </trkpt>
      <trkpt lat="50.78125" lon="3.5739">
        <ele>39.07</ele>
        <time>2016-10-16T08:35:13Z</time>
      </trkpt>
      <trkpt lat="50.78132" lon="3.57386">
        <ele>38.59</ele>
        <time>2016-10-16T08:35:20Z</time>
      </trkpt>
      <trkpt lat="50.78137" lon="3.57384">
        <ele>40.03</ele>
        <time>2016-10-16T08:35:24Z</time>
      </trkpt>
      <trkpt lat="50.78148" lon="3.57379">
        <ele>39.07</ele>
        <time>2016-10-16T08:35:33Z</time>
      </trkpt>
      <trkpt lat="50.7816" lon="3.57372">
        <ele>37.63</ele>
        <time>2016-10-16T08:35:45Z</time>
      </trkpt>
      <trkpt lat="50.78162" lon="3.57371">
        <ele>39.07</ele>
        <time>2016-10-16T08:35:47Z</time>
      </trkpt>
      <trkpt lat="50.7817" lon="3.57364">
        <ele>39.07</ele>
        <time>2016-10-16T08:36:06Z</time>
      </trkpt>
      <trkpt lat="50.78172" lon="3.57349">
        <ele>38.59</ele>
        <time>2016-10-16T08:36:22Z</time>
      </trkpt>
      <trkpt lat="50.78168" lon="3.57329">
        <ele>39.55</ele>
        <time>2016-10-16T08:36:31Z</time>
      </trkpt>
      <trkpt lat="50.78168" lon="3.57326">
        <ele>37.63</ele>
        <time>2016-10-16T08:36:33Z</time>
      </trkpt>
      <trkpt lat="50.78169" lon="3.57307">
        <ele>37.63</ele>
        <time>2016-10-16T08:36:47Z</time>
      </trkpt>
      <trkpt lat="50.78168" lon="3.57299">
        <ele>40.03</ele>
        <time>2016-10-16T08:36:52Z</time>
      </trkpt>
      <trkpt lat="50.78168" lon="3.57294">
        <ele>38.59</ele>
        <time>2016-10-16T08:36:54Z</time>
      </trkpt>
      <trkpt lat="50.78168" lon="3.57286">
        <ele>40.03</ele>
        <time>2016-10-16T08:36:57Z</time>
      </trkpt>
      <trkpt lat="50.78168" lon="3.57277">
        <ele>38.11</ele>
        <time>2016-10-16T08:37:00Z</time>
      </trkpt>
      <trkpt lat="50.78167" lon="3.57272">
        <ele>40.03</ele>
        <time>2016-10-16T08:37:02Z</time>
      </trkpt>
      <trkpt lat="50.78167" lon="3.57262">
        <ele>39.55</ele>
        <time>2016-10-16T08:37:08Z</time>
      </trkpt>
      <trkpt lat="50.78169" lon="3.5724">
        <ele>43.4</ele>
        <time>2016-10-16T08:37:23Z</time>
      </trkpt>
      <trkpt lat="50.78168" lon="3.57236">
        <ele>40.99</ele>
        <time>2016-10-16T08:37:26Z</time>
      </trkpt>
      <trkpt lat="50.78168" lon="3.57226">
        <ele>43.88</ele>
        <time>2016-10-16T08:37:31Z</time>
      </trkpt>
      <trkpt lat="50.78166" lon="3.57213">
        <ele>41.95</ele>
        <time>2016-10-16T08:37:38Z</time>
      </trkpt>
      <trkpt lat="50.78165" lon="3.57209">
        <ele>43.88</ele>
        <time>2016-10-16T08:37:40Z</time>
      </trkpt>
      <trkpt lat="50.78163" lon="3.57186">
        <ele>44.36</ele>
        <time>2016-10-16T08:37:51Z</time>
      </trkpt>
      <trkpt lat="50.78162" lon="3.57184">
        <ele>41.47</ele>
        <time>2016-10-16T08:37:52Z</time>
      </trkpt>
      <trkpt lat="50.78162" lon="3.57181">
        <ele>45.32</ele>
        <time>2016-10-16T08:37:53Z</time>
      </trkpt>
      <trkpt lat="50.78155" lon="3.57154">
        <ele>43.4</ele>
        <time>2016-10-16T08:38:09Z</time>
      </trkpt>
      <trkpt lat="50.7815" lon="3.5715">
        <ele>44.84</ele>
        <time>2016-10-16T08:38:14Z</time>
      </trkpt>
      <trkpt lat="50.78137" lon="3.57143">
        <ele>43.4</ele>
        <time>2016-10-16T08:38:23Z</time>
      </trkpt>
      <trkpt lat="50.78133" lon="3.5714">
        <ele>44.84</ele>
        <time>2016-10-16T08:38:26Z</time>
      </trkpt>
      <trkpt lat="50.78111" lon="3.57124">
        <ele>44.36</ele>
        <time>2016-10-16T08:38:45Z</time>
      </trkpt>
      <trkpt lat="50.78109" lon="3.5712">
        <ele>46.76</ele>
        <time>2016-10-16T08:38:47Z</time>
      </trkpt>
      <trkpt lat="50.781" lon="3.57112">
        <ele>43.88</ele>
        <time>2016-10-16T08:38:55Z</time>
      </trkpt>
      <trkpt lat="50.78098" lon="3.5711">
        <ele>45.8</ele>
        <time>2016-10-16T08:38:57Z</time>
      </trkpt>
      <trkpt lat="50.78088" lon="3.57096">
        <ele>46.28</ele>
        <time>2016-10-16T08:39:07Z</time>
      </trkpt>
      <trkpt lat="50.78078" lon="3.57085">
        <ele>45.32</ele>
        <time>2016-10-16T08:39:18Z</time>
      </trkpt>
      <trkpt lat="50.78071" lon="3.57078">
        <ele>45.8</ele>
        <time>2016-10-16T08:39:26Z</time>
      </trkpt>
      <trkpt lat="50.78052" lon="3.57058">
        <ele>46.28</ele>
        <time>2016-10-16T08:39:44Z</time>
      </trkpt>
      <trkpt lat="50.78048" lon="3.57054">
        <ele>48.2</ele>
        <time>2016-10-16T08:39:49Z</time>
      </trkpt>
      <trkpt lat="50.78039" lon="3.57049">
        <ele>46.28</ele>
        <time>2016-10-16T08:39:56Z</time>
      </trkpt>
      <trkpt lat="50.78036" lon="3.57049">
        <ele>47.72</ele>
        <time>2016-10-16T08:39:58Z</time>
      </trkpt>
      <trkpt lat="50.78025" lon="3.57048">
        <ele>46.28</ele>
        <time>2016-10-16T08:40:06Z</time>
      </trkpt>
      <trkpt lat="50.78023" lon="3.57049">
        <ele>48.68</ele>
        <time>2016-10-16T08:40:08Z</time>
      </trkpt>
      <trkpt lat="50.78011" lon="3.57051">
        <ele>46.76</ele>
        <time>2016-10-16T08:40:16Z</time>
      </trkpt>
      <trkpt lat="50.78009" lon="3.57052">
        <ele>49.65</ele>
        <time>2016-10-16T08:40:18Z</time>
      </trkpt>
      <trkpt lat="50.78007" lon="3.57053">
        <ele>47.72</ele>
        <time>2016-10-16T08:40:20Z</time>
      </trkpt>
      <trkpt lat="50.77997" lon="3.57058">
        <ele>47.72</ele>
        <time>2016-10-16T08:40:29Z</time>
      </trkpt>
      <trkpt lat="50.77993" lon="3.57061">
        <ele>49.16</ele>
        <time>2016-10-16T08:40:32Z</time>
      </trkpt>
      <trkpt lat="50.77992" lon="3.57061">
        <ele>49.16</ele>
        <time>2016-10-16T08:40:33Z</time>
      </trkpt>
      <trkpt lat="50.77983" lon="3.57065">
        <ele>47.72</ele>
        <time>2016-10-16T08:40:42Z</time>
      </trkpt>
      <trkpt lat="50.77981" lon="3.57067">
        <ele>49.65</ele>
        <time>2016-10-16T08:40:44Z</time>
      </trkpt>
      <trkpt lat="50.77977" lon="3.57068">
        <ele>50.13</ele>
        <time>2016-10-16T08:40:48Z</time>
      </trkpt>
      <trkpt lat="50.77974" lon="3.57069">
        <ele>48.68</ele>
        <time>2016-10-16T08:40:50Z</time>
      </trkpt>
      <trkpt lat="50.77972" lon="3.57071">
        <ele>50.13</ele>
        <time>2016-10-16T08:40:52Z</time>
      </trkpt>
      <trkpt lat="50.77969" lon="3.57072">
        <ele>48.2</ele>
        <time>2016-10-16T08:40:55Z</time>
      </trkpt>
      <trkpt lat="50.77966" lon="3.57073">
        <ele>49.65</ele>
        <time>2016-10-16T08:40:57Z</time>
      </trkpt>
      <trkpt lat="50.77963" lon="3.57074">
        <ele>48.2</ele>
        <time>2016-10-16T08:41:01Z</time>
      </trkpt>
      <trkpt lat="50.77958" lon="3.57073">
        <ele>48.2</ele>
        <time>2016-10-16T08:41:09Z</time>
      </trkpt>
      <trkpt lat="50.7795" lon="3.57073">
        <ele>50.13</ele>
        <time>2016-10-16T08:41:16Z</time>
      </trkpt>
      <trkpt lat="50.77946" lon="3.57071">
        <ele>48.68</ele>
        <time>2016-10-16T08:41:21Z</time>
      </trkpt>
      <trkpt lat="50.77943" lon="3.57071">
        <ele>51.09</ele>
        <time>2016-10-16T08:41:24Z</time>
      </trkpt>
      <trkpt lat="50.77932" lon="3.57063">
        <ele>51.09</ele>
        <time>2016-10-16T08:41:33Z</time>
      </trkpt>
      <trkpt lat="50.77929" lon="3.57061">
        <ele>49.65</ele>
        <time>2016-10-16T08:41:36Z</time>
      </trkpt>
      <trkpt lat="50.77922" lon="3.57056">
        <ele>51.09</ele>
        <time>2016-10-16T08:41:41Z</time>
      </trkpt>
      <trkpt lat="50.77914" lon="3.57052">
        <ele>48.68</ele>
        <time>2016-10-16T08:41:48Z</time>
      </trkpt>
      <trkpt lat="50.77913" lon="3.57052">
        <ele>52.53</ele>
        <time>2016-10-16T08:41:49Z</time>
      </trkpt>
      <trkpt lat="50.77912" lon="3.57052">
        <ele>50.13</ele>
        <time>2016-10-16T08:41:50Z</time>
      </trkpt>
      <trkpt lat="50.77894" lon="3.57045">
        <ele>49.65</ele>
        <time>2016-10-16T08:42:04Z</time>
      </trkpt>
      <trkpt lat="50.77888" lon="3.57041">
        <ele>52.53</ele>
        <time>2016-10-16T08:42:08Z</time>
      </trkpt>
      <trkpt lat="50.77885" lon="3.57039">
        <ele>51.09</ele>
        <time>2016-10-16T08:42:10Z</time>
      </trkpt>
      <trkpt lat="50.77883" lon="3.57036">
        <ele>52.53</ele>
        <time>2016-10-16T08:42:12Z</time>
      </trkpt>
      <trkpt lat="50.77881" lon="3.57035">
        <ele>49.16</ele>
        <time>2016-10-16T08:42:14Z</time>
      </trkpt>
      <trkpt lat="50.7788" lon="3.57034">
        <ele>52.53</ele>
        <time>2016-10-16T08:42:15Z</time>
      </trkpt>
      <trkpt lat="50.77879" lon="3.57033">
        <ele>52.05</ele>
        <time>2016-10-16T08:42:16Z</time>
      </trkpt>
      <trkpt lat="50.77876" lon="3.57031">
        <ele>49.65</ele>
        <time>2016-10-16T08:42:19Z</time>
      </trkpt>
      <trkpt lat="50.77872" lon="3.57028">
        <ele>52.53</ele>
        <time>2016-10-16T08:42:22Z</time>
      </trkpt>
      <trkpt lat="50.7787" lon="3.57026">
        <ele>50.13</ele>
        <time>2016-10-16T08:42:24Z</time>
      </trkpt>
      <trkpt lat="50.77867" lon="3.57024">
        <ele>52.53</ele>
        <time>2016-10-16T08:42:26Z</time>
      </trkpt>
      <trkpt lat="50.77865" lon="3.57023">
        <ele>51.09</ele>
        <time>2016-10-16T08:42:28Z</time>
      </trkpt>
      <trkpt lat="50.77855" lon="3.57016">
        <ele>52.53</ele>
        <time>2016-10-16T08:42:37Z</time>
      </trkpt>
      <trkpt lat="50.77849" lon="3.57012">
        <ele>51.09</ele>
        <time>2016-10-16T08:42:43Z</time>
      </trkpt>
      <trkpt lat="50.77846" lon="3.57011">
        <ele>53.01</ele>
        <time>2016-10-16T08:42:45Z</time>
      </trkpt>
      <trkpt lat="50.77842" lon="3.57007">
        <ele>49.65</ele>
        <time>2016-10-16T08:42:48Z</time>
      </trkpt>
      <trkpt lat="50.7784" lon="3.57005">
        <ele>52.53</ele>
        <time>2016-10-16T08:42:50Z</time>
      </trkpt>
      <trkpt lat="50.77838" lon="3.57004">
        <ele>52.53</ele>
        <time>2016-10-16T08:42:51Z</time>
      </trkpt>
      <trkpt lat="50.77831" lon="3.57">
        <ele>51.09</ele>
        <time>2016-10-16T08:42:57Z</time>
      </trkpt>
      <trkpt lat="50.77825" lon="3.56997">
        <ele>53.49</ele>
        <time>2016-10-16T08:43:02Z</time>
      </trkpt>
      <trkpt lat="50.77822" lon="3.56996">
        <ele>51.57</ele>
        <time>2016-10-16T08:43:04Z</time>
      </trkpt>
      <trkpt lat="50.77821" lon="3.56995">
        <ele>53.97</ele>
        <time>2016-10-16T08:43:06Z</time>
      </trkpt>
      <trkpt lat="50.77814" lon="3.56992">
        <ele>50.61</ele>
        <time>2016-10-16T08:43:11Z</time>
      </trkpt>
      <trkpt lat="50.77799" lon="3.56987">
        <ele>53.97</ele>
        <time>2016-10-16T08:43:24Z</time>
      </trkpt>
      <trkpt lat="50.77787" lon="3.56981">
        <ele>52.53</ele>
        <time>2016-10-16T08:43:34Z</time>
      </trkpt>
      <trkpt lat="50.77784" lon="3.56978">
        <ele>53.97</ele>
        <time>2016-10-16T08:43:37Z</time>
      </trkpt>
      <trkpt lat="50.77769" lon="3.56971">
        <ele>55.41</ele>
        <time>2016-10-16T08:43:49Z</time>
      </trkpt>
      <trkpt lat="50.77767" lon="3.56971">
        <ele>53.49</ele>
        <time>2016-10-16T08:43:51Z</time>
      </trkpt>
      <trkpt lat="50.77765" lon="3.5697">
        <ele>55.89</ele>
        <time>2016-10-16T08:43:53Z</time>
      </trkpt>
      <trkpt lat="50.77761" lon="3.56969">
        <ele>53.97</ele>
        <time>2016-10-16T08:43:55Z</time>
      </trkpt>
      <trkpt lat="50.77753" lon="3.56963">
        <ele>54.45</ele>
        <time>2016-10-16T08:44:03Z</time>
      </trkpt>
      <trkpt lat="50.77748" lon="3.56961">
        <ele>56.86</ele>
        <time>2016-10-16T08:44:07Z</time>
      </trkpt>
      <trkpt lat="50.77746" lon="3.5696">
        <ele>54.93</ele>
        <time>2016-10-16T08:44:09Z</time>
      </trkpt>
      <trkpt lat="50.77744" lon="3.5696">
        <ele>54.45</ele>
        <time>2016-10-16T08:44:11Z</time>
      </trkpt>
      <trkpt lat="50.77734" lon="3.56956">
        <ele>57.34</ele>
        <time>2016-10-16T08:44:19Z</time>
      </trkpt>
      <trkpt lat="50.77729" lon="3.56953">
        <ele>57.34</ele>
        <time>2016-10-16T08:44:23Z</time>
      </trkpt>
      <trkpt lat="50.77722" lon="3.56951">
        <ele>57.82</ele>
        <time>2016-10-16T08:44:30Z</time>
      </trkpt>
      <trkpt lat="50.77717" lon="3.56948">
        <ele>55.41</ele>
        <time>2016-10-16T08:44:34Z</time>
      </trkpt>
      <trkpt lat="50.77715" lon="3.56946">
        <ele>57.34</ele>
        <time>2016-10-16T08:44:36Z</time>
      </trkpt>
      <trkpt lat="50.77697" lon="3.56938">
        <ele>57.34</ele>
        <time>2016-10-16T08:44:51Z</time>
      </trkpt>
      <trkpt lat="50.77682" lon="3.5693">
        <ele>57.82</ele>
        <time>2016-10-16T08:45:05Z</time>
      </trkpt>
      <trkpt lat="50.77676" lon="3.56929">
        <ele>56.86</ele>
        <time>2016-10-16T08:45:10Z</time>
      </trkpt>
      <trkpt lat="50.77672" lon="3.56926">
        <ele>58.3</ele>
        <time>2016-10-16T08:45:13Z</time>
      </trkpt>
      <trkpt lat="50.77666" lon="3.56923">
        <ele>57.34</ele>
        <time>2016-10-16T08:45:19Z</time>
      </trkpt>
      <trkpt lat="50.77662" lon="3.56921">
        <ele>59.26</ele>
        <time>2016-10-16T08:45:22Z</time>
      </trkpt>
      <trkpt lat="50.77656" lon="3.56918">
        <ele>56.86</ele>
        <time>2016-10-16T08:45:28Z</time>
      </trkpt>
      <trkpt lat="50.77654" lon="3.56916">
        <ele>59.74</ele>
        <time>2016-10-16T08:45:30Z</time>
      </trkpt>
      <trkpt lat="50.77652" lon="3.56914">
        <ele>57.34</ele>
        <time>2016-10-16T08:45:32Z</time>
      </trkpt>
      <trkpt lat="50.77646" lon="3.56913">
        <ele>59.74</ele>
        <time>2016-10-16T08:45:37Z</time>
      </trkpt>
      <trkpt lat="50.77631" lon="3.56904">
        <ele>58.78</ele>
        <time>2016-10-16T08:45:51Z</time>
      </trkpt>
      <trkpt lat="50.7762" lon="3.56898">
        <ele>61.66</ele>
        <time>2016-10-16T08:46:01Z</time>
      </trkpt>
      <trkpt lat="50.77607" lon="3.56891">
        <ele>62.62</ele>
        <time>2016-10-16T08:46:15Z</time>
      </trkpt>
      <trkpt lat="50.77598" lon="3.56889">
        <ele>61.66</ele>
        <time>2016-10-16T08:46:24Z</time>
      </trkpt>
      <trkpt lat="50.77593" lon="3.56886">
        <ele>61.66</ele>
        <time>2016-10-16T08:46:30Z</time>
      </trkpt>
      <trkpt lat="50.7759" lon="3.56889">
        <ele>62.62</ele>
        <time>2016-10-16T08:46:35Z</time>
      </trkpt>
      <trkpt lat="50.77586" lon="3.56906">
        <ele>61.18</ele>
        <time>2016-10-16T08:46:46Z</time>
      </trkpt>
      <trkpt lat="50.77584" lon="3.56917">
        <ele>60.7</ele>
        <time>2016-10-16T08:46:52Z</time>
      </trkpt>
      <trkpt lat="50.77583" lon="3.56923">
        <ele>60.22</ele>
        <time>2016-10-16T08:46:56Z</time>
      </trkpt>
      <trkpt lat="50.77582" lon="3.56929">
        <ele>61.66</ele>
        <time>2016-10-16T08:46:59Z</time>
      </trkpt>
      <trkpt lat="50.77581" lon="3.56932">
        <ele>60.22</ele>
        <time>2016-10-16T08:47:01Z</time>
      </trkpt>
      <trkpt lat="50.7758" lon="3.56944">
        <ele>60.22</ele>
        <time>2016-10-16T08:47:08Z</time>
      </trkpt>
      <trkpt lat="50.77567" lon="3.56943">
        <ele>60.7</ele>
        <time>2016-10-16T08:47:20Z</time>
      </trkpt>
      <trkpt lat="50.77562" lon="3.56941">
        <ele>60.22</ele>
        <time>2016-10-16T08:47:27Z</time>
      </trkpt>
      <trkpt lat="50.77551" lon="3.56935">
        <ele>62.14</ele>
        <time>2016-10-16T08:47:37Z</time>
      </trkpt>
      <trkpt lat="50.77547" lon="3.56933">
        <ele>62.14</ele>
        <time>2016-10-16T08:47:42Z</time>
      </trkpt>
      <trkpt lat="50.7754" lon="3.56928">
        <ele>61.66</ele>
        <time>2016-10-16T08:47:49Z</time>
      </trkpt>
      <trkpt lat="50.7753" lon="3.56921">
        <ele>61.18</ele>
        <time>2016-10-16T08:47:58Z</time>
      </trkpt>
      <trkpt lat="50.77521" lon="3.56916">
        <ele>63.58</ele>
        <time>2016-10-16T08:48:04Z</time>
      </trkpt>
      <trkpt lat="50.77517" lon="3.56915">
        <ele>61.66</ele>
        <time>2016-10-16T08:48:07Z</time>
      </trkpt>
      <trkpt lat="50.77515" lon="3.56913">
        <ele>65.99</ele>
        <time>2016-10-16T08:48:09Z</time>
      </trkpt>
      <trkpt lat="50.77514" lon="3.56913">
        <ele>65.99</ele>
        <time>2016-10-16T08:48:10Z</time>
      </trkpt>
      <trkpt lat="50.77511" lon="3.5691">
        <ele>62.62</ele>
        <time>2016-10-16T08:48:13Z</time>
      </trkpt>
      <trkpt lat="50.7751" lon="3.56909">
        <ele>62.62</ele>
        <time>2016-10-16T08:48:14Z</time>
      </trkpt>
      <trkpt lat="50.77509" lon="3.56908">
        <ele>65.03</ele>
        <time>2016-10-16T08:48:16Z</time>
      </trkpt>
      <trkpt lat="50.77503" lon="3.56904">
        <ele>65.51</ele>
        <time>2016-10-16T08:48:20Z</time>
      </trkpt>
      <trkpt lat="50.77501" lon="3.56903">
        <ele>64.07</ele>
        <time>2016-10-16T08:48:22Z</time>
      </trkpt>
      <trkpt lat="50.77491" lon="3.569">
        <ele>65.51</ele>
        <time>2016-10-16T08:48:30Z</time>
      </trkpt>
      <trkpt lat="50.77488" lon="3.56898">
        <ele>64.07</ele>
        <time>2016-10-16T08:48:33Z</time>
      </trkpt>
      <trkpt lat="50.7748" lon="3.56892">
        <ele>65.51</ele>
        <time>2016-10-16T08:48:40Z</time>
      </trkpt>
      <trkpt lat="50.77475" lon="3.56885">
        <ele>63.58</ele>
        <time>2016-10-16T08:48:44Z</time>
      </trkpt>
      <trkpt lat="50.77476" lon="3.56873">
        <ele>63.58</ele>
        <time>2016-10-16T08:48:49Z</time>
      </trkpt>
      <trkpt lat="50.77478" lon="3.56862">
        <ele>65.51</ele>
        <time>2016-10-16T08:48:55Z</time>
      </trkpt>
      <trkpt lat="50.77479" lon="3.56856">
        <ele>64.07</ele>
        <time>2016-10-16T08:48:58Z</time>
      </trkpt>
      <trkpt lat="50.77482" lon="3.56834">
        <ele>66.95</ele>
        <time>2016-10-16T08:49:08Z</time>
      </trkpt>
      <trkpt lat="50.77485" lon="3.56814">
        <ele>67.43</ele>
        <time>2016-10-16T08:49:19Z</time>
      </trkpt>
      <trkpt lat="50.77485" lon="3.56808">
        <ele>65.51</ele>
        <time>2016-10-16T08:49:22Z</time>
      </trkpt>
      <trkpt lat="50.77486" lon="3.56804">
        <ele>66.95</ele>
        <time>2016-10-16T08:49:24Z</time>
      </trkpt>
      <trkpt lat="50.77487" lon="3.56797">
        <ele>65.03</ele>
        <time>2016-10-16T08:49:27Z</time>
      </trkpt>
      <trkpt lat="50.77491" lon="3.56766">
        <ele>65.99</ele>
        <time>2016-10-16T08:49:44Z</time>
      </trkpt>
      <trkpt lat="50.77493" lon="3.56762">
        <ele>65.51</ele>
        <time>2016-10-16T08:49:56Z</time>
      </trkpt>
      <trkpt lat="50.775" lon="3.56744">
        <ele>65.51</ele>
        <time>2016-10-16T08:50:10Z</time>
      </trkpt>
      <trkpt lat="50.77511" lon="3.56721">
        <ele>64.55</ele>
        <time>2016-10-16T08:50:28Z</time>
      </trkpt>
      <trkpt lat="50.77512" lon="3.56699">
        <ele>63.58</ele>
        <time>2016-10-16T08:50:42Z</time>
      </trkpt>
      <trkpt lat="50.77511" lon="3.56697">
        <ele>62.14</ele>
        <time>2016-10-16T08:50:44Z</time>
      </trkpt>
      <trkpt lat="50.7751" lon="3.56693">
        <ele>61.66</ele>
        <time>2016-10-16T08:50:46Z</time>
      </trkpt>
      <trkpt lat="50.77507" lon="3.56685">
        <ele>61.18</ele>
        <time>2016-10-16T08:50:51Z</time>
      </trkpt>
      <trkpt lat="50.77506" lon="3.56675">
        <ele>61.66</ele>
        <time>2016-10-16T08:50:57Z</time>
      </trkpt>
      <trkpt lat="50.77506" lon="3.56672">
        <ele>60.22</ele>
        <time>2016-10-16T08:50:59Z</time>
      </trkpt>
      <trkpt lat="50.77498" lon="3.56638">
        <ele>57.34</ele>
        <time>2016-10-16T08:51:19Z</time>
      </trkpt>
      <trkpt lat="50.77497" lon="3.56636">
        <ele>57.34</ele>
        <time>2016-10-16T08:51:20Z</time>
      </trkpt>
      <trkpt lat="50.77491" lon="3.56616">
        <ele>55.41</ele>
        <time>2016-10-16T08:51:32Z</time>
      </trkpt>
      <trkpt lat="50.77489" lon="3.56609">
        <ele>53.97</ele>
        <time>2016-10-16T08:51:37Z</time>
      </trkpt>
      <trkpt lat="50.77485" lon="3.56598">
        <ele>53.97</ele>
        <time>2016-10-16T08:51:42Z</time>
      </trkpt>
      <trkpt lat="50.77479" lon="3.56569">
        <ele>51.57</ele>
        <time>2016-10-16T08:51:59Z</time>
      </trkpt>
      <trkpt lat="50.77477" lon="3.56542">
        <ele>49.16</ele>
        <time>2016-10-16T08:52:13Z</time>
      </trkpt>
      <trkpt lat="50.7748" lon="3.5653">
        <ele>49.65</ele>
        <time>2016-10-16T08:52:18Z</time>
      </trkpt>
      <trkpt lat="50.77483" lon="3.56524">
        <ele>49.65</ele>
        <time>2016-10-16T08:52:21Z</time>
      </trkpt>
      <trkpt lat="50.77503" lon="3.56508">
        <ele>47.72</ele>
        <time>2016-10-16T08:52:40Z</time>
      </trkpt>
      <trkpt lat="50.77526" lon="3.56495">
        <ele>47.24</ele>
        <time>2016-10-16T08:52:58Z</time>
      </trkpt>
      <trkpt lat="50.77529" lon="3.56492">
        <ele>45.8</ele>
        <time>2016-10-16T08:53:01Z</time>
      </trkpt>
      <trkpt lat="50.77547" lon="3.56484">
        <ele>44.36</ele>
        <time>2016-10-16T08:53:17Z</time>
      </trkpt>
      <trkpt lat="50.77553" lon="3.56481">
        <ele>43.88</ele>
        <time>2016-10-16T08:53:23Z</time>
      </trkpt>
      <trkpt lat="50.77566" lon="3.56469">
        <ele>42.92</ele>
        <time>2016-10-16T08:53:35Z</time>
      </trkpt>
      <trkpt lat="50.7758" lon="3.56447">
        <ele>41.47</ele>
        <time>2016-10-16T08:53:51Z</time>
      </trkpt>
      <trkpt lat="50.77581" lon="3.56444">
        <ele>40.99</ele>
        <time>2016-10-16T08:53:54Z</time>
      </trkpt>
      <trkpt lat="50.77592" lon="3.56425">
        <ele>40.51</ele>
        <time>2016-10-16T08:54:08Z</time>
      </trkpt>
      <trkpt lat="50.77603" lon="3.56403">
        <ele>39.55</ele>
        <time>2016-10-16T08:54:23Z</time>
      </trkpt>
      <trkpt lat="50.77606" lon="3.56395">
        <ele>40.51</ele>
        <time>2016-10-16T08:54:28Z</time>
      </trkpt>
      <trkpt lat="50.77611" lon="3.56389">
        <ele>38.59</ele>
        <time>2016-10-16T08:54:34Z</time>
      </trkpt>
      <trkpt lat="50.77613" lon="3.56387">
        <ele>40.03</ele>
        <time>2016-10-16T08:54:36Z</time>
      </trkpt>
      <trkpt lat="50.77616" lon="3.56384">
        <ele>40.03</ele>
        <time>2016-10-16T08:54:39Z</time>
      </trkpt>
      <trkpt lat="50.77623" lon="3.56379">
        <ele>38.59</ele>
        <time>2016-10-16T08:54:44Z</time>
      </trkpt>
      <trkpt lat="50.77625" lon="3.56378">
        <ele>40.51</ele>
        <time>2016-10-16T08:54:46Z</time>
      </trkpt>
      <trkpt lat="50.77627" lon="3.56377">
        <ele>38.59</ele>
        <time>2016-10-16T08:54:48Z</time>
      </trkpt>
      <trkpt lat="50.77629" lon="3.56375">
        <ele>40.03</ele>
        <time>2016-10-16T08:54:50Z</time>
      </trkpt>
      <trkpt lat="50.77631" lon="3.56373">
        <ele>39.07</ele>
        <time>2016-10-16T08:54:52Z</time>
      </trkpt>
      <trkpt lat="50.77633" lon="3.5637">
        <ele>40.51</ele>
        <time>2016-10-16T08:54:54Z</time>
      </trkpt>
      <trkpt lat="50.77636" lon="3.56365">
        <ele>39.07</ele>
        <time>2016-10-16T08:54:57Z</time>
      </trkpt>
      <trkpt lat="50.77654" lon="3.56344">
        <ele>40.99</ele>
        <time>2016-10-16T08:55:13Z</time>
      </trkpt>
      <trkpt lat="50.77655" lon="3.56342">
        <ele>39.55</ele>
        <time>2016-10-16T08:55:15Z</time>
      </trkpt>
      <trkpt lat="50.77657" lon="3.5634">
        <ele>40.51</ele>
        <time>2016-10-16T08:55:17Z</time>
      </trkpt>
      <trkpt lat="50.77661" lon="3.56335">
        <ele>40.99</ele>
        <time>2016-10-16T08:55:22Z</time>
      </trkpt>
      <trkpt lat="50.77669" lon="3.56331">
        <ele>41.47</ele>
        <time>2016-10-16T08:55:29Z</time>
      </trkpt>
      <trkpt lat="50.77677" lon="3.56328">
        <ele>39.55</ele>
        <time>2016-10-16T08:55:35Z</time>
      </trkpt>
      <trkpt lat="50.77681" lon="3.56327">
        <ele>40.99</ele>
        <time>2016-10-16T08:55:38Z</time>
      </trkpt>
      <trkpt lat="50.77691" lon="3.56327">
        <ele>40.03</ele>
        <time>2016-10-16T08:55:44Z</time>
      </trkpt>
      <trkpt lat="50.77694" lon="3.56324">
        <ele>42.44</ele>
        <time>2016-10-16T08:55:46Z</time>
      </trkpt>
      <trkpt lat="50.77697" lon="3.56319">
        <ele>40.99</ele>
        <time>2016-10-16T08:55:49Z</time>
      </trkpt>
      <trkpt lat="50.77702" lon="3.56308">
        <ele>42.92</ele>
        <time>2016-10-16T08:55:56Z</time>
      </trkpt>
      <trkpt lat="50.77707" lon="3.56294">
        <ele>42.44</ele>
        <time>2016-10-16T08:56:04Z</time>
      </trkpt>
      <trkpt lat="50.77711" lon="3.56285">
        <ele>40.99</ele>
        <time>2016-10-16T08:56:09Z</time>
      </trkpt>
      <trkpt lat="50.77712" lon="3.56279">
        <ele>43.4</ele>
        <time>2016-10-16T08:56:12Z</time>
      </trkpt>
      <trkpt lat="50.77713" lon="3.56275">
        <ele>41.95</ele>
        <time>2016-10-16T08:56:14Z</time>
      </trkpt>
      <trkpt lat="50.77713" lon="3.56268">
        <ele>43.88</ele>
        <time>2016-10-16T08:56:19Z</time>
      </trkpt>
      <trkpt lat="50.77715" lon="3.5626">
        <ele>41.47</ele>
        <time>2016-10-16T08:56:24Z</time>
      </trkpt>
      <trkpt lat="50.77715" lon="3.56258">
        <ele>44.84</ele>
        <time>2016-10-16T08:56:25Z</time>
      </trkpt>
      <trkpt lat="50.77715" lon="3.56257">
        <ele>42.92</ele>
        <time>2016-10-16T08:56:26Z</time>
      </trkpt>
      <trkpt lat="50.77716" lon="3.56243">
        <ele>44.36</ele>
        <time>2016-10-16T08:56:32Z</time>
      </trkpt>
      <trkpt lat="50.7772" lon="3.56224">
        <ele>42.92</ele>
        <time>2016-10-16T08:56:42Z</time>
      </trkpt>
      <trkpt lat="50.77722" lon="3.56211">
        <ele>44.84</ele>
        <time>2016-10-16T08:56:49Z</time>
      </trkpt>
      <trkpt lat="50.77722" lon="3.56207">
        <ele>42.92</ele>
        <time>2016-10-16T08:56:51Z</time>
      </trkpt>
      <trkpt lat="50.77723" lon="3.56196">
        <ele>45.32</ele>
        <time>2016-10-16T08:56:56Z</time>
      </trkpt>
      <trkpt lat="50.77723" lon="3.56184">
        <ele>45.32</ele>
        <time>2016-10-16T08:57:03Z</time>
      </trkpt>
      <trkpt lat="50.77723" lon="3.56179">
        <ele>43.88</ele>
        <time>2016-10-16T08:57:05Z</time>
      </trkpt>
      <trkpt lat="50.77723" lon="3.56154">
        <ele>45.8</ele>
        <time>2016-10-16T08:57:18Z</time>
      </trkpt>
      <trkpt lat="50.77723" lon="3.56145">
        <ele>44.36</ele>
        <time>2016-10-16T08:57:23Z</time>
      </trkpt>
      <trkpt lat="50.77723" lon="3.56135">
        <ele>45.8</ele>
        <time>2016-10-16T08:57:29Z</time>
      </trkpt>
      <trkpt lat="50.77724" lon="3.56127">
        <ele>46.76</ele>
        <time>2016-10-16T08:57:33Z</time>
      </trkpt>
      <trkpt lat="50.77727" lon="3.56096">
        <ele>47.24</ele>
        <time>2016-10-16T08:57:48Z</time>
      </trkpt>
      <trkpt lat="50.77728" lon="3.56092">
        <ele>45.8</ele>
        <time>2016-10-16T08:57:50Z</time>
      </trkpt>
      <trkpt lat="50.7773" lon="3.56081">
        <ele>47.72</ele>
        <time>2016-10-16T08:57:56Z</time>
      </trkpt>
      <trkpt lat="50.77731" lon="3.56076">
        <ele>45.8</ele>
        <time>2016-10-16T08:57:58Z</time>
      </trkpt>
      <trkpt lat="50.77732" lon="3.56072">
        <ele>47.24</ele>
        <time>2016-10-16T08:58:00Z</time>
      </trkpt>
      <trkpt lat="50.77734" lon="3.56067">
        <ele>45.8</ele>
        <time>2016-10-16T08:58:03Z</time>
      </trkpt>
      <trkpt lat="50.77739" lon="3.56055">
        <ele>49.16</ele>
        <time>2016-10-16T08:58:11Z</time>
      </trkpt>
      <trkpt lat="50.7774" lon="3.56052">
        <ele>49.16</ele>
        <time>2016-10-16T08:58:12Z</time>
      </trkpt>
      <trkpt lat="50.77741" lon="3.56049">
        <ele>47.24</ele>
        <time>2016-10-16T08:58:14Z</time>
      </trkpt>
      <trkpt lat="50.77744" lon="3.56043">
        <ele>46.76</ele>
        <time>2016-10-16T08:58:18Z</time>
      </trkpt>
      <trkpt lat="50.77744" lon="3.56041">
        <ele>50.13</ele>
        <time>2016-10-16T08:58:19Z</time>
      </trkpt>
      <trkpt lat="50.77745" lon="3.56039">
        <ele>50.13</ele>
        <time>2016-10-16T08:58:20Z</time>
      </trkpt>
      <trkpt lat="50.77749" lon="3.56029">
        <ele>49.65</ele>
        <time>2016-10-16T08:58:25Z</time>
      </trkpt>
      <trkpt lat="50.7775" lon="3.56025">
        <ele>47.24</ele>
        <time>2016-10-16T08:58:27Z</time>
      </trkpt>
      <trkpt lat="50.7775" lon="3.56023">
        <ele>50.61</ele>
        <time>2016-10-16T08:58:28Z</time>
      </trkpt>
      <trkpt lat="50.7775" lon="3.56022">
        <ele>50.61</ele>
        <time>2016-10-16T08:58:29Z</time>
      </trkpt>
      <trkpt lat="50.7775" lon="3.56018">
        <ele>48.68</ele>
        <time>2016-10-16T08:58:31Z</time>
      </trkpt>
      <trkpt lat="50.77753" lon="3.5601">
        <ele>51.09</ele>
        <time>2016-10-16T08:58:36Z</time>
      </trkpt>
      <trkpt lat="50.77756" lon="3.56">
        <ele>48.68</ele>
        <time>2016-10-16T08:58:42Z</time>
      </trkpt>
      <trkpt lat="50.77756" lon="3.55997">
        <ele>51.57</ele>
        <time>2016-10-16T08:58:43Z</time>
      </trkpt>
      <trkpt lat="50.77756" lon="3.55995">
        <ele>51.57</ele>
        <time>2016-10-16T08:58:44Z</time>
      </trkpt>
      <trkpt lat="50.77759" lon="3.55984">
        <ele>48.68</ele>
        <time>2016-10-16T08:58:50Z</time>
      </trkpt>
      <trkpt lat="50.77759" lon="3.55982">
        <ele>52.05</ele>
        <time>2016-10-16T08:58:51Z</time>
      </trkpt>
      <trkpt lat="50.77761" lon="3.55973">
        <ele>49.16</ele>
        <time>2016-10-16T08:58:56Z</time>
      </trkpt>
      <trkpt lat="50.77763" lon="3.55969">
        <ele>52.05</ele>
        <time>2016-10-16T08:58:58Z</time>
      </trkpt>
      <trkpt lat="50.77764" lon="3.55954">
        <ele>50.13</ele>
        <time>2016-10-16T08:59:06Z</time>
      </trkpt>
      <trkpt lat="50.77765" lon="3.55951">
        <ele>51.57</ele>
        <time>2016-10-16T08:59:08Z</time>
      </trkpt>
      <trkpt lat="50.77767" lon="3.55938">
        <ele>52.53</ele>
        <time>2016-10-16T08:59:15Z</time>
      </trkpt>
      <trkpt lat="50.77768" lon="3.55935">
        <ele>49.16</ele>
        <time>2016-10-16T08:59:16Z</time>
      </trkpt>
      <trkpt lat="50.77768" lon="3.55934">
        <ele>52.53</ele>
        <time>2016-10-16T08:59:17Z</time>
      </trkpt>
      <trkpt lat="50.77774" lon="3.55913">
        <ele>53.49</ele>
        <time>2016-10-16T08:59:29Z</time>
      </trkpt>
      <trkpt lat="50.77776" lon="3.55907">
        <ele>54.93</ele>
        <time>2016-10-16T08:59:33Z</time>
      </trkpt>
      <trkpt lat="50.77779" lon="3.55904">
        <ele>53.49</ele>
        <time>2016-10-16T08:59:36Z</time>
      </trkpt>
      <trkpt lat="50.77784" lon="3.55897">
        <ele>55.89</ele>
        <time>2016-10-16T08:59:42Z</time>
      </trkpt>
      <trkpt lat="50.77799" lon="3.5587">
        <ele>59.26</ele>
        <time>2016-10-16T09:00:05Z</time>
      </trkpt>
      <trkpt lat="50.7781" lon="3.55855">
        <ele>57.82</ele>
        <time>2016-10-16T09:00:18Z</time>
      </trkpt>
      <trkpt lat="50.77811" lon="3.55854">
        <ele>61.18</ele>
        <time>2016-10-16T09:00:19Z</time>
      </trkpt>
      <trkpt lat="50.77817" lon="3.55848">
        <ele>60.7</ele>
        <time>2016-10-16T09:00:25Z</time>
      </trkpt>
      <trkpt lat="50.77834" lon="3.55821">
        <ele>61.66</ele>
        <time>2016-10-16T09:00:46Z</time>
      </trkpt>
      <trkpt lat="50.77838" lon="3.55815">
        <ele>63.58</ele>
        <time>2016-10-16T09:00:51Z</time>
      </trkpt>
      <trkpt lat="50.77846" lon="3.55796">
        <ele>64.55</ele>
        <time>2016-10-16T09:01:03Z</time>
      </trkpt>
      <trkpt lat="50.77849" lon="3.55784">
        <ele>66.47</ele>
        <time>2016-10-16T09:01:11Z</time>
      </trkpt>
      <trkpt lat="50.77851" lon="3.55771">
        <ele>66.47</ele>
        <time>2016-10-16T09:01:18Z</time>
      </trkpt>
      <trkpt lat="50.77852" lon="3.55742">
        <ele>68.87</ele>
        <time>2016-10-16T09:01:36Z</time>
      </trkpt>
      <trkpt lat="50.77853" lon="3.55717">
        <ele>68.39</ele>
        <time>2016-10-16T09:01:52Z</time>
      </trkpt>
      <trkpt lat="50.77853" lon="3.55711">
        <ele>70.31</ele>
        <time>2016-10-16T09:01:56Z</time>
      </trkpt>
      <trkpt lat="50.77852" lon="3.55707">
        <ele>72.24</ele>
        <time>2016-10-16T09:01:58Z</time>
      </trkpt>
      <trkpt lat="50.77853" lon="3.55698">
        <ele>72.72</ele>
        <time>2016-10-16T09:02:03Z</time>
      </trkpt>
      <trkpt lat="50.77854" lon="3.55693">
        <ele>72.72</ele>
        <time>2016-10-16T09:02:07Z</time>
      </trkpt>
      <trkpt lat="50.77861" lon="3.55666">
        <ele>72.72</ele>
        <time>2016-10-16T09:02:23Z</time>
      </trkpt>
      <trkpt lat="50.77867" lon="3.55646">
        <ele>72.72</ele>
        <time>2016-10-16T09:02:36Z</time>
      </trkpt>
      <trkpt lat="50.77869" lon="3.55639">
        <ele>74.64</ele>
        <time>2016-10-16T09:02:42Z</time>
      </trkpt>
      <trkpt lat="50.77872" lon="3.5563">
        <ele>73.68</ele>
        <time>2016-10-16T09:02:47Z</time>
      </trkpt>
      <trkpt lat="50.77872" lon="3.55627">
        <ele>75.12</ele>
        <time>2016-10-16T09:02:49Z</time>
      </trkpt>
      <trkpt lat="50.77874" lon="3.55617">
        <ele>74.64</ele>
        <time>2016-10-16T09:02:54Z</time>
      </trkpt>
      <trkpt lat="50.77877" lon="3.55611">
        <ele>76.08</ele>
        <time>2016-10-16T09:02:58Z</time>
      </trkpt>
      <trkpt lat="50.77884" lon="3.55587">
        <ele>77.04</ele>
        <time>2016-10-16T09:03:13Z</time>
      </trkpt>
      <trkpt lat="50.77889" lon="3.55567">
        <ele>79.93</ele>
        <time>2016-10-16T09:03:26Z</time>
      </trkpt>
      <trkpt lat="50.7789" lon="3.55563">
        <ele>77.04</ele>
        <time>2016-10-16T09:03:28Z</time>
      </trkpt>
      <trkpt lat="50.7789" lon="3.55562">
        <ele>81.37</ele>
        <time>2016-10-16T09:03:29Z</time>
      </trkpt>
      <trkpt lat="50.77896" lon="3.55544">
        <ele>79.93</ele>
        <time>2016-10-16T09:03:41Z</time>
      </trkpt>
      <trkpt lat="50.77902" lon="3.55524">
        <ele>83.77</ele>
        <time>2016-10-16T09:03:55Z</time>
      </trkpt>
      <trkpt lat="50.77904" lon="3.55515">
        <ele>80.41</ele>
        <time>2016-10-16T09:04:00Z</time>
      </trkpt>
      <trkpt lat="50.77905" lon="3.55511">
        <ele>84.73</ele>
        <time>2016-10-16T09:04:02Z</time>
      </trkpt>
      <trkpt lat="50.77905" lon="3.55508">
        <ele>84.73</ele>
        <time>2016-10-16T09:04:03Z</time>
      </trkpt>
      <trkpt lat="50.77907" lon="3.55504">
        <ele>82.81</ele>
        <time>2016-10-16T09:04:05Z</time>
      </trkpt>
      <trkpt lat="50.77914" lon="3.55483">
        <ele>84.73</ele>
        <time>2016-10-16T09:04:19Z</time>
      </trkpt>
      <trkpt lat="50.77921" lon="3.55463">
        <ele>86.66</ele>
        <time>2016-10-16T09:04:33Z</time>
      </trkpt>
      <trkpt lat="50.77925" lon="3.55454">
        <ele>87.14</ele>
        <time>2016-10-16T09:04:40Z</time>
      </trkpt>
      <trkpt lat="50.77928" lon="3.55454">
        <ele>86.66</ele>
        <time>2016-10-16T09:05:02Z</time>
      </trkpt>
      <trkpt lat="50.77928" lon="3.55454">
        <ele>86.66</ele>
        <time>2016-10-16T09:05:05Z</time>
      </trkpt>
      <trkpt lat="50.77929" lon="3.55451">
        <ele>85.21</ele>
        <time>2016-10-16T09:05:07Z</time>
      </trkpt>
      <trkpt lat="50.7793" lon="3.55448">
        <ele>86.66</ele>
        <time>2016-10-16T09:05:09Z</time>
      </trkpt>
      <trkpt lat="50.77934" lon="3.55439">
        <ele>87.14</ele>
        <time>2016-10-16T09:05:15Z</time>
      </trkpt>
      <trkpt lat="50.7794" lon="3.55418">
        <ele>85.69</ele>
        <time>2016-10-16T09:05:29Z</time>
      </trkpt>
      <trkpt lat="50.77945" lon="3.55406">
        <ele>87.62</ele>
        <time>2016-10-16T09:05:44Z</time>
      </trkpt>
      <trkpt lat="50.77945" lon="3.55406">
        <ele>87.14</ele>
        <time>2016-10-16T09:06:16Z</time>
      </trkpt>
      <trkpt lat="50.77945" lon="3.55407">
        <ele>87.62</ele>
        <time>2016-10-16T09:06:52Z</time>
      </trkpt>
      <trkpt lat="50.77945" lon="3.55406">
        <ele>87.62</ele>
        <time>2016-10-16T09:07:28Z</time>
      </trkpt>
      <trkpt lat="50.77946" lon="3.55407">
        <ele>87.62</ele>
        <time>2016-10-16T09:08:10Z</time>
      </trkpt>
      <trkpt lat="50.77946" lon="3.554">
        <ele>87.62</ele>
        <time>2016-10-16T09:08:24Z</time>
      </trkpt>
      <trkpt lat="50.77948" lon="3.554">
        <ele>87.62</ele>
        <time>2016-10-16T09:08:41Z</time>
      </trkpt>
      <trkpt lat="50.77949" lon="3.55401">
        <ele>87.62</ele>
        <time>2016-10-16T09:09:11Z</time>
      </trkpt>
      <trkpt lat="50.77948" lon="3.554">
        <ele>86.66</ele>
        <time>2016-10-16T09:09:32Z</time>
      </trkpt>
      <trkpt lat="50.77949" lon="3.55401">
        <ele>86.66</ele>
        <time>2016-10-16T09:09:51Z</time>
      </trkpt>
      <trkpt lat="50.7795" lon="3.55398">
        <ele>86.66</ele>
        <time>2016-10-16T09:10:12Z</time>
      </trkpt>
      <trkpt lat="50.77951" lon="3.55397">
        <ele>87.14</ele>
        <time>2016-10-16T09:10:34Z</time>
      </trkpt>
      <trkpt lat="50.77949" lon="3.55399">
        <ele>85.69</ele>
        <time>2016-10-16T09:10:53Z</time>
      </trkpt>
      <trkpt lat="50.77948" lon="3.55403">
        <ele>87.14</ele>
        <time>2016-10-16T09:11:01Z</time>
      </trkpt>
      <trkpt lat="50.77949" lon="3.55398">
        <ele>87.14</ele>
        <time>2016-10-16T09:11:24Z</time>
      </trkpt>
      <trkpt lat="50.7795" lon="3.55391">
        <ele>87.14</ele>
        <time>2016-10-16T09:11:39Z</time>
      </trkpt>
      <trkpt lat="50.77956" lon="3.55396">
        <ele>85.69</ele>
        <time>2016-10-16T09:11:52Z</time>
      </trkpt>
      <trkpt lat="50.77956" lon="3.55397">
        <ele>87.14</ele>
        <time>2016-10-16T09:12:08Z</time>
      </trkpt>
      <trkpt lat="50.77956" lon="3.55396">
        <ele>87.62</ele>
        <time>2016-10-16T09:12:37Z</time>
      </trkpt>
      <trkpt lat="50.77956" lon="3.55398">
        <ele>87.62</ele>
        <time>2016-10-16T09:12:57Z</time>
      </trkpt>
      <trkpt lat="50.77955" lon="3.55398">
        <ele>87.62</ele>
        <time>2016-10-16T09:13:22Z</time>
      </trkpt>
      <trkpt lat="50.77956" lon="3.55396">
        <ele>87.62</ele>
        <time>2016-10-16T09:13:50Z</time>
      </trkpt>
      <trkpt lat="50.77956" lon="3.55396">
        <ele>87.62</ele>
        <time>2016-10-16T09:14:03Z</time>
      </trkpt>
      <trkpt lat="50.77954" lon="3.554">
        <ele>87.14</ele>
        <time>2016-10-16T09:14:28Z</time>
      </trkpt>
      <trkpt lat="50.77952" lon="3.554">
        <ele>87.62</ele>
        <time>2016-10-16T09:14:47Z</time>
      </trkpt>
      <trkpt lat="50.77953" lon="3.55399">
        <ele>87.14</ele>
        <time>2016-10-16T09:15:08Z</time>
      </trkpt>
      <trkpt lat="50.77953" lon="3.55399">
        <ele>87.14</ele>
        <time>2016-10-16T09:15:31Z</time>
      </trkpt>
      <trkpt lat="50.77952" lon="3.55399">
        <ele>87.14</ele>
        <time>2016-10-16T09:15:59Z</time>
      </trkpt>
      <trkpt lat="50.77953" lon="3.55399">
        <ele>87.14</ele>
        <time>2016-10-16T09:16:21Z</time>
      </trkpt>
      <trkpt lat="50.77954" lon="3.55399">
        <ele>87.14</ele>
        <time>2016-10-16T09:16:47Z</time>
      </trkpt>
      <trkpt lat="50.77954" lon="3.55399">
        <ele>87.62</ele>
        <time>2016-10-16T09:17:14Z</time>
      </trkpt>
      <trkpt lat="50.77956" lon="3.55397">
        <ele>87.62</ele>
        <time>2016-10-16T09:17:34Z</time>
      </trkpt>
      <trkpt lat="50.77959" lon="3.55399">
        <ele>87.62</ele>
        <time>2016-10-16T09:17:51Z</time>
      </trkpt>
      <trkpt lat="50.77959" lon="3.55396">
        <ele>87.62</ele>
        <time>2016-10-16T09:18:08Z</time>
      </trkpt>
      <trkpt lat="50.77953" lon="3.55398">
        <ele>87.62</ele>
        <time>2016-10-16T09:18:26Z</time>
      </trkpt>
      <trkpt lat="50.77953" lon="3.55397">
        <ele>87.62</ele>
        <time>2016-10-16T09:18:53Z</time>
      </trkpt>
      <trkpt lat="50.77953" lon="3.55399">
        <ele>87.62</ele>
        <time>2016-10-16T09:19:17Z</time>
      </trkpt>
      <trkpt lat="50.77953" lon="3.55399">
        <ele>88.58</ele>
        <time>2016-10-16T09:19:44Z</time>
      </trkpt>
      <trkpt lat="50.77952" lon="3.55397">
        <ele>88.58</ele>
        <time>2016-10-16T09:20:09Z</time>
      </trkpt>
      <trkpt lat="50.77951" lon="3.55395">
        <ele>88.58</ele>
        <time>2016-10-16T09:20:27Z</time>
      </trkpt>
      <trkpt lat="50.77951" lon="3.55394">
        <ele>88.58</ele>
        <time>2016-10-16T09:20:50Z</time>
      </trkpt>
      <trkpt lat="50.7795" lon="3.55396">
        <ele>87.14</ele>
        <time>2016-10-16T09:20:57Z</time>
      </trkpt>
      <trkpt lat="50.77951" lon="3.55395">
        <ele>88.1</ele>
        <time>2016-10-16T09:21:25Z</time>
      </trkpt>
      <trkpt lat="50.7795" lon="3.55396">
        <ele>88.1</ele>
        <time>2016-10-16T09:21:55Z</time>
      </trkpt>
      <trkpt lat="50.77951" lon="3.55395">
        <ele>88.1</ele>
        <time>2016-10-16T09:22:15Z</time>
      </trkpt>
      <trkpt lat="50.7795" lon="3.55396">
        <ele>88.58</ele>
        <time>2016-10-16T09:22:46Z</time>
      </trkpt>
      <trkpt lat="50.7795" lon="3.55398">
        <ele>88.58</ele>
        <time>2016-10-16T09:23:06Z</time>
      </trkpt>
      <trkpt lat="50.77949" lon="3.55398">
        <ele>87.14</ele>
        <time>2016-10-16T09:23:28Z</time>
      </trkpt>
      <trkpt lat="50.7795" lon="3.55397">
        <ele>87.62</ele>
        <time>2016-10-16T09:23:35Z</time>
      </trkpt>
      <trkpt lat="50.77951" lon="3.55397">
        <ele>88.1</ele>
        <time>2016-10-16T09:23:55Z</time>
      </trkpt>
      <trkpt lat="50.77951" lon="3.55397">
        <ele>86.66</ele>
        <time>2016-10-16T09:24:01Z</time>
      </trkpt>
      <trkpt lat="50.77951" lon="3.55397">
        <ele>88.1</ele>
        <time>2016-10-16T09:24:07Z</time>
      </trkpt>
      <trkpt lat="50.7795" lon="3.55397">
        <ele>86.66</ele>
        <time>2016-10-16T09:24:28Z</time>
      </trkpt>
      <trkpt lat="50.7795" lon="3.55399">
        <ele>86.66</ele>
        <time>2016-10-16T09:24:51Z</time>
      </trkpt>
      <trkpt lat="50.77951" lon="3.55398">
        <ele>86.66</ele>
        <time>2016-10-16T09:25:19Z</time>
      </trkpt>
      <trkpt lat="50.77951" lon="3.55397">
        <ele>88.1</ele>
        <time>2016-10-16T09:25:32Z</time>
      </trkpt>
      <trkpt lat="50.77952" lon="3.55398">
        <ele>88.58</ele>
        <time>2016-10-16T09:25:55Z</time>
      </trkpt>
      <trkpt lat="50.77952" lon="3.55398">
        <ele>87.14</ele>
        <time>2016-10-16T09:26:07Z</time>
      </trkpt>
      <trkpt lat="50.77952" lon="3.55398">
        <ele>87.14</ele>
        <time>2016-10-16T09:26:27Z</time>
      </trkpt>
      <trkpt lat="50.77952" lon="3.55397">
        <ele>87.14</ele>
        <time>2016-10-16T09:26:48Z</time>
      </trkpt>
      <trkpt lat="50.7795" lon="3.55397">
        <ele>87.14</ele>
        <time>2016-10-16T09:27:06Z</time>
      </trkpt>
      <trkpt lat="50.77951" lon="3.55396">
        <ele>87.14</ele>
        <time>2016-10-16T09:27:22Z</time>
      </trkpt>
      <trkpt lat="50.77952" lon="3.55399">
        <ele>87.14</ele>
        <time>2016-10-16T09:27:37Z</time>
      </trkpt>
      <trkpt lat="50.77953" lon="3.55399">
        <ele>87.14</ele>
        <time>2016-10-16T09:28:00Z</time>
      </trkpt>
      <trkpt lat="50.77951" lon="3.55397">
        <ele>88.58</ele>
        <time>2016-10-16T09:28:13Z</time>
      </trkpt>
      <trkpt lat="50.7795" lon="3.55397">
        <ele>88.58</ele>
        <time>2016-10-16T09:28:39Z</time>
      </trkpt>
      <trkpt lat="50.77955" lon="3.55397">
        <ele>87.14</ele>
        <time>2016-10-16T09:29:01Z</time>
      </trkpt>
      <trkpt lat="50.77953" lon="3.55399">
        <ele>87.14</ele>
        <time>2016-10-16T09:29:14Z</time>
      </trkpt>
      <trkpt lat="50.77953" lon="3.55398">
        <ele>87.14</ele>
        <time>2016-10-16T09:29:35Z</time>
      </trkpt>
      <trkpt lat="50.77953" lon="3.55402">
        <ele>87.62</ele>
        <time>2016-10-16T09:29:45Z</time>
      </trkpt>
      <trkpt lat="50.77955" lon="3.55404">
        <ele>88.1</ele>
        <time>2016-10-16T09:30:11Z</time>
      </trkpt>
      <trkpt lat="50.77951" lon="3.55397">
        <ele>88.1</ele>
        <time>2016-10-16T09:30:31Z</time>
      </trkpt>
      <trkpt lat="50.77951" lon="3.55397">
        <ele>86.66</ele>
        <time>2016-10-16T09:30:48Z</time>
      </trkpt>
      <trkpt lat="50.77952" lon="3.55397">
        <ele>86.66</ele>
        <time>2016-10-16T09:30:56Z</time>
      </trkpt>
      <trkpt lat="50.77955" lon="3.55399">
        <ele>86.66</ele>
        <time>2016-10-16T09:31:11Z</time>
      </trkpt>
      <trkpt lat="50.77955" lon="3.55397">
        <ele>86.66</ele>
        <time>2016-10-16T09:31:27Z</time>
      </trkpt>
      <trkpt lat="50.77954" lon="3.55398">
        <ele>86.66</ele>
        <time>2016-10-16T09:31:45Z</time>
      </trkpt>
      <trkpt lat="50.77955" lon="3.55398">
        <ele>86.66</ele>
        <time>2016-10-16T09:32:06Z</time>
      </trkpt>
      <trkpt lat="50.77954" lon="3.55399">
        <ele>86.66</ele>
        <time>2016-10-16T09:32:31Z</time>
      </trkpt>
      <trkpt lat="50.77954" lon="3.55398">
        <ele>89.06</ele>
        <time>2016-10-16T09:32:36Z</time>
      </trkpt>
      <trkpt lat="50.77954" lon="3.55398">
        <ele>87.62</ele>
        <time>2016-10-16T09:32:38Z</time>
      </trkpt>
      <trkpt lat="50.77954" lon="3.55397">
        <ele>87.14</ele>
        <time>2016-10-16T09:32:57Z</time>
      </trkpt>
      <trkpt lat="50.77954" lon="3.55396">
        <ele>87.14</ele>
        <time>2016-10-16T09:33:20Z</time>
      </trkpt>
      <trkpt lat="50.77951" lon="3.55394">
        <ele>85.21</ele>
        <time>2016-10-16T09:33:27Z</time>
      </trkpt>
      <trkpt lat="50.7795" lon="3.55395">
        <ele>87.14</ele>
        <time>2016-10-16T09:33:29Z</time>
      </trkpt>
      <trkpt lat="50.77949" lon="3.55401">
        <ele>85.21</ele>
        <time>2016-10-16T09:33:34Z</time>
      </trkpt>
      <trkpt lat="50.77949" lon="3.55401">
        <ele>86.18</ele>
        <time>2016-10-16T09:33:48Z</time>
      </trkpt>
      <trkpt lat="50.77949" lon="3.55401">
        <ele>85.69</ele>
        <time>2016-10-16T09:34:02Z</time>
      </trkpt>
      <trkpt lat="50.7795" lon="3.55393">
        <ele>87.14</ele>
        <time>2016-10-16T09:34:16Z</time>
      </trkpt>
      <trkpt lat="50.77953" lon="3.55386">
        <ele>87.62</ele>
        <time>2016-10-16T09:34:23Z</time>
      </trkpt>
      <trkpt lat="50.77959" lon="3.55351">
        <ele>87.14</ele>
        <time>2016-10-16T09:34:42Z</time>
      </trkpt>
      <trkpt lat="50.77965" lon="3.55318">
        <ele>86.18</ele>
        <time>2016-10-16T09:35:00Z</time>
      </trkpt>
      <trkpt lat="50.77973" lon="3.5528">
        <ele>85.69</ele>
        <time>2016-10-16T09:35:20Z</time>
      </trkpt>
      <trkpt lat="50.77979" lon="3.55245">
        <ele>84.73</ele>
        <time>2016-10-16T09:35:40Z</time>
      </trkpt>
      <trkpt lat="50.77986" lon="3.5521">
        <ele>84.25</ele>
        <time>2016-10-16T09:35:58Z</time>
      </trkpt>
      <trkpt lat="50.77994" lon="3.5517">
        <ele>83.29</ele>
        <time>2016-10-16T09:36:19Z</time>
      </trkpt>
      <trkpt lat="50.78" lon="3.55136">
        <ele>82.33</ele>
        <time>2016-10-16T09:36:37Z</time>
      </trkpt>
      <trkpt lat="50.78007" lon="3.551">
        <ele>80.89</ele>
        <time>2016-10-16T09:36:57Z</time>
      </trkpt>
      <trkpt lat="50.78009" lon="3.55086">
        <ele>80.41</ele>
        <time>2016-10-16T09:37:06Z</time>
      </trkpt>
      <trkpt lat="50.78016" lon="3.55051">
        <ele>78.48</ele>
        <time>2016-10-16T09:37:25Z</time>
      </trkpt>
      <trkpt lat="50.78028" lon="3.55032">
        <ele>78</ele>
        <time>2016-10-16T09:37:40Z</time>
      </trkpt>
      <trkpt lat="50.78029" lon="3.55031">
        <ele>78</ele>
        <time>2016-10-16T09:37:41Z</time>
      </trkpt>
      <trkpt lat="50.78026" lon="3.55009">
        <ele>76.56</ele>
        <time>2016-10-16T09:37:55Z</time>
      </trkpt>
      <trkpt lat="50.78023" lon="3.54987">
        <ele>74.16</ele>
        <time>2016-10-16T09:38:08Z</time>
      </trkpt>
      <trkpt lat="50.78017" lon="3.54954">
        <ele>72.24</ele>
        <time>2016-10-16T09:38:26Z</time>
      </trkpt>
      <trkpt lat="50.78012" lon="3.54917">
        <ele>69.35</ele>
        <time>2016-10-16T09:38:45Z</time>
      </trkpt>
      <trkpt lat="50.7801" lon="3.5489">
        <ele>66.47</ele>
        <time>2016-10-16T09:39:00Z</time>
      </trkpt>
      <trkpt lat="50.78008" lon="3.54863">
        <ele>63.58</ele>
        <time>2016-10-16T09:39:18Z</time>
      </trkpt>
      <trkpt lat="50.78009" lon="3.54861">
        <ele>63.58</ele>
        <time>2016-10-16T09:39:20Z</time>
      </trkpt>
      <trkpt lat="50.78011" lon="3.54836">
        <ele>61.66</ele>
        <time>2016-10-16T09:39:35Z</time>
      </trkpt>
      <trkpt lat="50.78011" lon="3.54807">
        <ele>59.74</ele>
        <time>2016-10-16T09:39:51Z</time>
      </trkpt>
      <trkpt lat="50.78013" lon="3.54778">
        <ele>57.82</ele>
        <time>2016-10-16T09:40:07Z</time>
      </trkpt>
      <trkpt lat="50.78014" lon="3.54748">
        <ele>55.89</ele>
        <time>2016-10-16T09:40:24Z</time>
      </trkpt>
      <trkpt lat="50.78014" lon="3.54723">
        <ele>54.45</ele>
        <time>2016-10-16T09:40:38Z</time>
      </trkpt>
      <trkpt lat="50.78015" lon="3.54699">
        <ele>53.01</ele>
        <time>2016-10-16T09:40:52Z</time>
      </trkpt>
      <trkpt lat="50.78016" lon="3.54675">
        <ele>50.13</ele>
        <time>2016-10-16T09:41:07Z</time>
      </trkpt>
      <trkpt lat="50.78016" lon="3.54654">
        <ele>47.24</ele>
        <time>2016-10-16T09:41:23Z</time>
      </trkpt>
      <trkpt lat="50.78016" lon="3.54636">
        <ele>44.84</ele>
        <time>2016-10-16T09:41:36Z</time>
      </trkpt>
      <trkpt lat="50.78015" lon="3.54612">
        <ele>41.95</ele>
        <time>2016-10-16T09:41:52Z</time>
      </trkpt>
      <trkpt lat="50.78015" lon="3.54585">
        <ele>40.03</ele>
        <time>2016-10-16T09:42:07Z</time>
      </trkpt>
      <trkpt lat="50.7801" lon="3.54564">
        <ele>37.63</ele>
        <time>2016-10-16T09:42:23Z</time>
      </trkpt>
      <trkpt lat="50.78005" lon="3.5455">
        <ele>36.19</ele>
        <time>2016-10-16T09:42:33Z</time>
      </trkpt>
      <trkpt lat="50.77989" lon="3.54514">
        <ele>34.74</ele>
        <time>2016-10-16T09:42:55Z</time>
      </trkpt>
      <trkpt lat="50.77984" lon="3.54482">
        <ele>36.19</ele>
        <time>2016-10-16T09:43:10Z</time>
      </trkpt>
      <trkpt lat="50.77982" lon="3.54469">
        <ele>36.19</ele>
        <time>2016-10-16T09:43:17Z</time>
      </trkpt>
      <trkpt lat="50.77982" lon="3.54465">
        <ele>36.67</ele>
        <time>2016-10-16T09:43:19Z</time>
      </trkpt>
      <trkpt lat="50.7798" lon="3.54437">
        <ele>36.67</ele>
        <time>2016-10-16T09:43:35Z</time>
      </trkpt>
      <trkpt lat="50.77979" lon="3.54436">
        <ele>36.67</ele>
        <time>2016-10-16T09:43:36Z</time>
      </trkpt>
      <trkpt lat="50.77973" lon="3.54431">
        <ele>37.15</ele>
        <time>2016-10-16T09:43:45Z</time>
      </trkpt>
      <trkpt lat="50.77958" lon="3.54437">
        <ele>37.63</ele>
        <time>2016-10-16T09:43:59Z</time>
      </trkpt>
      <trkpt lat="50.77934" lon="3.54451">
        <ele>40.03</ele>
        <time>2016-10-16T09:44:19Z</time>
      </trkpt>
      <trkpt lat="50.77906" lon="3.5447">
        <ele>41.47</ele>
        <time>2016-10-16T09:44:42Z</time>
      </trkpt>
      <trkpt lat="50.77884" lon="3.54488">
        <ele>41.95</ele>
        <time>2016-10-16T09:45:02Z</time>
      </trkpt>
      <trkpt lat="50.77864" lon="3.54505">
        <ele>43.4</ele>
        <time>2016-10-16T09:45:20Z</time>
      </trkpt>
      <trkpt lat="50.77843" lon="3.54526">
        <ele>44.84</ele>
        <time>2016-10-16T09:45:42Z</time>
      </trkpt>
      <trkpt lat="50.77825" lon="3.54543">
        <ele>45.8</ele>
        <time>2016-10-16T09:45:59Z</time>
      </trkpt>
      <trkpt lat="50.77807" lon="3.5456">
        <ele>48.2</ele>
        <time>2016-10-16T09:46:17Z</time>
      </trkpt>
      <trkpt lat="50.77789" lon="3.54578">
        <ele>50.13</ele>
        <time>2016-10-16T09:46:35Z</time>
      </trkpt>
      <trkpt lat="50.7777" lon="3.54594">
        <ele>51.57</ele>
        <time>2016-10-16T09:46:53Z</time>
      </trkpt>
      <trkpt lat="50.77765" lon="3.54597">
        <ele>52.05</ele>
        <time>2016-10-16T09:46:58Z</time>
      </trkpt>
      <trkpt lat="50.77759" lon="3.54591">
        <ele>52.53</ele>
        <time>2016-10-16T09:47:06Z</time>
      </trkpt>
      <trkpt lat="50.77753" lon="3.54568">
        <ele>53.49</ele>
        <time>2016-10-16T09:47:22Z</time>
      </trkpt>
      <trkpt lat="50.77749" lon="3.54545">
        <ele>53.49</ele>
        <time>2016-10-16T09:47:37Z</time>
      </trkpt>
      <trkpt lat="50.77745" lon="3.54528">
        <ele>53.49</ele>
        <time>2016-10-16T09:47:52Z</time>
      </trkpt>
      <trkpt lat="50.77742" lon="3.54511">
        <ele>52.05</ele>
        <time>2016-10-16T09:48:05Z</time>
      </trkpt>
      <trkpt lat="50.77739" lon="3.54488">
        <ele>50.61</ele>
        <time>2016-10-16T09:48:20Z</time>
      </trkpt>
      <trkpt lat="50.77737" lon="3.54475">
        <ele>50.13</ele>
        <time>2016-10-16T09:48:28Z</time>
      </trkpt>
      <trkpt lat="50.77733" lon="3.54447">
        <ele>49.16</ele>
        <time>2016-10-16T09:48:47Z</time>
      </trkpt>
      <trkpt lat="50.77731" lon="3.54432">
        <ele>48.2</ele>
        <time>2016-10-16T09:49:00Z</time>
      </trkpt>
      <trkpt lat="50.77726" lon="3.54406">
        <ele>46.76</ele>
        <time>2016-10-16T09:49:17Z</time>
      </trkpt>
      <trkpt lat="50.7772" lon="3.54385">
        <ele>45.32</ele>
        <time>2016-10-16T09:49:31Z</time>
      </trkpt>
      <trkpt lat="50.77714" lon="3.54368">
        <ele>42.92</ele>
        <time>2016-10-16T09:49:45Z</time>
      </trkpt>
      <trkpt lat="50.77708" lon="3.54349">
        <ele>40.51</ele>
        <time>2016-10-16T09:50:01Z</time>
      </trkpt>
      <trkpt lat="50.77699" lon="3.54319">
        <ele>39.07</ele>
        <time>2016-10-16T09:50:18Z</time>
      </trkpt>
      <trkpt lat="50.77696" lon="3.54312">
        <ele>39.07</ele>
        <time>2016-10-16T09:50:22Z</time>
      </trkpt>
      <trkpt lat="50.77688" lon="3.54279">
        <ele>39.07</ele>
        <time>2016-10-16T09:50:39Z</time>
      </trkpt>
      <trkpt lat="50.77686" lon="3.54272">
        <ele>39.07</ele>
        <time>2016-10-16T09:50:43Z</time>
      </trkpt>
      <trkpt lat="50.77674" lon="3.54238">
        <ele>40.51</ele>
        <time>2016-10-16T09:51:02Z</time>
      </trkpt>
      <trkpt lat="50.77665" lon="3.54204">
        <ele>42.92</ele>
        <time>2016-10-16T09:51:21Z</time>
      </trkpt>
      <trkpt lat="50.77654" lon="3.54171">
        <ele>42.92</ele>
        <time>2016-10-16T09:51:41Z</time>
      </trkpt>
      <trkpt lat="50.77643" lon="3.54134">
        <ele>43.88</ele>
        <time>2016-10-16T09:52:03Z</time>
      </trkpt>
      <trkpt lat="50.77634" lon="3.54105">
        <ele>44.84</ele>
        <time>2016-10-16T09:52:20Z</time>
      </trkpt>
      <trkpt lat="50.77625" lon="3.54076">
        <ele>47.24</ele>
        <time>2016-10-16T09:52:38Z</time>
      </trkpt>
      <trkpt lat="50.77624" lon="3.54071">
        <ele>47.24</ele>
        <time>2016-10-16T09:52:42Z</time>
      </trkpt>
      <trkpt lat="50.77613" lon="3.5404">
        <ele>48.68</ele>
        <time>2016-10-16T09:53:02Z</time>
      </trkpt>
      <trkpt lat="50.77607" lon="3.54018">
        <ele>49.65</ele>
        <time>2016-10-16T09:53:17Z</time>
      </trkpt>
      <trkpt lat="50.77597" lon="3.53996">
        <ele>51.57</ele>
        <time>2016-10-16T09:53:34Z</time>
      </trkpt>
      <trkpt lat="50.77596" lon="3.53992">
        <ele>52.05</ele>
        <time>2016-10-16T09:53:37Z</time>
      </trkpt>
      <trkpt lat="50.77588" lon="3.53971">
        <ele>53.01</ele>
        <time>2016-10-16T09:53:53Z</time>
      </trkpt>
      <trkpt lat="50.77587" lon="3.53969">
        <ele>53.01</ele>
        <time>2016-10-16T09:53:54Z</time>
      </trkpt>
      <trkpt lat="50.77587" lon="3.53941">
        <ele>53.01</ele>
        <time>2016-10-16T09:54:11Z</time>
      </trkpt>
      <trkpt lat="50.77587" lon="3.53939">
        <ele>53.01</ele>
        <time>2016-10-16T09:54:12Z</time>
      </trkpt>
      <trkpt lat="50.77588" lon="3.53909">
        <ele>51.57</ele>
        <time>2016-10-16T09:54:30Z</time>
      </trkpt>
      <trkpt lat="50.77587" lon="3.53876">
        <ele>50.61</ele>
        <time>2016-10-16T09:54:48Z</time>
      </trkpt>
      <trkpt lat="50.77586" lon="3.53841">
        <ele>48.68</ele>
        <time>2016-10-16T09:55:07Z</time>
      </trkpt>
      <trkpt lat="50.77587" lon="3.53809">
        <ele>47.24</ele>
        <time>2016-10-16T09:55:23Z</time>
      </trkpt>
      <trkpt lat="50.77588" lon="3.53778">
        <ele>44.36</ele>
        <time>2016-10-16T09:55:40Z</time>
      </trkpt>
      <trkpt lat="50.7759" lon="3.53747">
        <ele>43.4</ele>
        <time>2016-10-16T09:55:57Z</time>
      </trkpt>
      <trkpt lat="50.77592" lon="3.53715">
        <ele>42.92</ele>
        <time>2016-10-16T09:56:12Z</time>
      </trkpt>
      <trkpt lat="50.77594" lon="3.53677">
        <ele>44.36</ele>
        <time>2016-10-16T09:56:31Z</time>
      </trkpt>
      <trkpt lat="50.77602" lon="3.53654">
        <ele>45.32</ele>
        <time>2016-10-16T09:56:46Z</time>
      </trkpt>
      <trkpt lat="50.77605" lon="3.53647">
        <ele>47.24</ele>
        <time>2016-10-16T09:57:01Z</time>
      </trkpt>
      <trkpt lat="50.77607" lon="3.53646">
        <ele>47.24</ele>
        <time>2016-10-16T09:57:23Z</time>
      </trkpt>
      <trkpt lat="50.77606" lon="3.53645">
        <ele>47.24</ele>
        <time>2016-10-16T09:57:48Z</time>
      </trkpt>
      <trkpt lat="50.77606" lon="3.53645">
        <ele>47.24</ele>
        <time>2016-10-16T09:58:13Z</time>
      </trkpt>
      <trkpt lat="50.77606" lon="3.53646">
        <ele>47.24</ele>
        <time>2016-10-16T09:58:39Z</time>
      </trkpt>
      <trkpt lat="50.77605" lon="3.53646">
        <ele>47.24</ele>
        <time>2016-10-16T09:59:03Z</time>
      </trkpt>
      <trkpt lat="50.77607" lon="3.53646">
        <ele>46.76</ele>
        <time>2016-10-16T09:59:22Z</time>
      </trkpt>
      <trkpt lat="50.77608" lon="3.53646">
        <ele>46.76</ele>
        <time>2016-10-16T09:59:40Z</time>
      </trkpt>
      <trkpt lat="50.77608" lon="3.53646">
        <ele>47.24</ele>
        <time>2016-10-16T10:00:04Z</time>
      </trkpt>
      <trkpt lat="50.77607" lon="3.53646">
        <ele>46.76</ele>
        <time>2016-10-16T10:00:33Z</time>
      </trkpt>
      <trkpt lat="50.77607" lon="3.53646">
        <ele>46.76</ele>
        <time>2016-10-16T10:01:02Z</time>
      </trkpt>
      <trkpt lat="50.77605" lon="3.53645">
        <ele>47.24</ele>
        <time>2016-10-16T10:01:17Z</time>
      </trkpt>
      <trkpt lat="50.77604" lon="3.53644">
        <ele>47.24</ele>
        <time>2016-10-16T10:01:44Z</time>
      </trkpt>
      <trkpt lat="50.77603" lon="3.53644">
        <ele>47.24</ele>
        <time>2016-10-16T10:02:07Z</time>
      </trkpt>
      <trkpt lat="50.77604" lon="3.53644">
        <ele>47.24</ele>
        <time>2016-10-16T10:02:36Z</time>
      </trkpt>
      <trkpt lat="50.77603" lon="3.53643">
        <ele>47.24</ele>
        <time>2016-10-16T10:03:10Z</time>
      </trkpt>
      <trkpt lat="50.77604" lon="3.53641">
        <ele>47.24</ele>
        <time>2016-10-16T10:03:32Z</time>
      </trkpt>
      <trkpt lat="50.77604" lon="3.53643">
        <ele>47.24</ele>
        <time>2016-10-16T10:03:51Z</time>
      </trkpt>
      <trkpt lat="50.77604" lon="3.5364">
        <ele>47.24</ele>
        <time>2016-10-16T10:04:19Z</time>
      </trkpt>
      <trkpt lat="50.77601" lon="3.53654">
        <ele>47.24</ele>
        <time>2016-10-16T10:04:36Z</time>
      </trkpt>
      <trkpt lat="50.77598" lon="3.53659">
        <ele>46.28</ele>
        <time>2016-10-16T10:04:42Z</time>
      </trkpt>
      <trkpt lat="50.77593" lon="3.53662">
        <ele>45.8</ele>
        <time>2016-10-16T10:05:01Z</time>
      </trkpt>
      <trkpt lat="50.77589" lon="3.53665">
        <ele>45.8</ele>
        <time>2016-10-16T10:05:16Z</time>
      </trkpt>
      <trkpt lat="50.77589" lon="3.53664">
        <ele>45.8</ele>
        <time>2016-10-16T10:05:41Z</time>
      </trkpt>
      <trkpt lat="50.77589" lon="3.53665">
        <ele>45.8</ele>
        <time>2016-10-16T10:06:05Z</time>
      </trkpt>
      <trkpt lat="50.77589" lon="3.53664">
        <ele>45.8</ele>
        <time>2016-10-16T10:06:17Z</time>
      </trkpt>
      <trkpt lat="50.77588" lon="3.53664">
        <ele>45.8</ele>
        <time>2016-10-16T10:06:35Z</time>
      </trkpt>
      <trkpt lat="50.77588" lon="3.53664">
        <ele>45.8</ele>
        <time>2016-10-16T10:06:49Z</time>
      </trkpt>
      <trkpt lat="50.77586" lon="3.53663">
        <ele>45.8</ele>
        <time>2016-10-16T10:07:04Z</time>
      </trkpt>
      <trkpt lat="50.77587" lon="3.53664">
        <ele>45.8</ele>
        <time>2016-10-16T10:07:26Z</time>
      </trkpt>
      <trkpt lat="50.77591" lon="3.53663">
        <ele>45.8</ele>
        <time>2016-10-16T10:07:31Z</time>
      </trkpt>
      <trkpt lat="50.776" lon="3.53655">
        <ele>47.24</ele>
        <time>2016-10-16T10:07:46Z</time>
      </trkpt>
      <trkpt lat="50.77602" lon="3.53653">
        <ele>47.24</ele>
        <time>2016-10-16T10:08:00Z</time>
      </trkpt>
      <trkpt lat="50.77602" lon="3.5365">
        <ele>47.72</ele>
        <time>2016-10-16T10:08:29Z</time>
      </trkpt>
      <trkpt lat="50.77597" lon="3.5366">
        <ele>47.72</ele>
        <time>2016-10-16T10:08:41Z</time>
      </trkpt>
      <trkpt lat="50.77592" lon="3.53665">
        <ele>47.72</ele>
        <time>2016-10-16T10:08:48Z</time>
      </trkpt>
      <trkpt lat="50.77586" lon="3.53662">
        <ele>45.8</ele>
        <time>2016-10-16T10:09:04Z</time>
      </trkpt>
      <trkpt lat="50.77586" lon="3.53663">
        <ele>47.24</ele>
        <time>2016-10-16T10:09:24Z</time>
      </trkpt>
      <trkpt lat="50.77587" lon="3.53665">
        <ele>47.24</ele>
        <time>2016-10-16T10:09:45Z</time>
      </trkpt>
      <trkpt lat="50.77588" lon="3.53663">
        <ele>47.24</ele>
        <time>2016-10-16T10:10:04Z</time>
      </trkpt>
      <trkpt lat="50.77588" lon="3.53664">
        <ele>47.72</ele>
        <time>2016-10-16T10:10:17Z</time>
      </trkpt>
      <trkpt lat="50.77586" lon="3.53666">
        <ele>47.72</ele>
        <time>2016-10-16T10:10:36Z</time>
      </trkpt>
      <trkpt lat="50.77589" lon="3.53665">
        <ele>47.72</ele>
        <time>2016-10-16T10:10:56Z</time>
      </trkpt>
      <trkpt lat="50.77596" lon="3.5366">
        <ele>47.72</ele>
        <time>2016-10-16T10:11:05Z</time>
      </trkpt>
      <trkpt lat="50.77605" lon="3.53645">
        <ele>47.72</ele>
        <time>2016-10-16T10:11:22Z</time>
      </trkpt>
      <trkpt lat="50.77606" lon="3.53645">
        <ele>47.72</ele>
        <time>2016-10-16T10:11:49Z</time>
      </trkpt>
      <trkpt lat="50.77606" lon="3.53645">
        <ele>47.72</ele>
        <time>2016-10-16T10:12:10Z</time>
      </trkpt>
      <trkpt lat="50.77606" lon="3.53645">
        <ele>48.2</ele>
        <time>2016-10-16T10:12:33Z</time>
      </trkpt>
      <trkpt lat="50.77605" lon="3.5365">
        <ele>47.72</ele>
        <time>2016-10-16T10:12:53Z</time>
      </trkpt>
      <trkpt lat="50.77603" lon="3.53651">
        <ele>47.72</ele>
        <time>2016-10-16T10:13:15Z</time>
      </trkpt>
      <trkpt lat="50.77603" lon="3.5365">
        <ele>47.72</ele>
        <time>2016-10-16T10:13:41Z</time>
      </trkpt>
      <trkpt lat="50.77603" lon="3.53649">
        <ele>48.68</ele>
        <time>2016-10-16T10:14:02Z</time>
      </trkpt>
      <trkpt lat="50.77604" lon="3.53647">
        <ele>48.68</ele>
        <time>2016-10-16T10:14:25Z</time>
      </trkpt>
      <trkpt lat="50.77604" lon="3.53645">
        <ele>48.68</ele>
        <time>2016-10-16T10:14:27Z</time>
      </trkpt>
      <trkpt lat="50.776" lon="3.53619">
        <ele>49.16</ele>
        <time>2016-10-16T10:14:43Z</time>
      </trkpt>
      <trkpt lat="50.77591" lon="3.53584">
        <ele>51.09</ele>
        <time>2016-10-16T10:15:02Z</time>
      </trkpt>
      <trkpt lat="50.77583" lon="3.53555">
        <ele>52.05</ele>
        <time>2016-10-16T10:15:19Z</time>
      </trkpt>
      <trkpt lat="50.77573" lon="3.53526">
        <ele>53.49</ele>
        <time>2016-10-16T10:15:36Z</time>
      </trkpt>
      <trkpt lat="50.77566" lon="3.53501">
        <ele>53.97</ele>
        <time>2016-10-16T10:15:51Z</time>
      </trkpt>
      <trkpt lat="50.77557" lon="3.53463">
        <ele>55.41</ele>
        <time>2016-10-16T10:16:11Z</time>
      </trkpt>
      <trkpt lat="50.77554" lon="3.53425">
        <ele>55.89</ele>
        <time>2016-10-16T10:16:30Z</time>
      </trkpt>
      <trkpt lat="50.77555" lon="3.53391">
        <ele>56.86</ele>
        <time>2016-10-16T10:16:47Z</time>
      </trkpt>
      <trkpt lat="50.77554" lon="3.53366">
        <ele>57.82</ele>
        <time>2016-10-16T10:17:03Z</time>
      </trkpt>
      <trkpt lat="50.77553" lon="3.53335">
        <ele>58.78</ele>
        <time>2016-10-16T10:17:20Z</time>
      </trkpt>
      <trkpt lat="50.77554" lon="3.53304">
        <ele>61.18</ele>
        <time>2016-10-16T10:17:38Z</time>
      </trkpt>
      <trkpt lat="50.77556" lon="3.53274">
        <ele>62.62</ele>
        <time>2016-10-16T10:17:55Z</time>
      </trkpt>
      <trkpt lat="50.77558" lon="3.53251">
        <ele>64.55</ele>
        <time>2016-10-16T10:18:11Z</time>
      </trkpt>
      <trkpt lat="50.77563" lon="3.53221">
        <ele>67.43</ele>
        <time>2016-10-16T10:18:29Z</time>
      </trkpt>
      <trkpt lat="50.77569" lon="3.532">
        <ele>69.35</ele>
        <time>2016-10-16T10:18:43Z</time>
      </trkpt>
      <trkpt lat="50.77577" lon="3.53179">
        <ele>72.24</ele>
        <time>2016-10-16T10:18:57Z</time>
      </trkpt>
      <trkpt lat="50.77585" lon="3.53158">
        <ele>74.64</ele>
        <time>2016-10-16T10:19:13Z</time>
      </trkpt>
      <trkpt lat="50.77599" lon="3.53136">
        <ele>76.08</ele>
        <time>2016-10-16T10:19:30Z</time>
      </trkpt>
      <trkpt lat="50.7762" lon="3.53113">
        <ele>78</ele>
        <time>2016-10-16T10:19:51Z</time>
      </trkpt>
      <trkpt lat="50.77637" lon="3.53095">
        <ele>77.52</ele>
        <time>2016-10-16T10:20:08Z</time>
      </trkpt>
      <trkpt lat="50.77637" lon="3.53095">
        <ele>77.04</ele>
        <time>2016-10-16T10:20:16Z</time>
      </trkpt>
      <trkpt lat="50.77637" lon="3.53095">
        <ele>78</ele>
        <time>2016-10-16T10:20:18Z</time>
      </trkpt>
      <trkpt lat="50.77637" lon="3.53095">
        <ele>78</ele>
        <time>2016-10-16T10:20:20Z</time>
      </trkpt>
      <trkpt lat="50.77648" lon="3.53082">
        <ele>78</ele>
        <time>2016-10-16T10:20:37Z</time>
      </trkpt>
      <trkpt lat="50.77661" lon="3.5307">
        <ele>78.48</ele>
        <time>2016-10-16T10:20:52Z</time>
      </trkpt>
      <trkpt lat="50.77669" lon="3.5306">
        <ele>78.97</ele>
        <time>2016-10-16T10:21:06Z</time>
      </trkpt>
      <trkpt lat="50.77686" lon="3.53042">
        <ele>72.72</ele>
        <time>2016-10-16T10:21:22Z</time>
      </trkpt>
      <trkpt lat="50.77687" lon="3.53041">
        <ele>78.97</ele>
        <time>2016-10-16T10:21:23Z</time>
      </trkpt>
      <trkpt lat="50.77693" lon="3.53035">
        <ele>74.16</ele>
        <time>2016-10-16T10:21:29Z</time>
      </trkpt>
      <trkpt lat="50.77694" lon="3.53034">
        <ele>80.41</ele>
        <time>2016-10-16T10:21:30Z</time>
      </trkpt>
      <trkpt lat="50.77709" lon="3.5302">
        <ele>79.45</ele>
        <time>2016-10-16T10:21:43Z</time>
      </trkpt>
      <trkpt lat="50.77726" lon="3.52999">
        <ele>79.45</ele>
        <time>2016-10-16T10:22:01Z</time>
      </trkpt>
      <trkpt lat="50.77735" lon="3.5299">
        <ele>78.97</ele>
        <time>2016-10-16T10:22:10Z</time>
      </trkpt>
      <trkpt lat="50.77735" lon="3.52978">
        <ele>78.97</ele>
        <time>2016-10-16T10:22:16Z</time>
      </trkpt>
      <trkpt lat="50.77726" lon="3.5294">
        <ele>80.41</ele>
        <time>2016-10-16T10:22:36Z</time>
      </trkpt>
      <trkpt lat="50.77722" lon="3.52926">
        <ele>81.37</ele>
        <time>2016-10-16T10:22:49Z</time>
      </trkpt>
      <trkpt lat="50.7771" lon="3.5289">
        <ele>81.37</ele>
        <time>2016-10-16T10:23:08Z</time>
      </trkpt>
      <trkpt lat="50.77703" lon="3.5286">
        <ele>81.85</ele>
        <time>2016-10-16T10:23:25Z</time>
      </trkpt>
      <trkpt lat="50.77693" lon="3.52829">
        <ele>82.33</ele>
        <time>2016-10-16T10:23:42Z</time>
      </trkpt>
      <trkpt lat="50.77682" lon="3.528">
        <ele>84.25</ele>
        <time>2016-10-16T10:23:58Z</time>
      </trkpt>
      <trkpt lat="50.77673" lon="3.52772">
        <ele>83.77</ele>
        <time>2016-10-16T10:24:13Z</time>
      </trkpt>
      <trkpt lat="50.77666" lon="3.52736">
        <ele>83.77</ele>
        <time>2016-10-16T10:24:32Z</time>
      </trkpt>
      <trkpt lat="50.77662" lon="3.52711">
        <ele>83.77</ele>
        <time>2016-10-16T10:24:45Z</time>
      </trkpt>
      <trkpt lat="50.77663" lon="3.52685">
        <ele>84.25</ele>
        <time>2016-10-16T10:25:02Z</time>
      </trkpt>
      <trkpt lat="50.77663" lon="3.52684">
        <ele>84.25</ele>
        <time>2016-10-16T10:25:16Z</time>
      </trkpt>
      <trkpt lat="50.77664" lon="3.52669">
        <ele>82.81</ele>
        <time>2016-10-16T10:25:25Z</time>
      </trkpt>
      <trkpt lat="50.77668" lon="3.52637">
        <ele>82.33</ele>
        <time>2016-10-16T10:25:41Z</time>
      </trkpt>
      <trkpt lat="50.77671" lon="3.52612">
        <ele>82.33</ele>
        <time>2016-10-16T10:25:58Z</time>
      </trkpt>
      <trkpt lat="50.77672" lon="3.52603">
        <ele>82.33</ele>
        <time>2016-10-16T10:26:14Z</time>
      </trkpt>
      <trkpt lat="50.77671" lon="3.52573">
        <ele>81.85</ele>
        <time>2016-10-16T10:26:31Z</time>
      </trkpt>
      <trkpt lat="50.77668" lon="3.52561">
        <ele>81.37</ele>
        <time>2016-10-16T10:26:45Z</time>
      </trkpt>
      <trkpt lat="50.77664" lon="3.52558">
        <ele>81.37</ele>
        <time>2016-10-16T10:26:59Z</time>
      </trkpt>
      <trkpt lat="50.77662" lon="3.52559">
        <ele>81.37</ele>
        <time>2016-10-16T10:27:14Z</time>
      </trkpt>
      <trkpt lat="50.77665" lon="3.52558">
        <ele>81.37</ele>
        <time>2016-10-16T10:27:33Z</time>
      </trkpt>
      <trkpt lat="50.77666" lon="3.52559">
        <ele>81.37</ele>
        <time>2016-10-16T10:27:58Z</time>
      </trkpt>
      <trkpt lat="50.77662" lon="3.5256">
        <ele>81.37</ele>
        <time>2016-10-16T10:28:20Z</time>
      </trkpt>
      <trkpt lat="50.77662" lon="3.52562">
        <ele>80.89</ele>
        <time>2016-10-16T10:28:46Z</time>
      </trkpt>
      <trkpt lat="50.77661" lon="3.52564">
        <ele>80.89</ele>
        <time>2016-10-16T10:29:03Z</time>
      </trkpt>
      <trkpt lat="50.77661" lon="3.52565">
        <ele>82.33</ele>
        <time>2016-10-16T10:29:07Z</time>
      </trkpt>
      <trkpt lat="50.77649" lon="3.52569">
        <ele>82.33</ele>
        <time>2016-10-16T10:29:21Z</time>
      </trkpt>
      <trkpt lat="50.77635" lon="3.52574">
        <ele>82.81</ele>
        <time>2016-10-16T10:29:33Z</time>
      </trkpt>
      <trkpt lat="50.77619" lon="3.5258">
        <ele>83.29</ele>
        <time>2016-10-16T10:29:48Z</time>
      </trkpt>
      <trkpt lat="50.77598" lon="3.52589">
        <ele>82.81</ele>
        <time>2016-10-16T10:30:05Z</time>
      </trkpt>
      <trkpt lat="50.7758" lon="3.52595">
        <ele>82.81</ele>
        <time>2016-10-16T10:30:20Z</time>
      </trkpt>
      <trkpt lat="50.77561" lon="3.52602">
        <ele>82.81</ele>
        <time>2016-10-16T10:30:36Z</time>
      </trkpt>
      <trkpt lat="50.77547" lon="3.52606">
        <ele>82.81</ele>
        <time>2016-10-16T10:30:49Z</time>
      </trkpt>
      <trkpt lat="50.77539" lon="3.52592">
        <ele>82.33</ele>
        <time>2016-10-16T10:31:01Z</time>
      </trkpt>
      <trkpt lat="50.77527" lon="3.52568">
        <ele>82.33</ele>
        <time>2016-10-16T10:31:16Z</time>
      </trkpt>
      <trkpt lat="50.77519" lon="3.52541">
        <ele>81.85</ele>
        <time>2016-10-16T10:31:32Z</time>
      </trkpt>
      <trkpt lat="50.77515" lon="3.5252">
        <ele>81.37</ele>
        <time>2016-10-16T10:31:48Z</time>
      </trkpt>
      <trkpt lat="50.77511" lon="3.52522">
        <ele>81.37</ele>
        <time>2016-10-16T10:32:02Z</time>
      </trkpt>
      <trkpt lat="50.77508" lon="3.52522">
        <ele>81.37</ele>
        <time>2016-10-16T10:32:17Z</time>
      </trkpt>
      <trkpt lat="50.7751" lon="3.52506">
        <ele>81.37</ele>
        <time>2016-10-16T10:32:32Z</time>
      </trkpt>
      <trkpt lat="50.77513" lon="3.52504">
        <ele>81.37</ele>
        <time>2016-10-16T10:32:50Z</time>
      </trkpt>
      <trkpt lat="50.77515" lon="3.52496">
        <ele>81.37</ele>
        <time>2016-10-16T10:33:09Z</time>
      </trkpt>
      <trkpt lat="50.77477" lon="3.52524">
        <ele>82.33</ele>
        <time>2016-10-16T10:34:01Z</time>
      </trkpt>
      <trkpt lat="50.77479" lon="3.52528">
        <ele>80.89</ele>
        <time>2016-10-16T10:34:16Z</time>
      </trkpt>
      <trkpt lat="50.7748" lon="3.52545">
        <ele>80.89</ele>
        <time>2016-10-16T10:34:55Z</time>
      </trkpt>
      <trkpt lat="50.77475" lon="3.52531">
        <ele>80.89</ele>
        <time>2016-10-16T10:35:16Z</time>
      </trkpt>
      <trkpt lat="50.77469" lon="3.52518">
        <ele>82.33</ele>
        <time>2016-10-16T10:35:34Z</time>
      </trkpt>
      <trkpt lat="50.77472" lon="3.52523">
        <ele>82.33</ele>
        <time>2016-10-16T10:35:40Z</time>
      </trkpt>
      <trkpt lat="50.77492" lon="3.52547">
        <ele>82.33</ele>
        <time>2016-10-16T10:35:59Z</time>
      </trkpt>
      <trkpt lat="50.77488" lon="3.52538">
        <ele>82.33</ele>
        <time>2016-10-16T10:36:21Z</time>
      </trkpt>
      <trkpt lat="50.77494" lon="3.52547">
        <ele>82.33</ele>
        <time>2016-10-16T10:36:42Z</time>
      </trkpt>
      <trkpt lat="50.77477" lon="3.52532">
        <ele>82.33</ele>
        <time>2016-10-16T10:37:02Z</time>
      </trkpt>
      <trkpt lat="50.77474" lon="3.52529">
        <ele>82.33</ele>
        <time>2016-10-16T10:37:21Z</time>
      </trkpt>
      <trkpt lat="50.77474" lon="3.52529">
        <ele>82.33</ele>
        <time>2016-10-16T10:37:51Z</time>
      </trkpt>
      <trkpt lat="50.77472" lon="3.52533">
        <ele>82.33</ele>
        <time>2016-10-16T10:38:18Z</time>
      </trkpt>
      <trkpt lat="50.77475" lon="3.52528">
        <ele>82.33</ele>
        <time>2016-10-16T10:38:46Z</time>
      </trkpt>
      <trkpt lat="50.77476" lon="3.52538">
        <ele>82.33</ele>
        <time>2016-10-16T10:39:16Z</time>
      </trkpt>
      <trkpt lat="50.77479" lon="3.52554">
        <ele>82.33</ele>
        <time>2016-10-16T10:39:46Z</time>
      </trkpt>
      <trkpt lat="50.7748" lon="3.52556">
        <ele>82.33</ele>
        <time>2016-10-16T10:39:49Z</time>
      </trkpt>
      <trkpt lat="50.77474" lon="3.52535">
        <ele>82.33</ele>
        <time>2016-10-16T10:40:18Z</time>
      </trkpt>
      <trkpt lat="50.77482" lon="3.5253">
        <ele>82.33</ele>
        <time>2016-10-16T10:40:51Z</time>
      </trkpt>
      <trkpt lat="50.77485" lon="3.52532">
        <ele>82.33</ele>
        <time>2016-10-16T10:41:24Z</time>
      </trkpt>
      <trkpt lat="50.77483" lon="3.52526">
        <ele>81.85</ele>
        <time>2016-10-16T10:41:51Z</time>
      </trkpt>
      <trkpt lat="50.77483" lon="3.52526">
        <ele>81.85</ele>
        <time>2016-10-16T10:42:19Z</time>
      </trkpt>
      <trkpt lat="50.77473" lon="3.52514">
        <ele>81.85</ele>
        <time>2016-10-16T10:42:51Z</time>
      </trkpt>
      <trkpt lat="50.77478" lon="3.52525">
        <ele>81.85</ele>
        <time>2016-10-16T10:43:20Z</time>
      </trkpt>
      <trkpt lat="50.77471" lon="3.5253">
        <ele>82.33</ele>
        <time>2016-10-16T10:43:50Z</time>
      </trkpt>
      <trkpt lat="50.77465" lon="3.52513">
        <ele>82.33</ele>
        <time>2016-10-16T10:44:09Z</time>
      </trkpt>
      <trkpt lat="50.77465" lon="3.52527">
        <ele>82.33</ele>
        <time>2016-10-16T10:44:31Z</time>
      </trkpt>
      <trkpt lat="50.77466" lon="3.52528">
        <ele>82.81</ele>
        <time>2016-10-16T10:45:04Z</time>
      </trkpt>
      <trkpt lat="50.77465" lon="3.52521">
        <ele>83.29</ele>
        <time>2016-10-16T10:45:34Z</time>
      </trkpt>
      <trkpt lat="50.77459" lon="3.52518">
        <ele>83.29</ele>
        <time>2016-10-16T10:45:43Z</time>
      </trkpt>
      <trkpt lat="50.77459" lon="3.52519">
        <ele>83.29</ele>
        <time>2016-10-16T10:46:04Z</time>
      </trkpt>
      <trkpt lat="50.77462" lon="3.52528">
        <ele>83.77</ele>
        <time>2016-10-16T10:46:30Z</time>
      </trkpt>
      <trkpt lat="50.77463" lon="3.52526">
        <ele>83.77</ele>
        <time>2016-10-16T10:46:52Z</time>
      </trkpt>
      <trkpt lat="50.77467" lon="3.52522">
        <ele>84.25</ele>
        <time>2016-10-16T10:47:18Z</time>
      </trkpt>
      <trkpt lat="50.77469" lon="3.52521">
        <ele>84.73</ele>
        <time>2016-10-16T10:47:47Z</time>
      </trkpt>
      <trkpt lat="50.77472" lon="3.52517">
        <ele>84.73</ele>
        <time>2016-10-16T10:48:12Z</time>
      </trkpt>
      <trkpt lat="50.77464" lon="3.52517">
        <ele>85.21</ele>
        <time>2016-10-16T10:48:42Z</time>
      </trkpt>
      <trkpt lat="50.77469" lon="3.52528">
        <ele>85.21</ele>
        <time>2016-10-16T10:49:09Z</time>
      </trkpt>
      <trkpt lat="50.77481" lon="3.52537">
        <ele>85.69</ele>
        <time>2016-10-16T10:49:36Z</time>
      </trkpt>
      <trkpt lat="50.77478" lon="3.52525">
        <ele>85.69</ele>
        <time>2016-10-16T10:50:05Z</time>
      </trkpt>
      <trkpt lat="50.77478" lon="3.52534">
        <ele>85.69</ele>
        <time>2016-10-16T10:50:35Z</time>
      </trkpt>
      <trkpt lat="50.77481" lon="3.52538">
        <ele>85.69</ele>
        <time>2016-10-16T10:51:01Z</time>
      </trkpt>
      <trkpt lat="50.77478" lon="3.52539">
        <ele>85.69</ele>
        <time>2016-10-16T10:51:25Z</time>
      </trkpt>
      <trkpt lat="50.7747" lon="3.52529">
        <ele>85.69</ele>
        <time>2016-10-16T10:52:03Z</time>
      </trkpt>
      <trkpt lat="50.77477" lon="3.52535">
        <ele>85.69</ele>
        <time>2016-10-16T10:52:37Z</time>
      </trkpt>
      <trkpt lat="50.77478" lon="3.52534">
        <ele>85.21</ele>
        <time>2016-10-16T10:53:14Z</time>
      </trkpt>
      <trkpt lat="50.77478" lon="3.5253">
        <ele>85.21</ele>
        <time>2016-10-16T10:53:40Z</time>
      </trkpt>
      <trkpt lat="50.77477" lon="3.52527">
        <ele>84.73</ele>
        <time>2016-10-16T10:54:21Z</time>
      </trkpt>
      <trkpt lat="50.77475" lon="3.52539">
        <ele>84.73</ele>
        <time>2016-10-16T10:54:59Z</time>
      </trkpt>
      <trkpt lat="50.77478" lon="3.52533">
        <ele>84.73</ele>
        <time>2016-10-16T10:55:36Z</time>
      </trkpt>
      <trkpt lat="50.77476" lon="3.52526">
        <ele>85.21</ele>
        <time>2016-10-16T10:56:06Z</time>
      </trkpt>
      <trkpt lat="50.77471" lon="3.52532">
        <ele>83.77</ele>
        <time>2016-10-16T10:56:20Z</time>
      </trkpt>
      <trkpt lat="50.77465" lon="3.52533">
        <ele>83.77</ele>
        <time>2016-10-16T10:56:49Z</time>
      </trkpt>
      <trkpt lat="50.77468" lon="3.52533">
        <ele>83.77</ele>
        <time>2016-10-16T10:57:17Z</time>
      </trkpt>
      <trkpt lat="50.77469" lon="3.52533">
        <ele>83.77</ele>
        <time>2016-10-16T10:57:52Z</time>
      </trkpt>
      <trkpt lat="50.77469" lon="3.52542">
        <ele>83.77</ele>
        <time>2016-10-16T10:58:20Z</time>
      </trkpt>
      <trkpt lat="50.77466" lon="3.52538">
        <ele>83.77</ele>
        <time>2016-10-16T10:58:47Z</time>
      </trkpt>
      <trkpt lat="50.77466" lon="3.52532">
        <ele>84.25</ele>
        <time>2016-10-16T10:59:20Z</time>
      </trkpt>
      <trkpt lat="50.77463" lon="3.52516">
        <ele>84.25</ele>
        <time>2016-10-16T10:59:50Z</time>
      </trkpt>
      <trkpt lat="50.77462" lon="3.52518">
        <ele>84.25</ele>
        <time>2016-10-16T11:00:15Z</time>
      </trkpt>
      <trkpt lat="50.77456" lon="3.52518">
        <ele>84.25</ele>
        <time>2016-10-16T11:00:45Z</time>
      </trkpt>
      <trkpt lat="50.77462" lon="3.52516">
        <ele>84.25</ele>
        <time>2016-10-16T11:01:09Z</time>
      </trkpt>
      <trkpt lat="50.77456" lon="3.52521">
        <ele>84.25</ele>
        <time>2016-10-16T11:01:31Z</time>
      </trkpt>
      <trkpt lat="50.77458" lon="3.52514">
        <ele>84.25</ele>
        <time>2016-10-16T11:01:54Z</time>
      </trkpt>
      <trkpt lat="50.77462" lon="3.5251">
        <ele>83.29</ele>
        <time>2016-10-16T11:02:21Z</time>
      </trkpt>
      <trkpt lat="50.77463" lon="3.52514">
        <ele>83.29</ele>
        <time>2016-10-16T11:02:55Z</time>
      </trkpt>
      <trkpt lat="50.77459" lon="3.52519">
        <ele>83.77</ele>
        <time>2016-10-16T11:03:07Z</time>
      </trkpt>
      <trkpt lat="50.7745" lon="3.52527">
        <ele>83.77</ele>
        <time>2016-10-16T11:03:12Z</time>
      </trkpt>
      <trkpt lat="50.77437" lon="3.52539">
        <ele>83.77</ele>
        <time>2016-10-16T11:03:28Z</time>
      </trkpt>
      <trkpt lat="50.77456" lon="3.52511">
        <ele>83.77</ele>
        <time>2016-10-16T11:03:50Z</time>
      </trkpt>
      <trkpt lat="50.7746" lon="3.52505">
        <ele>83.77</ele>
        <time>2016-10-16T11:04:15Z</time>
      </trkpt>
      <trkpt lat="50.77461" lon="3.52488">
        <ele>83.77</ele>
        <time>2016-10-16T11:04:39Z</time>
      </trkpt>
      <trkpt lat="50.7747" lon="3.52527">
        <ele>84.25</ele>
        <time>2016-10-16T11:05:04Z</time>
      </trkpt>
      <trkpt lat="50.77462" lon="3.52569">
        <ele>84.25</ele>
        <time>2016-10-16T11:05:38Z</time>
      </trkpt>
      <trkpt lat="50.77456" lon="3.5257">
        <ele>84.25</ele>
        <time>2016-10-16T11:06:00Z</time>
      </trkpt>
      <trkpt lat="50.77451" lon="3.52554">
        <ele>84.73</ele>
        <time>2016-10-16T11:06:23Z</time>
      </trkpt>
      <trkpt lat="50.77464" lon="3.52538">
        <ele>84.73</ele>
        <time>2016-10-16T11:06:45Z</time>
      </trkpt>
      <trkpt lat="50.77465" lon="3.52533">
        <ele>84.73</ele>
        <time>2016-10-16T11:07:08Z</time>
      </trkpt>
      <trkpt lat="50.77462" lon="3.52521">
        <ele>85.21</ele>
        <time>2016-10-16T11:07:28Z</time>
      </trkpt>
      <trkpt lat="50.7747" lon="3.52539">
        <ele>86.18</ele>
        <time>2016-10-16T11:08:38Z</time>
      </trkpt>
      <trkpt lat="50.77463" lon="3.52528">
        <ele>85.21</ele>
        <time>2016-10-16T11:09:09Z</time>
      </trkpt>
      <trkpt lat="50.77462" lon="3.52526">
        <ele>85.21</ele>
        <time>2016-10-16T11:09:40Z</time>
      </trkpt>
      <trkpt lat="50.77461" lon="3.52528">
        <ele>85.21</ele>
        <time>2016-10-16T11:10:07Z</time>
      </trkpt>
      <trkpt lat="50.77464" lon="3.52515">
        <ele>85.21</ele>
        <time>2016-10-16T11:10:33Z</time>
      </trkpt>
      <trkpt lat="50.77466" lon="3.52529">
        <ele>87.14</ele>
        <time>2016-10-16T11:10:44Z</time>
      </trkpt>
      <trkpt lat="50.77466" lon="3.52538">
        <ele>85.69</ele>
        <time>2016-10-16T11:11:09Z</time>
      </trkpt>
      <trkpt lat="50.77465" lon="3.52549">
        <ele>86.18</ele>
        <time>2016-10-16T11:11:29Z</time>
      </trkpt>
      <trkpt lat="50.77475" lon="3.52553">
        <ele>86.18</ele>
        <time>2016-10-16T11:11:55Z</time>
      </trkpt>
      <trkpt lat="50.77467" lon="3.52538">
        <ele>86.18</ele>
        <time>2016-10-16T11:12:23Z</time>
      </trkpt>
      <trkpt lat="50.77468" lon="3.52536">
        <ele>85.69</ele>
        <time>2016-10-16T11:12:56Z</time>
      </trkpt>
      <trkpt lat="50.77472" lon="3.52546">
        <ele>85.69</ele>
        <time>2016-10-16T11:13:23Z</time>
      </trkpt>
      <trkpt lat="50.77468" lon="3.52554">
        <ele>85.21</ele>
        <time>2016-10-16T11:13:49Z</time>
      </trkpt>
      <trkpt lat="50.77464" lon="3.52533">
        <ele>85.21</ele>
        <time>2016-10-16T11:14:16Z</time>
      </trkpt>
      <trkpt lat="50.77463" lon="3.52528">
        <ele>85.21</ele>
        <time>2016-10-16T11:14:46Z</time>
      </trkpt>
      <trkpt lat="50.77464" lon="3.52548">
        <ele>85.21</ele>
        <time>2016-10-16T11:15:07Z</time>
      </trkpt>
      <trkpt lat="50.77468" lon="3.52537">
        <ele>85.21</ele>
        <time>2016-10-16T11:15:31Z</time>
      </trkpt>
      <trkpt lat="50.77475" lon="3.52533">
        <ele>85.21</ele>
        <time>2016-10-16T11:15:48Z</time>
      </trkpt>
      <trkpt lat="50.77479" lon="3.5254">
        <ele>86.66</ele>
        <time>2016-10-16T11:24:02Z</time>
      </trkpt>
      <trkpt lat="50.77472" lon="3.52524">
        <ele>85.21</ele>
        <time>2016-10-16T11:24:38Z</time>
      </trkpt>
      <trkpt lat="50.77506" lon="3.52498">
        <ele>86.66</ele>
        <time>2016-10-16T11:48:22Z</time>
      </trkpt>
      <trkpt lat="50.77513" lon="3.52519">
        <ele>86.66</ele>
        <time>2016-10-16T11:48:36Z</time>
      </trkpt>
      <trkpt lat="50.77515" lon="3.52502">
        <ele>85.69</ele>
        <time>2016-10-16T11:48:54Z</time>
      </trkpt>
      <trkpt lat="50.77528" lon="3.5248">
        <ele>84.25</ele>
        <time>2016-10-16T11:49:14Z</time>
      </trkpt>
      <trkpt lat="50.77539" lon="3.5247">
        <ele>84.25</ele>
        <time>2016-10-16T11:49:25Z</time>
      </trkpt>
      <trkpt lat="50.77548" lon="3.52463">
        <ele>84.25</ele>
        <time>2016-10-16T11:49:33Z</time>
      </trkpt>
      <trkpt lat="50.77562" lon="3.52452">
        <ele>83.29</ele>
        <time>2016-10-16T11:49:48Z</time>
      </trkpt>
      <trkpt lat="50.7758" lon="3.52424">
        <ele>82.81</ele>
        <time>2016-10-16T11:50:10Z</time>
      </trkpt>
      <trkpt lat="50.77597" lon="3.52403">
        <ele>80.41</ele>
        <time>2016-10-16T11:50:32Z</time>
      </trkpt>
      <trkpt lat="50.77578" lon="3.52382">
        <ele>79.45</ele>
        <time>2016-10-16T11:50:52Z</time>
      </trkpt>
      <trkpt lat="50.7755" lon="3.52353">
        <ele>76.08</ele>
        <time>2016-10-16T11:51:19Z</time>
      </trkpt>
      <trkpt lat="50.77532" lon="3.52337">
        <ele>75.12</ele>
        <time>2016-10-16T11:51:36Z</time>
      </trkpt>
      <trkpt lat="50.77508" lon="3.52308">
        <ele>71.76</ele>
        <time>2016-10-16T11:51:59Z</time>
      </trkpt>
      <trkpt lat="50.77502" lon="3.52278">
        <ele>70.31</ele>
        <time>2016-10-16T11:52:21Z</time>
      </trkpt>
      <trkpt lat="50.7749" lon="3.52261">
        <ele>68.39</ele>
        <time>2016-10-16T11:52:40Z</time>
      </trkpt>
      <trkpt lat="50.77488" lon="3.5226">
        <ele>67.43</ele>
        <time>2016-10-16T11:52:42Z</time>
      </trkpt>
      <trkpt lat="50.77486" lon="3.52227">
        <ele>64.07</ele>
        <time>2016-10-16T11:53:02Z</time>
      </trkpt>
      <trkpt lat="50.77486" lon="3.52213">
        <ele>61.18</ele>
        <time>2016-10-16T11:53:14Z</time>
      </trkpt>
      <trkpt lat="50.77485" lon="3.52212">
        <ele>61.18</ele>
        <time>2016-10-16T11:53:15Z</time>
      </trkpt>
      <trkpt lat="50.77485" lon="3.52194">
        <ele>57.34</ele>
        <time>2016-10-16T11:53:26Z</time>
      </trkpt>
      <trkpt lat="50.77488" lon="3.5217">
        <ele>53.49</ele>
        <time>2016-10-16T11:53:39Z</time>
      </trkpt>
      <trkpt lat="50.77488" lon="3.52168">
        <ele>53.49</ele>
        <time>2016-10-16T11:53:40Z</time>
      </trkpt>
      <trkpt lat="50.77489" lon="3.52131">
        <ele>51.09</ele>
        <time>2016-10-16T11:54:03Z</time>
      </trkpt>
      <trkpt lat="50.77485" lon="3.52118">
        <ele>50.61</ele>
        <time>2016-10-16T11:54:13Z</time>
      </trkpt>
      <trkpt lat="50.77484" lon="3.52107">
        <ele>49.16</ele>
        <time>2016-10-16T11:54:22Z</time>
      </trkpt>
      <trkpt lat="50.77475" lon="3.52093">
        <ele>45.8</ele>
        <time>2016-10-16T11:54:35Z</time>
      </trkpt>
      <trkpt lat="50.77458" lon="3.52052">
        <ele>44.84</ele>
        <time>2016-10-16T11:55:00Z</time>
      </trkpt>
      <trkpt lat="50.77451" lon="3.52036">
        <ele>42.44</ele>
        <time>2016-10-16T11:55:13Z</time>
      </trkpt>
      <trkpt lat="50.7747" lon="3.52009">
        <ele>40.51</ele>
        <time>2016-10-16T11:55:39Z</time>
      </trkpt>
      <trkpt lat="50.77501" lon="3.51998">
        <ele>40.03</ele>
        <time>2016-10-16T11:56:06Z</time>
      </trkpt>
      <trkpt lat="50.77507" lon="3.51978">
        <ele>38.59</ele>
        <time>2016-10-16T11:56:31Z</time>
      </trkpt>
      <trkpt lat="50.77505" lon="3.51928">
        <ele>38.11</ele>
        <time>2016-10-16T11:56:50Z</time>
      </trkpt>
      <trkpt lat="50.77497" lon="3.51902">
        <ele>39.55</ele>
        <time>2016-10-16T11:57:04Z</time>
      </trkpt>
      <trkpt lat="50.77501" lon="3.51871">
        <ele>39.07</ele>
        <time>2016-10-16T11:57:23Z</time>
      </trkpt>
      <trkpt lat="50.77503" lon="3.51867">
        <ele>37.63</ele>
        <time>2016-10-16T11:57:26Z</time>
      </trkpt>
      <trkpt lat="50.77533" lon="3.51829">
        <ele>36.19</ele>
        <time>2016-10-16T11:57:55Z</time>
      </trkpt>
      <trkpt lat="50.77541" lon="3.51811">
        <ele>35.23</ele>
        <time>2016-10-16T11:58:18Z</time>
      </trkpt>
      <trkpt lat="50.7754" lon="3.51809">
        <ele>36.19</ele>
        <time>2016-10-16T11:58:31Z</time>
      </trkpt>
      <trkpt lat="50.77541" lon="3.51805">
        <ele>34.26</ele>
        <time>2016-10-16T11:58:56Z</time>
      </trkpt>
      <trkpt lat="50.77536" lon="3.51793">
        <ele>35.71</ele>
        <time>2016-10-16T11:59:21Z</time>
      </trkpt>
      <trkpt lat="50.77535" lon="3.51792">
        <ele>35.71</ele>
        <time>2016-10-16T11:59:22Z</time>
      </trkpt>
      <trkpt lat="50.77518" lon="3.51754">
        <ele>35.71</ele>
        <time>2016-10-16T11:59:48Z</time>
      </trkpt>
      <trkpt lat="50.77498" lon="3.5171">
        <ele>38.11</ele>
        <time>2016-10-16T12:00:15Z</time>
      </trkpt>
      <trkpt lat="50.775" lon="3.51707">
        <ele>36.67</ele>
        <time>2016-10-16T12:00:36Z</time>
      </trkpt>
      <trkpt lat="50.77498" lon="3.51706">
        <ele>38.59</ele>
        <time>2016-10-16T12:00:48Z</time>
      </trkpt>
      <trkpt lat="50.77478" lon="3.51666">
        <ele>38.59</ele>
        <time>2016-10-16T12:01:13Z</time>
      </trkpt>
      <trkpt lat="50.7748" lon="3.51644">
        <ele>38.59</ele>
        <time>2016-10-16T12:01:30Z</time>
      </trkpt>
      <trkpt lat="50.77505" lon="3.51619">
        <ele>37.15</ele>
        <time>2016-10-16T12:01:54Z</time>
      </trkpt>
      <trkpt lat="50.77532" lon="3.51589">
        <ele>35.23</ele>
        <time>2016-10-16T12:02:23Z</time>
      </trkpt>
      <trkpt lat="50.77546" lon="3.51561">
        <ele>33.78</ele>
        <time>2016-10-16T12:02:46Z</time>
      </trkpt>
      <trkpt lat="50.77534" lon="3.51509">
        <ele>32.34</ele>
        <time>2016-10-16T12:03:14Z</time>
      </trkpt>
      <trkpt lat="50.77525" lon="3.51484">
        <ele>32.34</ele>
        <time>2016-10-16T12:03:30Z</time>
      </trkpt>
      <trkpt lat="50.77512" lon="3.51442">
        <ele>31.38</ele>
        <time>2016-10-16T12:03:54Z</time>
      </trkpt>
      <trkpt lat="50.77498" lon="3.51394">
        <ele>28.98</ele>
        <time>2016-10-16T12:04:20Z</time>
      </trkpt>
      <trkpt lat="50.77486" lon="3.51346">
        <ele>27.53</ele>
        <time>2016-10-16T12:04:44Z</time>
      </trkpt>
      <trkpt lat="50.77492" lon="3.51301">
        <ele>26.09</ele>
        <time>2016-10-16T12:05:07Z</time>
      </trkpt>
      <trkpt lat="50.77495" lon="3.51256">
        <ele>25.61</ele>
        <time>2016-10-16T12:05:32Z</time>
      </trkpt>
      <trkpt lat="50.77478" lon="3.51221">
        <ele>27.05</ele>
        <time>2016-10-16T12:05:53Z</time>
      </trkpt>
      <trkpt lat="50.77461" lon="3.51194">
        <ele>27.53</ele>
        <time>2016-10-16T12:06:13Z</time>
      </trkpt>
      <trkpt lat="50.77437" lon="3.51156">
        <ele>28.5</ele>
        <time>2016-10-16T12:06:40Z</time>
      </trkpt>
      <trkpt lat="50.77423" lon="3.51134">
        <ele>28.5</ele>
        <time>2016-10-16T12:07:00Z</time>
      </trkpt>
      <trkpt lat="50.77417" lon="3.51122">
        <ele>27.53</ele>
        <time>2016-10-16T12:07:07Z</time>
      </trkpt>
      <trkpt lat="50.77393" lon="3.51083">
        <ele>27.53</ele>
        <time>2016-10-16T12:07:32Z</time>
      </trkpt>
      <trkpt lat="50.77391" lon="3.51081">
        <ele>29.46</ele>
        <time>2016-10-16T12:07:34Z</time>
      </trkpt>
      <trkpt lat="50.77366" lon="3.51045">
        <ele>29.46</ele>
        <time>2016-10-16T12:08:00Z</time>
      </trkpt>
      <trkpt lat="50.77348" lon="3.51016">
        <ele>30.9</ele>
        <time>2016-10-16T12:08:22Z</time>
      </trkpt>
      <trkpt lat="50.77336" lon="3.51022">
        <ele>32.34</ele>
        <time>2016-10-16T12:08:34Z</time>
      </trkpt>
      <trkpt lat="50.77314" lon="3.51031">
        <ele>34.74</ele>
        <time>2016-10-16T12:08:57Z</time>
      </trkpt>
      <trkpt lat="50.77288" lon="3.51053">
        <ele>37.15</ele>
        <time>2016-10-16T12:09:21Z</time>
      </trkpt>
      <trkpt lat="50.77264" lon="3.51067">
        <ele>39.55</ele>
        <time>2016-10-16T12:09:45Z</time>
      </trkpt>
      <trkpt lat="50.77235" lon="3.51072">
        <ele>42.44</ele>
        <time>2016-10-16T12:10:09Z</time>
      </trkpt>
      <trkpt lat="50.77207" lon="3.51055">
        <ele>44.36</ele>
        <time>2016-10-16T12:10:36Z</time>
      </trkpt>
      <trkpt lat="50.77186" lon="3.51042">
        <ele>47.24</ele>
        <time>2016-10-16T12:10:59Z</time>
      </trkpt>
      <trkpt lat="50.77169" lon="3.51032">
        <ele>48.68</ele>
        <time>2016-10-16T12:11:19Z</time>
      </trkpt>
      <trkpt lat="50.7714" lon="3.51019">
        <ele>52.05</ele>
        <time>2016-10-16T12:11:43Z</time>
      </trkpt>
      <trkpt lat="50.77117" lon="3.51018">
        <ele>55.41</ele>
        <time>2016-10-16T12:12:06Z</time>
      </trkpt>
      <trkpt lat="50.77093" lon="3.51032">
        <ele>57.34</ele>
        <time>2016-10-16T12:12:30Z</time>
      </trkpt>
      <trkpt lat="50.77072" lon="3.51033">
        <ele>60.7</ele>
        <time>2016-10-16T12:12:50Z</time>
      </trkpt>
      <trkpt lat="50.77048" lon="3.51033">
        <ele>62.62</ele>
        <time>2016-10-16T12:13:13Z</time>
      </trkpt>
      <trkpt lat="50.77027" lon="3.51021">
        <ele>64.55</ele>
        <time>2016-10-16T12:13:32Z</time>
      </trkpt>
      <trkpt lat="50.77017" lon="3.51015">
        <ele>66.95</ele>
        <time>2016-10-16T12:13:42Z</time>
      </trkpt>
      <trkpt lat="50.77006" lon="3.51016">
        <ele>67.43</ele>
        <time>2016-10-16T12:13:51Z</time>
      </trkpt>
      <trkpt lat="50.76982" lon="3.51034">
        <ele>69.35</ele>
        <time>2016-10-16T12:14:13Z</time>
      </trkpt>
      <trkpt lat="50.76954" lon="3.51043">
        <ele>71.27</ele>
        <time>2016-10-16T12:14:37Z</time>
      </trkpt>
      <trkpt lat="50.76924" lon="3.51039">
        <ele>72.24</ele>
        <time>2016-10-16T12:15:03Z</time>
      </trkpt>
      <trkpt lat="50.76904" lon="3.51004">
        <ele>73.68</ele>
        <time>2016-10-16T12:15:26Z</time>
      </trkpt>
      <trkpt lat="50.76877" lon="3.50978">
        <ele>75.6</ele>
        <time>2016-10-16T12:15:53Z</time>
      </trkpt>
      <trkpt lat="50.76872" lon="3.50975">
        <ele>76.08</ele>
        <time>2016-10-16T12:15:58Z</time>
      </trkpt>
      <trkpt lat="50.76843" lon="3.50952">
        <ele>76.56</ele>
        <time>2016-10-16T12:16:24Z</time>
      </trkpt>
      <trkpt lat="50.76825" lon="3.50938">
        <ele>76.08</ele>
        <time>2016-10-16T12:16:42Z</time>
      </trkpt>
      <trkpt lat="50.76823" lon="3.50937">
        <ele>77.52</ele>
        <time>2016-10-16T12:16:44Z</time>
      </trkpt>
      <trkpt lat="50.76796" lon="3.50919">
        <ele>78.97</ele>
        <time>2016-10-16T12:17:10Z</time>
      </trkpt>
      <trkpt lat="50.76764" lon="3.50897">
        <ele>80.41</ele>
        <time>2016-10-16T12:17:38Z</time>
      </trkpt>
      <trkpt lat="50.76739" lon="3.50872">
        <ele>81.85</ele>
        <time>2016-10-16T12:18:04Z</time>
      </trkpt>
      <trkpt lat="50.76715" lon="3.5084">
        <ele>82.81</ele>
        <time>2016-10-16T12:18:29Z</time>
      </trkpt>
      <trkpt lat="50.76687" lon="3.5081">
        <ele>83.77</ele>
        <time>2016-10-16T12:18:55Z</time>
      </trkpt>
      <trkpt lat="50.76669" lon="3.50782">
        <ele>85.21</ele>
        <time>2016-10-16T12:19:19Z</time>
      </trkpt>
      <trkpt lat="50.76656" lon="3.50761">
        <ele>86.18</ele>
        <time>2016-10-16T12:19:42Z</time>
      </trkpt>
      <trkpt lat="50.76653" lon="3.50756">
        <ele>85.69</ele>
        <time>2016-10-16T12:20:08Z</time>
      </trkpt>
      <trkpt lat="50.76647" lon="3.50767">
        <ele>87.62</ele>
        <time>2016-10-16T12:20:28Z</time>
      </trkpt>
      <trkpt lat="50.76648" lon="3.50771">
        <ele>86.66</ele>
        <time>2016-10-16T12:20:54Z</time>
      </trkpt>
      <trkpt lat="50.76641" lon="3.50784">
        <ele>86.66</ele>
        <time>2016-10-16T12:21:14Z</time>
      </trkpt>
      <trkpt lat="50.76638" lon="3.50786">
        <ele>86.66</ele>
        <time>2016-10-16T12:21:18Z</time>
      </trkpt>
      <trkpt lat="50.76621" lon="3.50765">
        <ele>86.66</ele>
        <time>2016-10-16T12:21:39Z</time>
      </trkpt>
      <trkpt lat="50.76603" lon="3.50745">
        <ele>88.1</ele>
        <time>2016-10-16T12:22:02Z</time>
      </trkpt>
      <trkpt lat="50.76587" lon="3.50714">
        <ele>89.06</ele>
        <time>2016-10-16T12:22:27Z</time>
      </trkpt>
      <trkpt lat="50.76555" lon="3.507">
        <ele>90.02</ele>
        <time>2016-10-16T12:22:54Z</time>
      </trkpt>
      <trkpt lat="50.76534" lon="3.50686">
        <ele>90.02</ele>
        <time>2016-10-16T12:23:18Z</time>
      </trkpt>
      <trkpt lat="50.76493" lon="3.50668">
        <ele>91.46</ele>
        <time>2016-10-16T12:23:42Z</time>
      </trkpt>
      <trkpt lat="50.76474" lon="3.50646">
        <ele>92.42</ele>
        <time>2016-10-16T12:24:03Z</time>
      </trkpt>
      <trkpt lat="50.76453" lon="3.50655">
        <ele>93.87</ele>
        <time>2016-10-16T12:24:26Z</time>
      </trkpt>
      <trkpt lat="50.76412" lon="3.50667">
        <ele>95.31</ele>
        <time>2016-10-16T12:24:53Z</time>
      </trkpt>
      <trkpt lat="50.7639" lon="3.50677">
        <ele>96.27</ele>
        <time>2016-10-16T12:25:17Z</time>
      </trkpt>
      <trkpt lat="50.76363" lon="3.50687">
        <ele>98.19</ele>
        <time>2016-10-16T12:25:44Z</time>
      </trkpt>
      <trkpt lat="50.76341" lon="3.50693">
        <ele>99.63</ele>
        <time>2016-10-16T12:26:06Z</time>
      </trkpt>
      <trkpt lat="50.76302" lon="3.50688">
        <ele>101.08</ele>
        <time>2016-10-16T12:26:31Z</time>
      </trkpt>
      <trkpt lat="50.7629" lon="3.50684">
        <ele>102.04</ele>
        <time>2016-10-16T12:26:58Z</time>
      </trkpt>
      <trkpt lat="50.76267" lon="3.50696">
        <ele>103.96</ele>
        <time>2016-10-16T12:27:22Z</time>
      </trkpt>
      <trkpt lat="50.76237" lon="3.50705">
        <ele>105.88</ele>
        <time>2016-10-16T12:27:48Z</time>
      </trkpt>
      <trkpt lat="50.76212" lon="3.50715">
        <ele>106.84</ele>
        <time>2016-10-16T12:28:12Z</time>
      </trkpt>
      <trkpt lat="50.76183" lon="3.50715">
        <ele>108.29</ele>
        <time>2016-10-16T12:28:36Z</time>
      </trkpt>
      <trkpt lat="50.7616" lon="3.50717">
        <ele>108.77</ele>
        <time>2016-10-16T12:29:00Z</time>
      </trkpt>
      <trkpt lat="50.76134" lon="3.50725">
        <ele>110.21</ele>
        <time>2016-10-16T12:29:24Z</time>
      </trkpt>
      <trkpt lat="50.76106" lon="3.50721">
        <ele>113.09</ele>
        <time>2016-10-16T12:29:47Z</time>
      </trkpt>
      <trkpt lat="50.76076" lon="3.50708">
        <ele>114.53</ele>
        <time>2016-10-16T12:30:14Z</time>
      </trkpt>
      <trkpt lat="50.76057" lon="3.50705">
        <ele>117.9</ele>
        <time>2016-10-16T12:30:35Z</time>
      </trkpt>
      <trkpt lat="50.76028" lon="3.50706">
        <ele>120.78</ele>
        <time>2016-10-16T12:31:02Z</time>
      </trkpt>
      <trkpt lat="50.76013" lon="3.50699">
        <ele>122.71</ele>
        <time>2016-10-16T12:31:22Z</time>
      </trkpt>
      <trkpt lat="50.75992" lon="3.50703">
        <ele>124.15</ele>
        <time>2016-10-16T12:31:46Z</time>
      </trkpt>
      <trkpt lat="50.75962" lon="3.50693">
        <ele>125.11</ele>
        <time>2016-10-16T12:32:09Z</time>
      </trkpt>
      <trkpt lat="50.75961" lon="3.50702">
        <ele>124.15</ele>
        <time>2016-10-16T12:32:32Z</time>
      </trkpt>
      <trkpt lat="50.75961" lon="3.50703">
        <ele>124.15</ele>
        <time>2016-10-16T12:32:33Z</time>
      </trkpt>
      <trkpt lat="50.75983" lon="3.50712">
        <ele>124.15</ele>
        <time>2016-10-16T12:32:55Z</time>
      </trkpt>
      <trkpt lat="50.75967" lon="3.50713">
        <ele>125.59</ele>
        <time>2016-10-16T12:33:09Z</time>
      </trkpt>
      <trkpt lat="50.75934" lon="3.50718">
        <ele>127.99</ele>
        <time>2016-10-16T12:33:33Z</time>
      </trkpt>
      <trkpt lat="50.75916" lon="3.50725">
        <ele>129.43</ele>
        <time>2016-10-16T12:33:54Z</time>
      </trkpt>
      <trkpt lat="50.75894" lon="3.50727">
        <ele>129.43</ele>
        <time>2016-10-16T12:34:12Z</time>
      </trkpt>
      <trkpt lat="50.75884" lon="3.50741">
        <ele>130.4</ele>
        <time>2016-10-16T12:34:41Z</time>
      </trkpt>
      <trkpt lat="50.75885" lon="3.50748">
        <ele>129.92</ele>
        <time>2016-10-16T12:35:04Z</time>
      </trkpt>
      <trkpt lat="50.75882" lon="3.50744">
        <ele>130.4</ele>
        <time>2016-10-16T12:35:09Z</time>
      </trkpt>
      <trkpt lat="50.75876" lon="3.50743">
        <ele>130.88</ele>
        <time>2016-10-16T12:35:43Z</time>
      </trkpt>
      <trkpt lat="50.75884" lon="3.50757">
        <ele>129.92</ele>
        <time>2016-10-16T12:36:04Z</time>
      </trkpt>
      <trkpt lat="50.75888" lon="3.50786">
        <ele>131.36</ele>
        <time>2016-10-16T12:36:27Z</time>
      </trkpt>
      <trkpt lat="50.75889" lon="3.5082">
        <ele>132.32</ele>
        <time>2016-10-16T12:36:50Z</time>
      </trkpt>
      <trkpt lat="50.75882" lon="3.50855">
        <ele>133.76</ele>
        <time>2016-10-16T12:37:12Z</time>
      </trkpt>
      <trkpt lat="50.75883" lon="3.50896">
        <ele>135.68</ele>
        <time>2016-10-16T12:37:32Z</time>
      </trkpt>
      <trkpt lat="50.75887" lon="3.50928">
        <ele>136.16</ele>
        <time>2016-10-16T12:37:52Z</time>
      </trkpt>
      <trkpt lat="50.75891" lon="3.50955">
        <ele>136.16</ele>
        <time>2016-10-16T12:38:17Z</time>
      </trkpt>
      <trkpt lat="50.75896" lon="3.50984">
        <ele>134.24</ele>
        <time>2016-10-16T12:38:33Z</time>
      </trkpt>
      <trkpt lat="50.75908" lon="3.51014">
        <ele>133.76</ele>
        <time>2016-10-16T12:38:57Z</time>
      </trkpt>
      <trkpt lat="50.7591" lon="3.51073">
        <ele>132.32</ele>
        <time>2016-10-16T12:39:19Z</time>
      </trkpt>
      <trkpt lat="50.75904" lon="3.51119">
        <ele>129.92</ele>
        <time>2016-10-16T12:39:42Z</time>
      </trkpt>
      <trkpt lat="50.75921" lon="3.51154">
        <ele>127.51</ele>
        <time>2016-10-16T12:40:08Z</time>
      </trkpt>
      <trkpt lat="50.75935" lon="3.51184">
        <ele>125.59</ele>
        <time>2016-10-16T12:40:31Z</time>
      </trkpt>
      <trkpt lat="50.75947" lon="3.51209">
        <ele>123.67</ele>
        <time>2016-10-16T12:40:54Z</time>
      </trkpt>
      <trkpt lat="50.75951" lon="3.51234">
        <ele>122.71</ele>
        <time>2016-10-16T12:41:18Z</time>
      </trkpt>
      <trkpt lat="50.75972" lon="3.51283">
        <ele>121.26</ele>
        <time>2016-10-16T12:41:43Z</time>
      </trkpt>
      <trkpt lat="50.75975" lon="3.51307">
        <ele>119.82</ele>
        <time>2016-10-16T12:42:07Z</time>
      </trkpt>
      <trkpt lat="50.75984" lon="3.51351">
        <ele>117.9</ele>
        <time>2016-10-16T12:42:28Z</time>
      </trkpt>
      <trkpt lat="50.76005" lon="3.51391">
        <ele>117.42</ele>
        <time>2016-10-16T12:42:52Z</time>
      </trkpt>
      <trkpt lat="50.76026" lon="3.51413">
        <ele>117.42</ele>
        <time>2016-10-16T12:43:13Z</time>
      </trkpt>
      <trkpt lat="50.76031" lon="3.51434">
        <ele>117.9</ele>
        <time>2016-10-16T12:43:31Z</time>
      </trkpt>
      <trkpt lat="50.76036" lon="3.51486">
        <ele>117.9</ele>
        <time>2016-10-16T12:43:52Z</time>
      </trkpt>
      <trkpt lat="50.76043" lon="3.51513">
        <ele>118.38</ele>
        <time>2016-10-16T12:44:16Z</time>
      </trkpt>
      <trkpt lat="50.76058" lon="3.51562">
        <ele>119.34</ele>
        <time>2016-10-16T12:44:41Z</time>
      </trkpt>
      <trkpt lat="50.76061" lon="3.51616">
        <ele>120.3</ele>
        <time>2016-10-16T12:45:07Z</time>
      </trkpt>
      <trkpt lat="50.76062" lon="3.51654">
        <ele>120.3</ele>
        <time>2016-10-16T12:45:30Z</time>
      </trkpt>
      <trkpt lat="50.7608" lon="3.51686">
        <ele>119.82</ele>
        <time>2016-10-16T12:45:49Z</time>
      </trkpt>
      <trkpt lat="50.76074" lon="3.51741">
        <ele>120.78</ele>
        <time>2016-10-16T12:46:13Z</time>
      </trkpt>
      <trkpt lat="50.76085" lon="3.51779">
        <ele>119.34</ele>
        <time>2016-10-16T12:46:38Z</time>
      </trkpt>
      <trkpt lat="50.76086" lon="3.5182">
        <ele>117.42</ele>
        <time>2016-10-16T12:47:03Z</time>
      </trkpt>
      <trkpt lat="50.76094" lon="3.51864">
        <ele>114.53</ele>
        <time>2016-10-16T12:47:28Z</time>
      </trkpt>
      <trkpt lat="50.76104" lon="3.51888">
        <ele>112.61</ele>
        <time>2016-10-16T12:47:48Z</time>
      </trkpt>
      <trkpt lat="50.76115" lon="3.51936">
        <ele>110.21</ele>
        <time>2016-10-16T12:48:12Z</time>
      </trkpt>
      <trkpt lat="50.76122" lon="3.5199">
        <ele>108.29</ele>
        <time>2016-10-16T12:48:38Z</time>
      </trkpt>
      <trkpt lat="50.76146" lon="3.52028">
        <ele>106.36</ele>
        <time>2016-10-16T12:49:03Z</time>
      </trkpt>
      <trkpt lat="50.76168" lon="3.52045">
        <ele>106.36</ele>
        <time>2016-10-16T12:49:26Z</time>
      </trkpt>
      <trkpt lat="50.76184" lon="3.52085">
        <ele>105.4</ele>
        <time>2016-10-16T12:49:49Z</time>
      </trkpt>
      <trkpt lat="50.76194" lon="3.52126">
        <ele>104.92</ele>
        <time>2016-10-16T12:50:10Z</time>
      </trkpt>
      <trkpt lat="50.76207" lon="3.52143">
        <ele>104.92</ele>
        <time>2016-10-16T12:50:24Z</time>
      </trkpt>
      <trkpt lat="50.76228" lon="3.52161">
        <ele>104.92</ele>
        <time>2016-10-16T12:50:47Z</time>
      </trkpt>
      <trkpt lat="50.7624" lon="3.52193">
        <ele>104.44</ele>
        <time>2016-10-16T12:51:08Z</time>
      </trkpt>
      <trkpt lat="50.76262" lon="3.5222">
        <ele>103</ele>
        <time>2016-10-16T12:51:34Z</time>
      </trkpt>
      <trkpt lat="50.7627" lon="3.52259">
        <ele>101.56</ele>
        <time>2016-10-16T12:51:54Z</time>
      </trkpt>
      <trkpt lat="50.76274" lon="3.52317">
        <ele>100.6</ele>
        <time>2016-10-16T12:52:18Z</time>
      </trkpt>
      <trkpt lat="50.76292" lon="3.52351">
        <ele>102.52</ele>
        <time>2016-10-16T12:52:43Z</time>
      </trkpt>
      <trkpt lat="50.76301" lon="3.52388">
        <ele>102.52</ele>
        <time>2016-10-16T12:53:06Z</time>
      </trkpt>
      <trkpt lat="50.76316" lon="3.5243">
        <ele>100.6</ele>
        <time>2016-10-16T12:53:33Z</time>
      </trkpt>
      <trkpt lat="50.76325" lon="3.52463">
        <ele>101.56</ele>
        <time>2016-10-16T12:53:54Z</time>
      </trkpt>
      <trkpt lat="50.76337" lon="3.52509">
        <ele>103</ele>
        <time>2016-10-16T12:54:20Z</time>
      </trkpt>
      <trkpt lat="50.76337" lon="3.5252">
        <ele>102.04</ele>
        <time>2016-10-16T12:54:30Z</time>
      </trkpt>
      <trkpt lat="50.76338" lon="3.52521">
        <ele>103</ele>
        <time>2016-10-16T12:54:33Z</time>
      </trkpt>
      <trkpt lat="50.76356" lon="3.52563">
        <ele>103</ele>
        <time>2016-10-16T12:54:55Z</time>
      </trkpt>
      <trkpt lat="50.76364" lon="3.52596">
        <ele>103.48</ele>
        <time>2016-10-16T12:55:16Z</time>
      </trkpt>
      <trkpt lat="50.76379" lon="3.52644">
        <ele>104.44</ele>
        <time>2016-10-16T12:55:39Z</time>
      </trkpt>
      <trkpt lat="50.76384" lon="3.52679">
        <ele>103.96</ele>
        <time>2016-10-16T12:55:53Z</time>
      </trkpt>
      <trkpt lat="50.76385" lon="3.52689">
        <ele>105.4</ele>
        <time>2016-10-16T12:55:58Z</time>
      </trkpt>
      <trkpt lat="50.76394" lon="3.52709">
        <ele>105.4</ele>
        <time>2016-10-16T12:56:22Z</time>
      </trkpt>
      <trkpt lat="50.76402" lon="3.52748">
        <ele>106.84</ele>
        <time>2016-10-16T12:56:48Z</time>
      </trkpt>
      <trkpt lat="50.76409" lon="3.52793">
        <ele>107.81</ele>
        <time>2016-10-16T12:57:16Z</time>
      </trkpt>
      <trkpt lat="50.76412" lon="3.52818">
        <ele>106.36</ele>
        <time>2016-10-16T12:57:28Z</time>
      </trkpt>
      <trkpt lat="50.7643" lon="3.52839">
        <ele>107.81</ele>
        <time>2016-10-16T12:57:54Z</time>
      </trkpt>
      <trkpt lat="50.76465" lon="3.52829">
        <ele>108.77</ele>
        <time>2016-10-16T12:58:17Z</time>
      </trkpt>
      <trkpt lat="50.76499" lon="3.52812">
        <ele>109.25</ele>
        <time>2016-10-16T12:58:39Z</time>
      </trkpt>
      <trkpt lat="50.76518" lon="3.52827">
        <ele>110.21</ele>
        <time>2016-10-16T12:59:02Z</time>
      </trkpt>
      <trkpt lat="50.76521" lon="3.52854">
        <ele>109.25</ele>
        <time>2016-10-16T12:59:24Z</time>
      </trkpt>
      <trkpt lat="50.76521" lon="3.52909">
        <ele>107.81</ele>
        <time>2016-10-16T12:59:51Z</time>
      </trkpt>
      <trkpt lat="50.76524" lon="3.52954">
        <ele>106.84</ele>
        <time>2016-10-16T13:00:17Z</time>
      </trkpt>
      <trkpt lat="50.76525" lon="3.52975">
        <ele>107.32</ele>
        <time>2016-10-16T13:00:27Z</time>
      </trkpt>
      <trkpt lat="50.76524" lon="3.53009">
        <ele>105.88</ele>
        <time>2016-10-16T13:00:39Z</time>
      </trkpt>
      <trkpt lat="50.76523" lon="3.53056">
        <ele>106.36</ele>
        <time>2016-10-16T13:00:59Z</time>
      </trkpt>
      <trkpt lat="50.76527" lon="3.531">
        <ele>105.4</ele>
        <time>2016-10-16T13:01:27Z</time>
      </trkpt>
      <trkpt lat="50.76528" lon="3.53131">
        <ele>104.44</ele>
        <time>2016-10-16T13:01:42Z</time>
      </trkpt>
      <trkpt lat="50.76527" lon="3.53177">
        <ele>104.44</ele>
        <time>2016-10-16T13:02:05Z</time>
      </trkpt>
      <trkpt lat="50.76529" lon="3.53202">
        <ele>103.96</ele>
        <time>2016-10-16T13:02:28Z</time>
      </trkpt>
      <trkpt lat="50.7652" lon="3.53238">
        <ele>105.4</ele>
        <time>2016-10-16T13:02:50Z</time>
      </trkpt>
      <trkpt lat="50.76504" lon="3.53274">
        <ele>104.44</ele>
        <time>2016-10-16T13:03:13Z</time>
      </trkpt>
      <trkpt lat="50.76501" lon="3.53286">
        <ele>105.88</ele>
        <time>2016-10-16T13:03:19Z</time>
      </trkpt>
      <trkpt lat="50.76487" lon="3.53328">
        <ele>106.84</ele>
        <time>2016-10-16T13:03:44Z</time>
      </trkpt>
      <trkpt lat="50.76484" lon="3.5334">
        <ele>105.4</ele>
        <time>2016-10-16T13:03:52Z</time>
      </trkpt>
      <trkpt lat="50.76484" lon="3.53345">
        <ele>106.84</ele>
        <time>2016-10-16T13:03:56Z</time>
      </trkpt>
      <trkpt lat="50.76481" lon="3.53389">
        <ele>107.32</ele>
        <time>2016-10-16T13:04:21Z</time>
      </trkpt>
      <trkpt lat="50.76478" lon="3.53434">
        <ele>107.81</ele>
        <time>2016-10-16T13:04:44Z</time>
      </trkpt>
      <trkpt lat="50.76477" lon="3.53476">
        <ele>108.29</ele>
        <time>2016-10-16T13:05:07Z</time>
      </trkpt>
      <trkpt lat="50.76476" lon="3.53512">
        <ele>109.25</ele>
        <time>2016-10-16T13:05:30Z</time>
      </trkpt>
      <trkpt lat="50.76469" lon="3.53561">
        <ele>109.73</ele>
        <time>2016-10-16T13:05:55Z</time>
      </trkpt>
      <trkpt lat="50.76461" lon="3.53613">
        <ele>110.21</ele>
        <time>2016-10-16T13:06:20Z</time>
      </trkpt>
      <trkpt lat="50.76454" lon="3.53657">
        <ele>110.21</ele>
        <time>2016-10-16T13:06:45Z</time>
      </trkpt>
      <trkpt lat="50.7645" lon="3.53702">
        <ele>110.21</ele>
        <time>2016-10-16T13:07:10Z</time>
      </trkpt>
      <trkpt lat="50.76449" lon="3.5375">
        <ele>110.21</ele>
        <time>2016-10-16T13:07:34Z</time>
      </trkpt>
      <trkpt lat="50.76445" lon="3.53802">
        <ele>110.21</ele>
        <time>2016-10-16T13:07:59Z</time>
      </trkpt>
      <trkpt lat="50.76444" lon="3.5381">
        <ele>110.21</ele>
        <time>2016-10-16T13:08:04Z</time>
      </trkpt>
      <trkpt lat="50.76443" lon="3.53819">
        <ele>110.21</ele>
        <time>2016-10-16T13:08:08Z</time>
      </trkpt>
      <trkpt lat="50.7644" lon="3.53842">
        <ele>110.21</ele>
        <time>2016-10-16T13:08:23Z</time>
      </trkpt>
      <trkpt lat="50.76437" lon="3.53861">
        <ele>110.69</ele>
        <time>2016-10-16T13:08:35Z</time>
      </trkpt>
      <trkpt lat="50.76425" lon="3.53897">
        <ele>110.69</ele>
        <time>2016-10-16T13:08:55Z</time>
      </trkpt>
      <trkpt lat="50.76406" lon="3.53937">
        <ele>110.69</ele>
        <time>2016-10-16T13:09:18Z</time>
      </trkpt>
      <trkpt lat="50.76388" lon="3.53984">
        <ele>111.17</ele>
        <time>2016-10-16T13:09:44Z</time>
      </trkpt>
      <trkpt lat="50.76377" lon="3.54009">
        <ele>110.21</ele>
        <time>2016-10-16T13:10:04Z</time>
      </trkpt>
      <trkpt lat="50.76351" lon="3.54029">
        <ele>110.21</ele>
        <time>2016-10-16T13:10:28Z</time>
      </trkpt>
      <trkpt lat="50.76321" lon="3.54053">
        <ele>109.73</ele>
        <time>2016-10-16T13:10:51Z</time>
      </trkpt>
      <trkpt lat="50.76299" lon="3.54068">
        <ele>109.73</ele>
        <time>2016-10-16T13:11:08Z</time>
      </trkpt>
      <trkpt lat="50.76262" lon="3.54048">
        <ele>109.25</ele>
        <time>2016-10-16T13:11:37Z</time>
      </trkpt>
      <trkpt lat="50.76243" lon="3.54039">
        <ele>110.69</ele>
        <time>2016-10-16T13:11:54Z</time>
      </trkpt>
      <trkpt lat="50.76217" lon="3.54016">
        <ele>110.69</ele>
        <time>2016-10-16T13:12:16Z</time>
      </trkpt>
      <trkpt lat="50.76197" lon="3.53997">
        <ele>109.25</ele>
        <time>2016-10-16T13:12:39Z</time>
      </trkpt>
      <trkpt lat="50.76179" lon="3.53984">
        <ele>108.29</ele>
        <time>2016-10-16T13:13:02Z</time>
      </trkpt>
      <trkpt lat="50.76146" lon="3.53969">
        <ele>106.84</ele>
        <time>2016-10-16T13:13:25Z</time>
      </trkpt>
      <trkpt lat="50.76119" lon="3.5396">
        <ele>105.88</ele>
        <time>2016-10-16T13:13:48Z</time>
      </trkpt>
      <trkpt lat="50.76091" lon="3.53961">
        <ele>107.32</ele>
        <time>2016-10-16T13:14:09Z</time>
      </trkpt>
      <trkpt lat="50.7609" lon="3.53959">
        <ele>107.32</ele>
        <time>2016-10-16T13:14:30Z</time>
      </trkpt>
      <trkpt lat="50.7609" lon="3.53961">
        <ele>108.77</ele>
        <time>2016-10-16T13:14:32Z</time>
      </trkpt>
      <trkpt lat="50.7609" lon="3.53964">
        <ele>107.32</ele>
        <time>2016-10-16T13:14:36Z</time>
      </trkpt>
      <trkpt lat="50.76085" lon="3.53963">
        <ele>107.32</ele>
        <time>2016-10-16T13:14:58Z</time>
      </trkpt>
      <trkpt lat="50.76072" lon="3.53971">
        <ele>107.81</ele>
        <time>2016-10-16T13:15:21Z</time>
      </trkpt>
      <trkpt lat="50.76059" lon="3.53966">
        <ele>108.77</ele>
        <time>2016-10-16T13:15:41Z</time>
      </trkpt>
      <trkpt lat="50.76073" lon="3.53965">
        <ele>108.77</ele>
        <time>2016-10-16T13:15:59Z</time>
      </trkpt>
      <trkpt lat="50.7608" lon="3.5397">
        <ele>108.77</ele>
        <time>2016-10-16T13:16:21Z</time>
      </trkpt>
      <trkpt lat="50.76086" lon="3.53972">
        <ele>109.25</ele>
        <time>2016-10-16T13:16:32Z</time>
      </trkpt>
      <trkpt lat="50.76098" lon="3.53966">
        <ele>109.25</ele>
        <time>2016-10-16T13:16:59Z</time>
      </trkpt>
      <trkpt lat="50.76081" lon="3.53967">
        <ele>108.29</ele>
        <time>2016-10-16T13:17:24Z</time>
      </trkpt>
      <trkpt lat="50.76083" lon="3.53962">
        <ele>108.29</ele>
        <time>2016-10-16T13:17:46Z</time>
      </trkpt>
      <trkpt lat="50.76083" lon="3.53962">
        <ele>108.77</ele>
        <time>2016-10-16T13:18:10Z</time>
      </trkpt>
      <trkpt lat="50.7608" lon="3.53969">
        <ele>108.77</ele>
        <time>2016-10-16T13:18:20Z</time>
      </trkpt>
      <trkpt lat="50.76075" lon="3.5396">
        <ele>108.77</ele>
        <time>2016-10-16T13:18:45Z</time>
      </trkpt>
      <trkpt lat="50.76078" lon="3.53961">
        <ele>108.77</ele>
        <time>2016-10-16T13:19:09Z</time>
      </trkpt>
      <trkpt lat="50.76059" lon="3.5395">
        <ele>108.77</ele>
        <time>2016-10-16T13:19:28Z</time>
      </trkpt>
      <trkpt lat="50.76045" lon="3.5394">
        <ele>105.4</ele>
        <time>2016-10-16T13:19:48Z</time>
      </trkpt>
      <trkpt lat="50.7603" lon="3.53943">
        <ele>103</ele>
        <time>2016-10-16T13:20:11Z</time>
      </trkpt>
      <trkpt lat="50.76005" lon="3.53963">
        <ele>100.6</ele>
        <time>2016-10-16T13:20:33Z</time>
      </trkpt>
      <trkpt lat="50.75991" lon="3.53984">
        <ele>97.71</ele>
        <time>2016-10-16T13:20:57Z</time>
      </trkpt>
      <trkpt lat="50.75967" lon="3.53993">
        <ele>95.31</ele>
        <time>2016-10-16T13:21:19Z</time>
      </trkpt>
      <trkpt lat="50.75946" lon="3.5401">
        <ele>93.39</ele>
        <time>2016-10-16T13:21:40Z</time>
      </trkpt>
      <trkpt lat="50.75929" lon="3.54019">
        <ele>90.02</ele>
        <time>2016-10-16T13:22:00Z</time>
      </trkpt>
      <trkpt lat="50.75911" lon="3.54033">
        <ele>88.58</ele>
        <time>2016-10-16T13:22:22Z</time>
      </trkpt>
      <trkpt lat="50.75893" lon="3.54048">
        <ele>88.1</ele>
        <time>2016-10-16T13:22:46Z</time>
      </trkpt>
      <trkpt lat="50.75888" lon="3.54053">
        <ele>86.66</ele>
        <time>2016-10-16T13:22:50Z</time>
      </trkpt>
      <trkpt lat="50.75867" lon="3.54083">
        <ele>83.77</ele>
        <time>2016-10-16T13:23:17Z</time>
      </trkpt>
      <trkpt lat="50.75857" lon="3.5408">
        <ele>83.77</ele>
        <time>2016-10-16T13:23:25Z</time>
      </trkpt>
      <trkpt lat="50.7583" lon="3.54077">
        <ele>79.93</ele>
        <time>2016-10-16T13:23:50Z</time>
      </trkpt>
      <trkpt lat="50.75814" lon="3.54099">
        <ele>78.48</ele>
        <time>2016-10-16T13:24:06Z</time>
      </trkpt>
      <trkpt lat="50.75809" lon="3.54113">
        <ele>77.52</ele>
        <time>2016-10-16T13:24:14Z</time>
      </trkpt>
      <trkpt lat="50.758" lon="3.54136">
        <ele>76.08</ele>
        <time>2016-10-16T13:24:27Z</time>
      </trkpt>
      <trkpt lat="50.75796" lon="3.54159">
        <ele>72.72</ele>
        <time>2016-10-16T13:24:43Z</time>
      </trkpt>
      <trkpt lat="50.75794" lon="3.5416">
        <ele>74.16</ele>
        <time>2016-10-16T13:25:05Z</time>
      </trkpt>
      <trkpt lat="50.75794" lon="3.54174">
        <ele>74.16</ele>
        <time>2016-10-16T13:25:12Z</time>
      </trkpt>
      <trkpt lat="50.75793" lon="3.54221">
        <ele>70.31</ele>
        <time>2016-10-16T13:25:34Z</time>
      </trkpt>
      <trkpt lat="50.75781" lon="3.54264">
        <ele>68.39</ele>
        <time>2016-10-16T13:25:57Z</time>
      </trkpt>
      <trkpt lat="50.75769" lon="3.54291">
        <ele>65.51</ele>
        <time>2016-10-16T13:26:19Z</time>
      </trkpt>
      <trkpt lat="50.75768" lon="3.54293">
        <ele>65.51</ele>
        <time>2016-10-16T13:26:20Z</time>
      </trkpt>
      <trkpt lat="50.75752" lon="3.54334">
        <ele>64.55</ele>
        <time>2016-10-16T13:26:43Z</time>
      </trkpt>
      <trkpt lat="50.75731" lon="3.5437">
        <ele>62.14</ele>
        <time>2016-10-16T13:27:08Z</time>
      </trkpt>
      <trkpt lat="50.75713" lon="3.54404">
        <ele>59.74</ele>
        <time>2016-10-16T13:27:30Z</time>
      </trkpt>
      <trkpt lat="50.75695" lon="3.54448">
        <ele>56.86</ele>
        <time>2016-10-16T13:27:56Z</time>
      </trkpt>
      <trkpt lat="50.7569" lon="3.54461">
        <ele>56.37</ele>
        <time>2016-10-16T13:28:12Z</time>
      </trkpt>
      <trkpt lat="50.75682" lon="3.54474">
        <ele>54.93</ele>
        <time>2016-10-16T13:28:19Z</time>
      </trkpt>
      <trkpt lat="50.75676" lon="3.54485">
        <ele>54.45</ele>
        <time>2016-10-16T13:28:38Z</time>
      </trkpt>
      <trkpt lat="50.75657" lon="3.54523">
        <ele>51.09</ele>
        <time>2016-10-16T13:29:02Z</time>
      </trkpt>
      <trkpt lat="50.75639" lon="3.54565">
        <ele>49.16</ele>
        <time>2016-10-16T13:29:29Z</time>
      </trkpt>
      <trkpt lat="50.75625" lon="3.54612">
        <ele>46.76</ele>
        <time>2016-10-16T13:29:57Z</time>
      </trkpt>
      <trkpt lat="50.75646" lon="3.54634">
        <ele>45.32</ele>
        <time>2016-10-16T13:30:22Z</time>
      </trkpt>
      <trkpt lat="50.75656" lon="3.5465">
        <ele>43.88</ele>
        <time>2016-10-16T13:30:41Z</time>
      </trkpt>
      <trkpt lat="50.75652" lon="3.54678">
        <ele>43.4</ele>
        <time>2016-10-16T13:30:59Z</time>
      </trkpt>
      <trkpt lat="50.7565" lon="3.54683">
        <ele>41.95</ele>
        <time>2016-10-16T13:31:01Z</time>
      </trkpt>
      <trkpt lat="50.75638" lon="3.54723">
        <ele>40.51</ele>
        <time>2016-10-16T13:31:22Z</time>
      </trkpt>
      <trkpt lat="50.7563" lon="3.54776">
        <ele>39.07</ele>
        <time>2016-10-16T13:31:51Z</time>
      </trkpt>
      <trkpt lat="50.75622" lon="3.54828">
        <ele>38.59</ele>
        <time>2016-10-16T13:32:16Z</time>
      </trkpt>
      <trkpt lat="50.75624" lon="3.54878">
        <ele>38.11</ele>
        <time>2016-10-16T13:32:38Z</time>
      </trkpt>
      <trkpt lat="50.75621" lon="3.54923">
        <ele>38.59</ele>
        <time>2016-10-16T13:33:01Z</time>
      </trkpt>
      <trkpt lat="50.7562" lon="3.54939">
        <ele>37.15</ele>
        <time>2016-10-16T13:33:08Z</time>
      </trkpt>
      <trkpt lat="50.7561" lon="3.54984">
        <ele>36.19</ele>
        <time>2016-10-16T13:33:31Z</time>
      </trkpt>
      <trkpt lat="50.75603" lon="3.55015">
        <ele>37.63</ele>
        <time>2016-10-16T13:33:44Z</time>
      </trkpt>
      <trkpt lat="50.75602" lon="3.55022">
        <ele>39.07</ele>
        <time>2016-10-16T13:33:46Z</time>
      </trkpt>
      <trkpt lat="50.75592" lon="3.55038">
        <ele>37.63</ele>
        <time>2016-10-16T13:33:56Z</time>
      </trkpt>
      <trkpt lat="50.75571" lon="3.5507">
        <ele>35.71</ele>
        <time>2016-10-16T13:34:19Z</time>
      </trkpt>
      <trkpt lat="50.75543" lon="3.55104">
        <ele>36.67</ele>
        <time>2016-10-16T13:34:47Z</time>
      </trkpt>
      <trkpt lat="50.75511" lon="3.55111">
        <ele>35.71</ele>
        <time>2016-10-16T13:35:13Z</time>
      </trkpt>
      <trkpt lat="50.7549" lon="3.55108">
        <ele>35.71</ele>
        <time>2016-10-16T13:35:29Z</time>
      </trkpt>
      <trkpt lat="50.75458" lon="3.5511">
        <ele>34.74</ele>
        <time>2016-10-16T13:35:54Z</time>
      </trkpt>
      <trkpt lat="50.75415" lon="3.55099">
        <ele>35.71</ele>
        <time>2016-10-16T13:36:22Z</time>
      </trkpt>
      <trkpt lat="50.75405" lon="3.55098">
        <ele>34.26</ele>
        <time>2016-10-16T13:36:30Z</time>
      </trkpt>
      <trkpt lat="50.75375" lon="3.55091">
        <ele>33.3</ele>
        <time>2016-10-16T13:36:54Z</time>
      </trkpt>
      <trkpt lat="50.75371" lon="3.55091">
        <ele>34.74</ele>
        <time>2016-10-16T13:36:58Z</time>
      </trkpt>
      <trkpt lat="50.75359" lon="3.55088">
        <ele>33.3</ele>
        <time>2016-10-16T13:37:06Z</time>
      </trkpt>
      <trkpt lat="50.75346" lon="3.55085">
        <ele>33.3</ele>
        <time>2016-10-16T13:37:15Z</time>
      </trkpt>
      <trkpt lat="50.75316" lon="3.5509">
        <ele>32.82</ele>
        <time>2016-10-16T13:37:36Z</time>
      </trkpt>
      <trkpt lat="50.75293" lon="3.55109">
        <ele>32.82</ele>
        <time>2016-10-16T13:38:00Z</time>
      </trkpt>
      <trkpt lat="50.75291" lon="3.55112">
        <ele>31.86</ele>
        <time>2016-10-16T13:38:02Z</time>
      </trkpt>
      <trkpt lat="50.75275" lon="3.55164">
        <ele>31.86</ele>
        <time>2016-10-16T13:38:28Z</time>
      </trkpt>
      <trkpt lat="50.7527" lon="3.55186">
        <ele>31.86</ele>
        <time>2016-10-16T13:38:39Z</time>
      </trkpt>
      <trkpt lat="50.75263" lon="3.55212">
        <ele>30.9</ele>
        <time>2016-10-16T13:38:53Z</time>
      </trkpt>
      <trkpt lat="50.75259" lon="3.55218">
        <ele>30.9</ele>
        <time>2016-10-16T13:38:57Z</time>
      </trkpt>
      <trkpt lat="50.75246" lon="3.55229">
        <ele>32.34</ele>
        <time>2016-10-16T13:39:07Z</time>
      </trkpt>
      <trkpt lat="50.75238" lon="3.5527">
        <ele>31.38</ele>
        <time>2016-10-16T13:39:29Z</time>
      </trkpt>
      <trkpt lat="50.75229" lon="3.55325">
        <ele>31.38</ele>
        <time>2016-10-16T13:39:56Z</time>
      </trkpt>
      <trkpt lat="50.75211" lon="3.55364">
        <ele>30.42</ele>
        <time>2016-10-16T13:40:21Z</time>
      </trkpt>
      <trkpt lat="50.75194" lon="3.55416">
        <ele>31.86</ele>
        <time>2016-10-16T13:40:50Z</time>
      </trkpt>
      <trkpt lat="50.75179" lon="3.55446">
        <ele>30.42</ele>
        <time>2016-10-16T13:41:10Z</time>
      </trkpt>
      <trkpt lat="50.75171" lon="3.55497">
        <ele>30.42</ele>
        <time>2016-10-16T13:41:36Z</time>
      </trkpt>
      <trkpt lat="50.75171" lon="3.55522">
        <ele>30.42</ele>
        <time>2016-10-16T13:41:49Z</time>
      </trkpt>
      <trkpt lat="50.75166" lon="3.55575">
        <ele>30.42</ele>
        <time>2016-10-16T13:42:15Z</time>
      </trkpt>
      <trkpt lat="50.75162" lon="3.5563">
        <ele>29.94</ele>
        <time>2016-10-16T13:42:42Z</time>
      </trkpt>
      <trkpt lat="50.75154" lon="3.55685">
        <ele>30.42</ele>
        <time>2016-10-16T13:43:10Z</time>
      </trkpt>
      <trkpt lat="50.75144" lon="3.5574">
        <ele>29.46</ele>
        <time>2016-10-16T13:43:39Z</time>
      </trkpt>
      <trkpt lat="50.75138" lon="3.55805">
        <ele>29.46</ele>
        <time>2016-10-16T13:44:10Z</time>
      </trkpt>
      <trkpt lat="50.7513" lon="3.55858">
        <ele>29.46</ele>
        <time>2016-10-16T13:44:37Z</time>
      </trkpt>
      <trkpt lat="50.7512" lon="3.55904">
        <ele>28.98</ele>
        <time>2016-10-16T13:45:01Z</time>
      </trkpt>
      <trkpt lat="50.75113" lon="3.55929">
        <ele>27.53</ele>
        <time>2016-10-16T13:45:23Z</time>
      </trkpt>
      <trkpt lat="50.75098" lon="3.55992">
        <ele>26.57</ele>
        <time>2016-10-16T13:45:52Z</time>
      </trkpt>
      <trkpt lat="50.75078" lon="3.56031">
        <ele>25.13</ele>
        <time>2016-10-16T13:46:16Z</time>
      </trkpt>
      <trkpt lat="50.75068" lon="3.56037">
        <ele>25.61</ele>
        <time>2016-10-16T13:46:28Z</time>
      </trkpt>
      <trkpt lat="50.75056" lon="3.5604">
        <ele>24.65</ele>
        <time>2016-10-16T13:46:39Z</time>
      </trkpt>
      <trkpt lat="50.75042" lon="3.5604">
        <ele>25.13</ele>
        <time>2016-10-16T13:46:49Z</time>
      </trkpt>
      <trkpt lat="50.7504" lon="3.56041">
        <ele>25.13</ele>
        <time>2016-10-16T13:46:51Z</time>
      </trkpt>
      <trkpt lat="50.7501" lon="3.5605">
        <ele>25.13</ele>
        <time>2016-10-16T13:47:16Z</time>
      </trkpt>
      <trkpt lat="50.74985" lon="3.56045">
        <ele>25.13</ele>
        <time>2016-10-16T13:47:37Z</time>
      </trkpt>
      <trkpt lat="50.7497" lon="3.56034">
        <ele>23.69</ele>
        <time>2016-10-16T13:47:52Z</time>
      </trkpt>
      <trkpt lat="50.74944" lon="3.56023">
        <ele>23.69</ele>
        <time>2016-10-16T13:48:16Z</time>
      </trkpt>
      <trkpt lat="50.74928" lon="3.56015">
        <ele>25.61</ele>
        <time>2016-10-16T13:48:36Z</time>
      </trkpt>
      <trkpt lat="50.74928" lon="3.56013">
        <ele>25.13</ele>
        <time>2016-10-16T13:49:04Z</time>
      </trkpt>
      <trkpt lat="50.7492" lon="3.56035">
        <ele>25.61</ele>
        <time>2016-10-16T13:49:22Z</time>
      </trkpt>
      <trkpt lat="50.74908" lon="3.56081">
        <ele>23.69</ele>
        <time>2016-10-16T13:49:50Z</time>
      </trkpt>
      <trkpt lat="50.74897" lon="3.56121">
        <ele>25.13</ele>
        <time>2016-10-16T13:50:11Z</time>
      </trkpt>
      <trkpt lat="50.74891" lon="3.56163">
        <ele>26.09</ele>
        <time>2016-10-16T13:50:35Z</time>
      </trkpt>
      <trkpt lat="50.74887" lon="3.56198">
        <ele>27.05</ele>
        <time>2016-10-16T13:50:55Z</time>
      </trkpt>
      <trkpt lat="50.74877" lon="3.56223">
        <ele>28.02</ele>
        <time>2016-10-16T13:51:12Z</time>
      </trkpt>
      <trkpt lat="50.74871" lon="3.56267">
        <ele>28.98</ele>
        <time>2016-10-16T13:51:35Z</time>
      </trkpt>
      <trkpt lat="50.74866" lon="3.56312">
        <ele>29.94</ele>
        <time>2016-10-16T13:51:58Z</time>
      </trkpt>
      <trkpt lat="50.74863" lon="3.56349">
        <ele>31.38</ele>
        <time>2016-10-16T13:52:20Z</time>
      </trkpt>
      <trkpt lat="50.7486" lon="3.56389">
        <ele>31.38</ele>
        <time>2016-10-16T13:52:41Z</time>
      </trkpt>
      <trkpt lat="50.74863" lon="3.564">
        <ele>32.82</ele>
        <time>2016-10-16T13:52:51Z</time>
      </trkpt>
      <trkpt lat="50.7487" lon="3.56436">
        <ele>33.3</ele>
        <time>2016-10-16T13:53:16Z</time>
      </trkpt>
      <trkpt lat="50.74876" lon="3.56459">
        <ele>33.78</ele>
        <time>2016-10-16T13:53:30Z</time>
      </trkpt>
      <trkpt lat="50.74879" lon="3.56506">
        <ele>34.74</ele>
        <time>2016-10-16T13:53:54Z</time>
      </trkpt>
      <trkpt lat="50.74876" lon="3.56543">
        <ele>35.23</ele>
        <time>2016-10-16T13:54:15Z</time>
      </trkpt>
      <trkpt lat="50.74869" lon="3.56575">
        <ele>34.26</ele>
        <time>2016-10-16T13:54:39Z</time>
      </trkpt>
      <trkpt lat="50.74863" lon="3.56587">
        <ele>33.78</ele>
        <time>2016-10-16T13:54:52Z</time>
      </trkpt>
      <trkpt lat="50.74861" lon="3.56588">
        <ele>33.78</ele>
        <time>2016-10-16T13:55:19Z</time>
      </trkpt>
      <trkpt lat="50.7486" lon="3.56589">
        <ele>33.78</ele>
        <time>2016-10-16T13:55:37Z</time>
      </trkpt>
    </trkseg>
  </trk>
</gpx>